Wetterdaten: Montag, 27.03.2017
Datum Zeit Temp. A. Feuchte A. Luftdruck Regen Wind Richtung Richtung Sonnenschein ET UV Solar Taupunkt Windchill Windben Empfang
27.03.2017 00:00 1,1 C 77 % 1025,3 hPa 0,0 l/m 3,0 km/h (1 Bft) NO 55 0 min 0,000 mm 0,0 UV-I 0 W/m -2,5 C 1,1 C 4,8 km/h (1 Bft) 98,00 %
27.03.2017 00:02 1,2 C 77 % 1025,2 hPa 0,0 l/m 3,6 km/h (1 Bft) NO 55 0 min 0,000 mm 0,0 UV-I 0 W/m -2,4 C 1,2 C 4,8 km/h (1 Bft) 97,30 %
27.03.2017 00:04 1,3 C 76 % 1025,3 hPa 0,0 l/m 4,0 km/h (1 Bft) NO 55 0 min 0,000 mm 0,0 UV-I 0 W/m -2,5 C 1,3 C 4,8 km/h (1 Bft) 98,00 %
27.03.2017 00:06 1,3 C 77 % 1025,3 hPa 0,0 l/m 3,4 km/h (1 Bft) O-NO 57 0 min 0,000 mm 0,0 UV-I 0 W/m -2,3 C 1,3 C 4,8 km/h (1 Bft) 94,87 %
27.03.2017 00:08 1,2 C 77 % 1025,3 hPa 0,0 l/m 3,7 km/h (1 Bft) O-NO 57 0 min 0,000 mm 0,0 UV-I 0 W/m -2,4 C 1,2 C 4,8 km/h (1 Bft) 92,59 %
27.03.2017 00:10 1,1 C 77 % 1025,3 hPa 0,0 l/m 3,3 km/h (1 Bft) O-NO 57 0 min 0,000 mm 0,0 UV-I 0 W/m -2,5 C 1,1 C 4,8 km/h (1 Bft) 98,00 %
27.03.2017 00:12 1,0 C 77 % 1025,3 hPa 0,0 l/m 4,0 km/h (1 Bft) O-NO 57 0 min 0,000 mm 0,0 UV-I 0 W/m -2,6 C 1,0 C 4,8 km/h (1 Bft) 94,74 %
27.03.2017 00:14 1,1 C 76 % 1025,3 hPa 0,0 l/m 4,0 km/h (1 Bft) O-NO 57 0 min 0,000 mm 0,0 UV-I 0 W/m -2,6 C 1,1 C 6,4 km/h (2 Bft) 98,11 %
27.03.2017 00:16 1,6 C 74 % 1025,3 hPa 0,0 l/m 2,5 km/h (1 Bft) O-NO 57 0 min 0,000 mm 0,0 UV-I 0 W/m -2,5 C 1,6 C 3,2 km/h (1 Bft) 98,00 %
27.03.2017 00:18 2,1 C 71 % 1025,3 hPa 0,0 l/m 1,0 km/h (0 Bft) O-NO 57 0 min 0,000 mm 0,0 UV-I 0 W/m -2,6 C 2,1 C 3,2 km/h (1 Bft) 97,56 %
27.03.2017 00:20 2,2 C 70 % 1025,3 hPa 0,0 l/m 0,0 km/h (0 Bft) O-NO 57 0 min 0,000 mm 0,0 UV-I 0 W/m -2,7 C 2,2 C 0,0 km/h (0 Bft) 94,64 %
27.03.2017 00:22 2,1 C 70 % 1025,3 hPa 0,0 l/m 0,0 km/h (0 Bft) O-NO 57 0 min 0,000 mm 0,0 UV-I 0 W/m -2,8 C 2,1 C 0,0 km/h (0 Bft) 92,11 %
27.03.2017 00:24 1,9 C 72 % 1025,3 hPa 0,0 l/m 0,0 km/h (0 Bft) O-NO 57 0 min 0,000 mm 0,0 UV-I 0 W/m -2,6 C 1,9 C 0,0 km/h (0 Bft) 98,00 %
27.03.2017 00:26 1,6 C 73 % 1025,3 hPa 0,0 l/m 0,0 km/h (0 Bft) O-NO 57 0 min 0,000 mm 0,0 UV-I 0 W/m -2,7 C 1,6 C 0,0 km/h (0 Bft) 90,00 %
27.03.2017 00:28 1,4 C 74 % 1025,3 hPa 0,0 l/m 0,0 km/h (0 Bft) O-NO 57 0 min 0,000 mm 0,0 UV-I 0 W/m -2,7 C 1,4 C 0,0 km/h (0 Bft) 97,87 %
27.03.2017 00:30 1,4 C 74 % 1025,3 hPa 0,0 l/m 0,0 km/h (0 Bft) O-NO 57 0 min 0,000 mm 0,0 UV-I 0 W/m -2,7 C 1,4 C 0,0 km/h (0 Bft) 97,56 %
27.03.2017 00:32 1,3 C 75 % 1025,3 hPa 0,0 l/m 0,0 km/h (0 Bft) O-NO 57 0 min 0,000 mm 0,0 UV-I 0 W/m -2,6 C 1,3 C 0,0 km/h (0 Bft) 96,00 %
27.03.2017 00:34 1,1 C 76 % 1025,2 hPa 0,0 l/m 1,4 km/h (1 Bft) O-NO 57 0 min 0,000 mm 0,0 UV-I 0 W/m -2,6 C 1,1 C 3,2 km/h (1 Bft) 97,37 %
27.03.2017 00:36 1,0 C 77 % 1025,3 hPa 0,0 l/m 4,4 km/h (1 Bft) O-NO 64 0 min 0,000 mm 0,0 UV-I 0 W/m -2,6 C 1,0 C 8,0 km/h (2 Bft) 98,21 %
27.03.2017 00:38 0,9 C 77 % 1025,3 hPa 0,0 l/m 5,0 km/h (1 Bft) O-NO 66 0 min 0,000 mm 0,0 UV-I 0 W/m -2,7 C 0,9 C 6,4 km/h (2 Bft) 95,74 %
27.03.2017 00:40 1,3 C 75 % 1025,4 hPa 0,0 l/m 4,1 km/h (1 Bft) O-NO 66 0 min 0,000 mm 0,0 UV-I 0 W/m -2,6 C 1,3 C 4,8 km/h (1 Bft) 97,44 %
27.03.2017 00:42 1,9 C 71 % 1025,4 hPa 0,0 l/m 3,0 km/h (1 Bft) O-NO 66 0 min 0,000 mm 0,0 UV-I 0 W/m -2,8 C 1,9 C 4,8 km/h (1 Bft) 86,54 %
27.03.2017 00:44 2,3 C 70 % 1025,5 hPa 0,0 l/m 3,1 km/h (1 Bft) O-NO 66 0 min 0,000 mm 0,0 UV-I 0 W/m -2,6 C 2,3 C 4,8 km/h (1 Bft) 97,44 %
27.03.2017 00:46 2,5 C 68 % 1025,5 hPa 0,0 l/m 2,0 km/h (1 Bft) O-NO 66 0 min 0,000 mm 0,0 UV-I 0 W/m -2,8 C 2,5 C 3,2 km/h (1 Bft) 93,10 %
27.03.2017 00:48 2,6 C 68 % 1025,5 hPa 0,0 l/m 2,1 km/h (1 Bft) O-NO 66 0 min 0,000 mm 0,0 UV-I 0 W/m -2,7 C 2,6 C 3,2 km/h (1 Bft) 95,24 %
27.03.2017 00:50 2,4 C 68 % 1025,5 hPa 0,0 l/m 2,3 km/h (1 Bft) O-NO 66 0 min 0,000 mm 0,0 UV-I 0 W/m -2,9 C 2,4 C 3,2 km/h (1 Bft) 91,07 %
27.03.2017 00:52 2,4 C 68 % 1025,5 hPa 0,0 l/m 2,9 km/h (1 Bft) O-NO 66 0 min 0,000 mm 0,0 UV-I 0 W/m -2,9 C 2,4 C 4,8 km/h (1 Bft) 97,14 %
27.03.2017 00:54 2,4 C 68 % 1025,4 hPa 0,0 l/m 3,0 km/h (1 Bft) O-NO 66 0 min 0,000 mm 0,0 UV-I 0 W/m -2,9 C 2,4 C 4,8 km/h (1 Bft) 97,56 %
27.03.2017 00:56 2,5 C 68 % 1025,5 hPa 0,0 l/m 2,8 km/h (1 Bft) O-NO 66 0 min 0,000 mm 0,0 UV-I 0 W/m -2,8 C 2,5 C 4,8 km/h (1 Bft) 96,43 %
27.03.2017 00:58 2,4 C 68 % 1025,5 hPa 0,0 l/m 4,6 km/h (1 Bft) O-NO 66 0 min 0,000 mm 0,0 UV-I 0 W/m -2,9 C 2,4 C 6,4 km/h (2 Bft) 98,00 %
27.03.2017 01:00 2,4 C 69 % 1025,5 hPa 0,0 l/m 6,0 km/h (2 Bft) O-NO 66 0 min 0,000 mm 0,0 UV-I 0 W/m -2,7 C 2,4 C 6,4 km/h (2 Bft) 95,74 %
27.03.2017 01:02 2,4 C 69 % 1025,4 hPa 0,0 l/m 5,9 km/h (2 Bft) O-NO 67 0 min 0,000 mm 0,0 UV-I 0 W/m -2,7 C 2,4 C 6,4 km/h (2 Bft) 94,74 %
27.03.2017 01:04 2,3 C 69 % 1025,4 hPa 0,0 l/m 6,4 km/h (2 Bft) O-NO 69 0 min 0,000 mm 0,0 UV-I 0 W/m -2,8 C 2,3 C 8,0 km/h (2 Bft) 94,12 %
27.03.2017 01:06 2,3 C 69 % 1025,4 hPa 0,0 l/m 7,2 km/h (2 Bft) O-NO 74 0 min 0,000 mm 0,0 UV-I 0 W/m -2,8 C 1,5 C 8,0 km/h (2 Bft) 98,00 %
27.03.2017 01:08 2,4 C 69 % 1025,3 hPa 0,0 l/m 6,4 km/h (2 Bft) O-NO 71 0 min 0,000 mm 0,0 UV-I 0 W/m -2,7 C 2,4 C 8,0 km/h (2 Bft) 93,62 %
27.03.2017 01:10 2,6 C 68 % 1025,4 hPa 0,0 l/m 6,3 km/h (2 Bft) NO 53 0 min 0,000 mm 0,0 UV-I 0 W/m -2,7 C 2,6 C 9,7 km/h (2 Bft) 98,00 %
27.03.2017 01:12 2,7 C 68 % 1025,4 hPa 0,0 l/m 6,2 km/h (2 Bft) NO 56 0 min 0,000 mm 0,0 UV-I 0 W/m -2,6 C 2,7 C 9,7 km/h (2 Bft) 95,12 %
27.03.2017 01:14 2,8 C 67 % 1025,4 hPa 0,0 l/m 6,3 km/h (2 Bft) O-NO 62 0 min 0,000 mm 0,0 UV-I 0 W/m -2,7 C 2,8 C 8,0 km/h (2 Bft) 98,00 %
27.03.2017 01:16 2,8 C 67 % 1025,4 hPa 0,0 l/m 5,3 km/h (1 Bft) O-NO 69 0 min 0,000 mm 0,0 UV-I 0 W/m -2,7 C 2,8 C 8,0 km/h (2 Bft) 100,00 %
27.03.2017 01:18 2,7 C 67 % 1025,4 hPa 0,0 l/m 6,4 km/h (2 Bft) O-NO 72 0 min 0,000 mm 0,0 UV-I 0 W/m -2,8 C 2,7 C 9,7 km/h (2 Bft) 98,00 %
27.03.2017 01:20 2,7 C 67 % 1025,4 hPa 0,0 l/m 7,8 km/h (2 Bft) O-NO 71 0 min 0,000 mm 0,0 UV-I 0 W/m -2,8 C 1,4 C 9,7 km/h (2 Bft) 91,67 %
27.03.2017 01:22 2,7 C 68 % 1025,5 hPa 0,0 l/m 7,4 km/h (2 Bft) O 81 0 min 0,000 mm 0,0 UV-I 0 W/m -2,6 C 1,7 C 11,3 km/h (2 Bft) 96,36 %
27.03.2017 01:24 2,7 C 68 % 1025,4 hPa 0,0 l/m 6,5 km/h (2 Bft) O-NO 67 0 min 0,000 mm 0,0 UV-I 0 W/m -2,6 C 2,6 C 9,7 km/h (2 Bft) 94,87 %
27.03.2017 01:26 2,7 C 68 % 1025,4 hPa 0,0 l/m 5,6 km/h (1 Bft) O-NO 63 0 min 0,000 mm 0,0 UV-I 0 W/m -2,6 C 2,7 C 8,0 km/h (2 Bft) 98,11 %
27.03.2017 01:28 2,6 C 68 % 1025,5 hPa 0,0 l/m 5,1 km/h (1 Bft) NO 55 0 min 0,000 mm 0,0 UV-I 0 W/m -2,7 C 2,6 C 6,4 km/h (2 Bft) 96,15 %
27.03.2017 01:30 2,6 C 68 % 1025,6 hPa 0,0 l/m 4,7 km/h (1 Bft) O-NO 59 0 min 0,000 mm 0,0 UV-I 0 W/m -2,7 C 2,6 C 6,4 km/h (2 Bft) 93,33 %
27.03.2017 01:32 2,4 C 69 % 1025,6 hPa 0,0 l/m 3,4 km/h (1 Bft) O-NO 59 0 min 0,000 mm 0,0 UV-I 0 W/m -2,7 C 2,4 C 4,8 km/h (1 Bft) 96,00 %
27.03.2017 01:34 2,3 C 70 % 1025,6 hPa 0,0 l/m 3,7 km/h (1 Bft) O-NO 59 0 min 0,000 mm 0,0 UV-I 0 W/m -2,6 C 2,3 C 4,8 km/h (1 Bft) 92,11 %
27.03.2017 01:36 2,1 C 71 % 1025,6 hPa 0,0 l/m 3,5 km/h (1 Bft) O-NO 59 0 min 0,000 mm 0,0 UV-I 0 W/m -2,6 C 2,1 C 4,8 km/h (1 Bft) 96,00 %
27.03.2017 01:38 1,8 C 72 % 1025,6 hPa 0,0 l/m 3,1 km/h (1 Bft) O-NO 59 0 min 0,000 mm 0,0 UV-I 0 W/m -2,7 C 1,8 C 4,8 km/h (1 Bft) 93,62 %
27.03.2017 01:40 1,7 C 72 % 1025,6 hPa 0,0 l/m 3,0 km/h (1 Bft) O-NO 59 0 min 0,000 mm 0,0 UV-I 0 W/m -2,8 C 1,7 C 4,8 km/h (1 Bft) 93,62 %
27.03.2017 01:42 1,6 C 73 % 1025,7 hPa 0,0 l/m 2,9 km/h (1 Bft) O-NO 59 0 min 0,000 mm 0,0 UV-I 0 W/m -2,7 C 1,6 C 4,8 km/h (1 Bft) 97,37 %
27.03.2017 01:44 1,5 C 73 % 1025,7 hPa 0,0 l/m 2,9 km/h (1 Bft) O-NO 59 0 min 0,000 mm 0,0 UV-I 0 W/m -2,8 C 1,5 C 4,8 km/h (1 Bft) 100,00 %
27.03.2017 01:46 1,6 C 73 % 1025,7 hPa 0,0 l/m 3,4 km/h (1 Bft) O-NO 59 0 min 0,000 mm 0,0 UV-I 0 W/m -2,7 C 1,6 C 6,4 km/h (2 Bft) 94,00 %
27.03.2017 01:48 1,6 C 73 % 1025,7 hPa 0,0 l/m 2,8 km/h (1 Bft) O-NO 59 0 min 0,000 mm 0,0 UV-I 0 W/m -2,7 C 1,6 C 4,8 km/h (1 Bft) 98,11 %
27.03.2017 01:50 1,6 C 73 % 1025,7 hPa 0,0 l/m 1,7 km/h (1 Bft) O-NO 59 0 min 0,000 mm 0,0 UV-I 0 W/m -2,7 C 1,6 C 3,2 km/h (1 Bft) 94,74 %
27.03.2017 01:52 1,6 C 73 % 1025,7 hPa 0,0 l/m 0,8 km/h (0 Bft) O-NO 59 0 min 0,000 mm 0,0 UV-I 0 W/m -2,7 C 1,6 C 1,6 km/h (1 Bft) 95,83 %
27.03.2017 01:54 1,6 C 73 % 1025,7 hPa 0,0 l/m 0,0 km/h (0 Bft) O-NO 59 0 min 0,000 mm 0,0 UV-I 0 W/m -2,7 C 1,6 C 1,6 km/h (1 Bft) 98,51 %
27.03.2017 01:56 1,6 C 73 % 1025,7 hPa 0,0 l/m 0,0 km/h (0 Bft) O-NO 59 0 min 0,000 mm 0,0 UV-I 0 W/m -2,7 C 1,6 C 0,0 km/h (0 Bft) 98,00 %
27.03.2017 01:58 1,5 C 73 % 1025,7 hPa 0,0 l/m 0,4 km/h (0 Bft) O-NO 59 0 min 0,000 mm 0,0 UV-I 0 W/m -2,8 C 1,5 C 1,6 km/h (1 Bft) 94,34 %
27.03.2017 02:00 1,4 C 74 % 1025,7 hPa 0,0 l/m 0,4 km/h (0 Bft) O-NO 59 0 min 0,025 mm 0,0 UV-I 0 W/m -2,7 C 1,4 C 1,6 km/h (1 Bft) 95,83 %
27.03.2017 02:02 1,4 C 74 % 1025,7 hPa 0,0 l/m 0,0 km/h (0 Bft) O-NO 59 0 min 0,000 mm 0,0 UV-I 0 W/m -2,7 C 1,4 C 0,0 km/h (0 Bft) 97,14 %
27.03.2017 02:04 1,4 C 74 % 1025,7 hPa 0,0 l/m 0,2 km/h (0 Bft) O-NO 59 0 min 0,000 mm 0,0 UV-I 0 W/m -2,7 C 1,4 C 1,6 km/h (1 Bft) 100,00 %
27.03.2017 02:06 1,5 C 74 % 1025,7 hPa 0,0 l/m 0,2 km/h (0 Bft) O-NO 59 0 min 0,000 mm 0,0 UV-I 0 W/m -2,6 C 1,5 C 1,6 km/h (1 Bft) 96,23 %
27.03.2017 02:08 1,4 C 73 % 1025,7 hPa 0,0 l/m 1,4 km/h (1 Bft) O-NO 59 0 min 0,000 mm 0,0 UV-I 0 W/m -2,9 C 1,4 C 3,2 km/h (1 Bft) 98,11 %
27.03.2017 02:10 1,6 C 73 % 1025,7 hPa 0,0 l/m 4,0 km/h (1 Bft) NO 48 0 min 0,000 mm 0,0 UV-I 0 W/m -2,7 C 1,6 C 8,0 km/h (2 Bft) 97,87 %
27.03.2017 02:12 1,6 C 74 % 1025,7 hPa 0,0 l/m 1,4 km/h (1 Bft) NO 48 0 min 0,000 mm 0,0 UV-I 0 W/m -2,5 C 1,6 C 4,8 km/h (1 Bft) 100,00 %
27.03.2017 02:14 1,6 C 73 % 1025,8 hPa 0,0 l/m 1,9 km/h (1 Bft) NO 48 0 min 0,000 mm 0,0 UV-I 0 W/m -2,7 C 1,6 C 3,2 km/h (1 Bft) 100,00 %
27.03.2017 02:16 1,6 C 73 % 1025,7 hPa 0,0 l/m 0,1 km/h (0 Bft) NO 48 0 min 0,000 mm 0,0 UV-I 0 W/m -2,7 C 1,6 C 1,6 km/h (1 Bft) 97,37 %
27.03.2017 02:18 1,6 C 73 % 1025,7 hPa 0,0 l/m 2,0 km/h (1 Bft) NO 48 0 min 0,000 mm 0,0 UV-I 0 W/m -2,7 C 1,6 C 3,2 km/h (1 Bft) 100,00 %
27.03.2017 02:20 1,6 C 74 % 1025,8 hPa 0,0 l/m 2,4 km/h (1 Bft) NO 48 0 min 0,000 mm 0,0 UV-I 0 W/m -2,5 C 1,6 C 3,2 km/h (1 Bft) 96,00 %
27.03.2017 02:22 1,5 C 74 % 1025,8 hPa 0,0 l/m 3,3 km/h (1 Bft) NO 48 0 min 0,000 mm 0,0 UV-I 0 W/m -2,6 C 1,5 C 4,8 km/h (1 Bft) 97,87 %
27.03.2017 02:24 1,3 C 74 % 1025,7 hPa 0,0 l/m 2,1 km/h (1 Bft) NO 48 0 min 0,000 mm 0,0 UV-I 0 W/m -2,8 C 1,3 C 3,2 km/h (1 Bft) 97,87 %
27.03.2017 02:26 1,1 C 75 % 1025,7 hPa 0,0 l/m 2,2 km/h (1 Bft) NO 48 0 min 0,000 mm 0,0 UV-I 0 W/m -2,8 C 1,1 C 3,2 km/h (1 Bft) 97,56 %
27.03.2017 02:28 1,1 C 76 % 1025,7 hPa 0,0 l/m 2,7 km/h (1 Bft) NO 48 0 min 0,000 mm 0,0 UV-I 0 W/m -2,6 C 1,1 C 4,8 km/h (1 Bft) 96,23 %
27.03.2017 02:30 1,1 C 76 % 1025,7 hPa 0,0 l/m 2,7 km/h (1 Bft) NO 48 0 min 0,000 mm 0,0 UV-I 0 W/m -2,6 C 1,1 C 4,8 km/h (1 Bft) 97,56 %
27.03.2017 02:32 1,2 C 75 % 1025,7 hPa 0,0 l/m 1,0 km/h (0 Bft) NO 48 0 min 0,000 mm 0,0 UV-I 0 W/m -2,7 C 1,2 C 3,2 km/h (1 Bft) 96,00 %
27.03.2017 02:34 1,3 C 75 % 1025,8 hPa 0,0 l/m 0,8 km/h (0 Bft) NO 48 0 min 0,000 mm 0,0 UV-I 0 W/m -2,6 C 1,3 C 3,2 km/h (1 Bft) 100,00 %
27.03.2017 02:36 1,3 C 75 % 1025,8 hPa 0,0 l/m 1,1 km/h (1 Bft) NO 48 0 min 0,000 mm 0,0 UV-I 0 W/m -2,6 C 1,3 C 3,2 km/h (1 Bft) 95,74 %
27.03.2017 02:38 1,2 C 75 % 1025,8 hPa 0,0 l/m 0,7 km/h (0 Bft) NO 48 0 min 0,000 mm 0,0 UV-I 0 W/m -2,7 C 1,2 C 3,2 km/h (1 Bft) 98,00 %
27.03.2017 02:40 1,1 C 76 % 1025,8 hPa 0,0 l/m 1,9 km/h (1 Bft) NO 48 0 min 0,000 mm 0,0 UV-I 0 W/m -2,6 C 1,1 C 4,8 km/h (1 Bft) 94,34 %
27.03.2017 02:42 0,9 C 77 % 1025,8 hPa 0,0 l/m 3,3 km/h (1 Bft) O-NO 62 0 min 0,000 mm 0,0 UV-I 0 W/m -2,7 C 0,9 C 4,8 km/h (1 Bft) 100,00 %
27.03.2017 02:44 0,7 C 77 % 1025,8 hPa 0,0 l/m 3,6 km/h (1 Bft) O-NO 71 0 min 0,000 mm 0,0 UV-I 0 W/m -2,9 C 0,7 C 4,8 km/h (1 Bft) 97,37 %
27.03.2017 02:46 0,7 C 77 % 1025,8 hPa 0,0 l/m 4,7 km/h (1 Bft) O 80 0 min 0,000 mm 0,0 UV-I 0 W/m -2,9 C 0,7 C 6,4 km/h (2 Bft) 98,44 %
27.03.2017 02:48 0,8 C 77 % 1025,7 hPa 0,0 l/m 4,7 km/h (1 Bft) O-NO 77 0 min 0,000 mm 0,0 UV-I 0 W/m -2,8 C 0,8 C 6,4 km/h (2 Bft) 100,00 %
27.03.2017 02:50 1,1 C 76 % 1025,7 hPa 0,0 l/m 5,0 km/h (1 Bft) O 80 0 min 0,000 mm 0,0 UV-I 0 W/m -2,6 C 1,1 C 6,4 km/h (2 Bft) 96,92 %
27.03.2017 02:52 1,2 C 76 % 1025,8 hPa 0,0 l/m 3,8 km/h (1 Bft) O-NO 76 0 min 0,000 mm 0,0 UV-I 0 W/m -2,5 C 1,2 C 6,4 km/h (2 Bft) 100,00 %
27.03.2017 02:54 1,4 C 75 % 1025,7 hPa 0,0 l/m 3,1 km/h (1 Bft) O-NO 76 0 min 0,000 mm 0,0 UV-I 0 W/m -2,5 C 1,4 C 6,4 km/h (2 Bft) 97,37 %
27.03.2017 02:56 1,4 C 74 % 1025,7 hPa 0,0 l/m 3,5 km/h (1 Bft) O-NO 76 0 min 0,000 mm 0,0 UV-I 0 W/m -2,7 C 1,4 C 4,8 km/h (1 Bft) 98,11 %
27.03.2017 02:58 1,4 C 74 % 1025,8 hPa 0,0 l/m 3,6 km/h (1 Bft) O-NO 77 0 min 0,000 mm 0,0 UV-I 0 W/m -2,7 C 1,4 C 6,4 km/h (2 Bft) 100,00 %
27.03.2017 03:00 1,4 C 74 % 1025,7 hPa 0,0 l/m 4,9 km/h (1 Bft) O-NO 77 0 min 0,000 mm 0,0 UV-I 0 W/m -2,7 C 1,4 C 6,4 km/h (2 Bft) 94,34 %
27.03.2017 03:02 1,3 C 75 % 1025,7 hPa 0,0 l/m 4,3 km/h (1 Bft) O-NO 77 0 min 0,000 mm 0,0 UV-I 0 W/m -2,6 C 1,3 C 6,4 km/h (2 Bft) 100,00 %
27.03.2017 03:04 1,3 C 75 % 1025,7 hPa 0,0 l/m 4,3 km/h (1 Bft) O-NO 77 0 min 0,000 mm 0,0 UV-I 0 W/m -2,6 C 1,3 C 6,4 km/h (2 Bft) 95,74 %
27.03.2017 03:06 1,3 C 75 % 1025,7 hPa 0,0 l/m 4,4 km/h (1 Bft) O-NO 71 0 min 0,000 mm 0,0 UV-I 0 W/m -2,6 C 1,3 C 6,4 km/h (2 Bft) 100,00 %
27.03.2017 03:08 1,3 C 75 % 1025,6 hPa 0,0 l/m 5,3 km/h (1 Bft) O-NO 75 0 min 0,000 mm 0,0 UV-I 0 W/m -2,6 C 1,3 C 8,0 km/h (2 Bft) 96,00 %
27.03.2017 03:10 1,3 C 75 % 1025,6 hPa 0,0 l/m 4,1 km/h (1 Bft) O-NO 74 0 min 0,000 mm 0,0 UV-I 0 W/m -2,6 C 1,3 C 4,8 km/h (1 Bft) 95,12 %
27.03.2017 03:12 1,4 C 75 % 1025,7 hPa 0,0 l/m 4,0 km/h (1 Bft) O-NO 74 0 min 0,000 mm 0,0 UV-I 0 W/m -2,5 C 1,4 C 4,8 km/h (1 Bft) 97,87 %
27.03.2017 03:14 1,3 C 74 % 1025,7 hPa 0,0 l/m 3,5 km/h (1 Bft) O-NO 72 0 min 0,000 mm 0,0 UV-I 0 W/m -2,8 C 1,3 C 4,8 km/h (1 Bft) 97,56 %
27.03.2017 03:16 1,3 C 75 % 1025,7 hPa 0,0 l/m 3,6 km/h (1 Bft) O-NO 74 0 min 0,000 mm 0,0 UV-I 0 W/m -2,6 C 1,3 C 6,4 km/h (2 Bft) 98,21 %
27.03.2017 03:18 1,2 C 75 % 1025,7 hPa 0,0 l/m 4,1 km/h (1 Bft) O-NO 74 0 min 0,000 mm 0,0 UV-I 0 W/m -2,7 C 1,2 C 6,4 km/h (2 Bft) 97,87 %
27.03.2017 03:20 1,1 C 76 % 1025,7 hPa 0,0 l/m 3,4 km/h (1 Bft) O-NO 74 0 min 0,000 mm 0,0 UV-I 0 W/m -2,6 C 1,1 C 4,8 km/h (1 Bft) 97,87 %
27.03.2017 03:22 1,0 C 76 % 1025,7 hPa 0,0 l/m 3,2 km/h (1 Bft) O-NO 73 0 min 0,000 mm 0,0 UV-I 0 W/m -2,7 C 1,0 C 4,8 km/h (1 Bft) 100,00 %
27.03.2017 03:24 1,0 C 76 % 1025,6 hPa 0,0 l/m 4,4 km/h (1 Bft) O 79 0 min 0,000 mm 0,0 UV-I 0 W/m -2,7 C 1,0 C 8,0 km/h (2 Bft) 96,36 %
27.03.2017 03:26 1,1 C 76 % 1025,6 hPa 0,0 l/m 4,6 km/h (1 Bft) O-NO 70 0 min 0,000 mm 0,0 UV-I 0 W/m -2,6 C 1,1 C 8,0 km/h (2 Bft) 100,00 %
27.03.2017 03:28 1,2 C 75 % 1025,6 hPa 0,0 l/m 2,7 km/h (1 Bft) O-NO 70 0 min 0,000 mm 0,0 UV-I 0 W/m -2,7 C 1,2 C 6,4 km/h (2 Bft) 96,23 %
27.03.2017 03:30 1,2 C 75 % 1025,7 hPa 0,0 l/m 2,0 km/h (1 Bft) O-NO 70 0 min 0,000 mm 0,0 UV-I 0 W/m -2,7 C 1,2 C 3,2 km/h (1 Bft) 98,11 %
27.03.2017 03:32 1,1 C 76 % 1025,7 hPa 0,0 l/m 1,9 km/h (1 Bft) O-NO 70 0 min 0,000 mm 0,0 UV-I 0 W/m -2,6 C 1,1 C 4,8 km/h (1 Bft) 97,56 %
27.03.2017 03:34 0,9 C 76 % 1025,7 hPa 0,0 l/m 2,2 km/h (1 Bft) O-NO 70 0 min 0,000 mm 0,0 UV-I 0 W/m -2,8 C 0,9 C 3,2 km/h (1 Bft) 100,00 %
27.03.2017 03:36 0,9 C 76 % 1025,7 hPa 0,0 l/m 1,3 km/h (1 Bft) O-NO 70 0 min 0,000 mm 0,0 UV-I 0 W/m -2,8 C 0,9 C 3,2 km/h (1 Bft) 100,00 %
27.03.2017 03:38 0,8 C 76 % 1025,8 hPa 0,0 l/m 1,1 km/h (1 Bft) O-NO 70 0 min 0,000 mm 0,0 UV-I 0 W/m -2,9 C 0,8 C 3,2 km/h (1 Bft) 97,87 %
27.03.2017 03:40 0,8 C 77 % 1025,8 hPa 0,0 l/m 2,1 km/h (1 Bft) O-NO 61 0 min 0,000 mm 0,0 UV-I 0 W/m -2,8 C 0,8 C 4,8 km/h (1 Bft) 96,23 %
27.03.2017 03:42 0,7 C 77 % 1025,8 hPa 0,0 l/m 2,4 km/h (1 Bft) NO 55 0 min 0,000 mm 0,0 UV-I 0 W/m -2,9 C 0,7 C 4,8 km/h (1 Bft) 96,00 %
27.03.2017 03:44 0,6 C 77 % 1025,8 hPa 0,0 l/m 2,0 km/h (1 Bft) NO 54 0 min 0,000 mm 0,0 UV-I 0 W/m -3,0 C 0,6 C 4,8 km/h (1 Bft) 100,00 %
27.03.2017 03:46 0,5 C 78 % 1025,9 hPa 0,0 l/m 0,7 km/h (0 Bft) NO 54 0 min 0,000 mm 0,0 UV-I 0 W/m -2,9 C 0,5 C 1,6 km/h (1 Bft) 93,90 %
27.03.2017 03:48 0,5 C 78 % 1025,9 hPa 0,0 l/m 0,0 km/h (0 Bft) NO 54 0 min 0,000 mm 0,0 UV-I 0 W/m -2,9 C 0,5 C 1,6 km/h (1 Bft) 92,11 %
27.03.2017 03:50 0,4 C 78 % 1025,8 hPa 0,0 l/m 0,3 km/h (0 Bft) NO 54 0 min 0,000 mm 0,0 UV-I 0 W/m -3,0 C 0,4 C 1,6 km/h (1 Bft) 98,11 %
27.03.2017 03:52 0,5 C 79 % 1025,8 hPa 0,0 l/m 0,0 km/h (0 Bft) NO 54 0 min 0,000 mm 0,0 UV-I 0 W/m -2,7 C 0,5 C 0,0 km/h (0 Bft) 95,12 %
27.03.2017 03:54 0,4 C 79 % 1025,8 hPa 0,0 l/m 0,3 km/h (0 Bft) NO 54 0 min 0,000 mm 0,0 UV-I 0 W/m -2,8 C 0,4 C 1,6 km/h (1 Bft) 98,00 %
27.03.2017 03:56 0,4 C 78 % 1025,8 hPa 0,0 l/m 0,0 km/h (0 Bft) NO 54 0 min 0,000 mm 0,0 UV-I 0 W/m -3,0 C 0,4 C 1,6 km/h (1 Bft) 93,62 %
27.03.2017 03:58 0,3 C 79 % 1025,8 hPa 0,0 l/m 0,0 km/h (0 Bft) NO 54 0 min 0,000 mm 0,0 UV-I 0 W/m -2,9 C 0,3 C 0,0 km/h (0 Bft) 94,00 %
27.03.2017 04:00 0,3 C 79 % 1025,8 hPa 0,0 l/m 0,0 km/h (0 Bft) NO 54 0 min 0,000 mm 0,0 UV-I 0 W/m -2,9 C 0,3 C 0,0 km/h (0 Bft) 95,83 %
27.03.2017 04:02 0,2 C 80 % 1025,8 hPa 0,0 l/m 0,2 km/h (0 Bft) NO 54 0 min 0,000 mm 0,0 UV-I 0 W/m -2,8 C 0,2 C 1,6 km/h (1 Bft) 87,50 %
27.03.2017 04:04 0,1 C 80 % 1025,9 hPa 0,0 l/m 1,9 km/h (1 Bft) NO 54 0 min 0,000 mm 0,0 UV-I 0 W/m -2,9 C 0,1 C 3,2 km/h (1 Bft) 94,00 %
27.03.2017 04:06 0,1 C 80 % 1025,9 hPa 0,0 l/m 2,2 km/h (1 Bft) NO 54 0 min 0,000 mm 0,0 UV-I 0 W/m -2,9 C 0,1 C 3,2 km/h (1 Bft) 94,23 %
27.03.2017 04:08 0,1 C 81 % 1025,9 hPa 0,0 l/m 1,1 km/h (1 Bft) NO 54 0 min 0,000 mm 0,0 UV-I 0 W/m -2,8 C 0,1 C 3,2 km/h (1 Bft) 91,67 %
27.03.2017 04:10 0,2 C 81 % 1025,8 hPa 0,0 l/m 0,0 km/h (0 Bft) NO 54 0 min 0,000 mm 0,0 UV-I 0 W/m -2,7 C 0,2 C 1,6 km/h (1 Bft) 91,43 %
27.03.2017 04:12 0,2 C 81 % 1025,8 hPa 0,0 l/m 1,2 km/h (1 Bft) NO 54 0 min 0,000 mm 0,0 UV-I 0 W/m -2,7 C 0,2 C 1,6 km/h (1 Bft) 92,45 %
27.03.2017 04:14 0,1 C 80 % 1025,9 hPa 0,0 l/m 2,3 km/h (1 Bft) NO 54 0 min 0,000 mm 0,0 UV-I 0 W/m -2,9 C 0,1 C 4,8 km/h (1 Bft) 91,49 %
27.03.2017 04:16 0,0 C 81 % 1025,9 hPa 0,0 l/m 1,4 km/h (1 Bft) NO 54 0 min 0,000 mm 0,0 UV-I 0 W/m -2,9 C 0,0 C 3,2 km/h (1 Bft) 96,00 %
27.03.2017 04:18 -0,2 C 81 % 1025,9 hPa 0,0 l/m 0,1 km/h (0 Bft) NO 54 0 min 0,000 mm 0,0 UV-I 0 W/m -3,1 C -0,2 C 1,6 km/h (1 Bft) 91,49 %
27.03.2017 04:20 -0,3 C 82 % 1025,9 hPa 0,0 l/m 1,6 km/h (1 Bft) NO 54 0 min 0,000 mm 0,0 UV-I 0 W/m -3,0 C -0,3 C 3,2 km/h (1 Bft) 94,00 %
27.03.2017 04:22 -0,3 C 82 % 1025,8 hPa 0,0 l/m 0,0 km/h (0 Bft) NO 54 0 min 0,000 mm 0,0 UV-I 0 W/m -3,0 C -0,3 C 1,6 km/h (1 Bft) 100,00 %
27.03.2017 04:24 -0,4 C 83 % 1025,8 hPa 0,0 l/m 0,0 km/h (0 Bft) NO 54 0 min 0,000 mm 0,0 UV-I 0 W/m -2,9 C -0,4 C 0,0 km/h (0 Bft) 92,00 %
27.03.2017 04:26 -0,4 C 83 % 1025,8 hPa 0,0 l/m 0,7 km/h (0 Bft) NO 54 0 min 0,000 mm 0,0 UV-I 0 W/m -2,9 C -0,4 C 3,2 km/h (1 Bft) 95,45 %
27.03.2017 04:28 -0,4 C 83 % 1025,8 hPa 0,0 l/m 2,8 km/h (1 Bft) NO 54 0 min 0,000 mm 0,0 UV-I 0 W/m -2,9 C -0,4 C 4,8 km/h (1 Bft) 92,11 %
27.03.2017 04:30 -0,2 C 83 % 1025,7 hPa 0,0 l/m 3,5 km/h (1 Bft) NO 54 0 min 0,000 mm 0,0 UV-I 0 W/m -2,7 C -0,2 C 4,8 km/h (1 Bft) 96,23 %
27.03.2017 04:32 0,1 C 82 % 1025,7 hPa 0,0 l/m 3,9 km/h (1 Bft) O-NO 69 0 min 0,000 mm 0,0 UV-I 0 W/m -2,6 C 0,1 C 6,4 km/h (2 Bft) 96,23 %
27.03.2017 04:34 0,2 C 81 % 1025,7 hPa 0,0 l/m 4,8 km/h (1 Bft) O 82 0 min 0,000 mm 0,0 UV-I 0 W/m -2,7 C 0,2 C 6,4 km/h (2 Bft) 95,74 %
27.03.2017 04:36 0,3 C 80 % 1025,7 hPa 0,0 l/m 5,5 km/h (1 Bft) O 98 0 min 0,000 mm 0,0 UV-I 0 W/m -2,7 C 0,3 C 9,7 km/h (2 Bft) 94,74 %
27.03.2017 04:38 0,3 C 80 % 1025,7 hPa 0,0 l/m 4,8 km/h (1 Bft) O-NO 74 0 min 0,000 mm 0,0 UV-I 0 W/m -2,7 C 0,3 C 6,4 km/h (2 Bft) 96,00 %
27.03.2017 04:40 0,4 C 79 % 1025,7 hPa 0,0 l/m 4,7 km/h (1 Bft) O-NO 69 0 min 0,000 mm 0,0 UV-I 0 W/m -2,8 C 0,4 C 6,4 km/h (2 Bft) 96,23 %
27.03.2017 04:42 0,4 C 79 % 1025,7 hPa 0,0 l/m 4,8 km/h (1 Bft) O-NO 68 0 min 0,000 mm 0,0 UV-I 0 W/m -2,8 C 0,4 C 6,4 km/h (2 Bft) 91,67 %
27.03.2017 04:44 0,5 C 79 % 1025,8 hPa 0,0 l/m 5,9 km/h (2 Bft) O-NO 68 0 min 0,000 mm 0,0 UV-I 0 W/m -2,7 C 0,5 C 9,7 km/h (2 Bft) 96,61 %
27.03.2017 04:46 0,5 C 79 % 1025,7 hPa 0,0 l/m 6,1 km/h (2 Bft) O-NO 74 0 min 0,000 mm 0,0 UV-I 0 W/m -2,7 C 0,5 C 8,0 km/h (2 Bft) 92,68 %
27.03.2017 04:48 0,5 C 79 % 1025,8 hPa 0,0 l/m 5,8 km/h (2 Bft) O-NO 65 0 min 0,000 mm 0,0 UV-I 0 W/m -2,7 C 0,5 C 11,3 km/h (2 Bft) 93,55 %
27.03.2017 04:50 0,5 C 79 % 1025,8 hPa 0,0 l/m 5,0 km/h (1 Bft) O-NO 60 0 min 0,000 mm 0,0 UV-I 0 W/m -2,7 C 0,5 C 9,7 km/h (2 Bft) 94,74 %
27.03.2017 04:52 0,6 C 79 % 1025,8 hPa 0,0 l/m 5,8 km/h (2 Bft) O-NO 76 0 min 0,000 mm 0,0 UV-I 0 W/m -2,6 C 0,6 C 8,0 km/h (2 Bft) 96,43 %
27.03.2017 04:54 0,6 C 79 % 1025,8 hPa 0,0 l/m 8,0 km/h (2 Bft) O-NO 77 0 min 0,000 mm 0,0 UV-I 0 W/m -2,6 C -1,0 C 11,3 km/h (2 Bft) 94,74 %
27.03.2017 04:56 0,6 C 79 % 1025,8 hPa 0,0 l/m 7,6 km/h (2 Bft) O-NO 63 0 min 0,000 mm 0,0 UV-I 0 W/m -2,6 C -0,6 C 11,3 km/h (2 Bft) 96,23 %
27.03.2017 04:58 0,6 C 79 % 1025,8 hPa 0,0 l/m 7,4 km/h (2 Bft) O 90 0 min 0,000 mm 0,0 UV-I 0 W/m -2,6 C -0,4 C 11,3 km/h (2 Bft) 94,87 %
27.03.2017 05:00 0,6 C 79 % 1025,7 hPa 0,0 l/m 7,8 km/h (2 Bft) O 79 0 min 0,000 mm 0,0 UV-I 0 W/m -2,6 C -0,8 C 12,9 km/h (3 Bft) 100,00 %
27.03.2017 05:02 0,7 C 78 % 1025,8 hPa 0,0 l/m 6,7 km/h (2 Bft) O 97 0 min 0,000 mm 0,0 UV-I 0 W/m -2,7 C 0,4 C 12,9 km/h (3 Bft) 95,74 %
27.03.2017 05:04 0,8 C 78 % 1025,8 hPa 0,0 l/m 10,0 km/h (2 Bft) O 97 0 min 0,000 mm 0,0 UV-I 0 W/m -2,6 C -2,6 C 16,1 km/h (3 Bft) 97,56 %
27.03.2017 05:06 0,9 C 78 % 1025,8 hPa 0,0 l/m 7,8 km/h (2 Bft) O-NO 74 0 min 0,000 mm 0,0 UV-I 0 W/m -2,5 C -0,5 C 11,3 km/h (2 Bft) 96,23 %
27.03.2017 05:08 0,9 C 77 % 1025,8 hPa 0,0 l/m 10,3 km/h (2 Bft) O 82 0 min 0,000 mm 0,0 UV-I 0 W/m -2,7 C -2,7 C 17,7 km/h (3 Bft) 97,56 %
27.03.2017 05:10 1,1 C 77 % 1025,8 hPa 0,0 l/m 10,2 km/h (2 Bft) O-NO 74 0 min 0,000 mm 0,0 UV-I 0 W/m -2,5 C -2,4 C 16,1 km/h (3 Bft) 96,00 %
27.03.2017 05:12 1,2 C 76 % 1025,8 hPa 0,0 l/m 8,5 km/h (2 Bft) O-NO 61 0 min 0,000 mm 0,0 UV-I 0 W/m -2,5 C -0,8 C 12,9 km/h (3 Bft) 93,18 %
27.03.2017 05:14 1,2 C 76 % 1025,8 hPa 0,0 l/m 8,5 km/h (2 Bft) O-NO 76 0 min 0,000 mm 0,0 UV-I 0 W/m -2,5 C -0,8 C 14,5 km/h (3 Bft) 98,11 %
27.03.2017 05:16 1,2 C 76 % 1025,8 hPa 0,0 l/m 11,7 km/h (2 Bft) O-NO 61 0 min 0,000 mm 0,0 UV-I 0 W/m -2,5 C -3,4 C 14,5 km/h (3 Bft) 100,00 %
27.03.2017 05:18 1,1 C 77 % 1025,8 hPa 0,0 l/m 12,2 km/h (2 Bft) O-NO 69 0 min 0,000 mm 0,0 UV-I 0 W/m -2,5 C -3,9 C 16,1 km/h (3 Bft) 96,36 %
27.03.2017 05:20 1,1 C 77 % 1025,9 hPa 0,0 l/m 12,5 km/h (3 Bft) O-NO 78 0 min 0,000 mm 0,0 UV-I 0 W/m -2,5 C -4,1 C 16,1 km/h (3 Bft) 97,62 %
27.03.2017 05:22 1,1 C 77 % 1025,9 hPa 0,0 l/m 10,8 km/h (2 Bft) O 82 0 min 0,000 mm 0,0 UV-I 0 W/m -2,5 C -2,9 C 14,5 km/h (3 Bft) 100,00 %
27.03.2017 05:24 1,1 C 77 % 1025,9 hPa 0,0 l/m 11,3 km/h (2 Bft) O 83 0 min 0,000 mm 0,0 UV-I 0 W/m -2,5 C -3,2 C 16,1 km/h (3 Bft) 96,36 %
27.03.2017 05:26 1,1 C 77 % 1025,9 hPa 0,0 l/m 9,8 km/h (2 Bft) O 83 0 min 0,000 mm 0,0 UV-I 0 W/m -2,5 C -2,1 C 14,5 km/h (3 Bft) 100,00 %
27.03.2017 05:28 1,1 C 77 % 1025,9 hPa 0,0 l/m 11,7 km/h (2 Bft) O 86 0 min 0,000 mm 0,0 UV-I 0 W/m -2,5 C -3,5 C 16,1 km/h (3 Bft) 100,00 %
27.03.2017 05:30 1,1 C 77 % 1025,9 hPa 0,0 l/m 11,1 km/h (2 Bft) O-NO 65 0 min 0,000 mm 0,0 UV-I 0 W/m -2,5 C -3,1 C 14,5 km/h (3 Bft) 98,21 %
27.03.2017 05:32 1,1 C 76 % 1025,9 hPa 0,0 l/m 12,9 km/h (3 Bft) O-SO 108 0 min 0,000 mm 0,0 UV-I 0 W/m -2,6 C -4,3 C 17,7 km/h (3 Bft) 100,00 %
27.03.2017 05:34 1,2 C 76 % 1025,9 hPa 0,0 l/m 9,2 km/h (2 Bft) O 86 0 min 0,000 mm 0,0 UV-I 0 W/m -2,5 C -1,5 C 14,5 km/h (3 Bft) 96,23 %
27.03.2017 05:36 1,2 C 76 % 1025,8 hPa 0,0 l/m 11,5 km/h (2 Bft) O 82 0 min 0,000 mm 0,0 UV-I 0 W/m -2,5 C -3,3 C 14,5 km/h (3 Bft) 100,00 %
27.03.2017 05:38 1,2 C 76 % 1025,9 hPa 0,0 l/m 10,7 km/h (2 Bft) O-NO 71 0 min 0,000 mm 0,0 UV-I 0 W/m -2,5 C -2,7 C 14,5 km/h (3 Bft) 98,00 %
27.03.2017 05:40 1,2 C 76 % 1025,8 hPa 0,0 l/m 5,8 km/h (2 Bft) O 80 0 min 0,000 mm 0,0 UV-I 0 W/m -2,5 C 1,2 C 9,7 km/h (2 Bft) 94,00 %
27.03.2017 05:42 1,1 C 76 % 1025,8 hPa 0,0 l/m 5,2 km/h (1 Bft) O 90 0 min 0,000 mm 0,0 UV-I 0 W/m -2,6 C 1,1 C 11,3 km/h (2 Bft) 95,12 %
27.03.2017 05:44 1,1 C 76 % 1025,8 hPa 0,0 l/m 9,5 km/h (2 Bft) O-SO 103 0 min 0,000 mm 0,0 UV-I 0 W/m -2,6 C -1,8 C 16,1 km/h (3 Bft) 94,74 %
27.03.2017 05:46 1,1 C 76 % 1025,7 hPa 0,0 l/m 6,5 km/h (2 Bft) O-SO 104 0 min 0,000 mm 0,0 UV-I 0 W/m -2,6 C 1,0 C 11,3 km/h (2 Bft) 98,11 %
27.03.2017 05:48 1,0 C 76 % 1025,7 hPa 0,0 l/m 10,7 km/h (2 Bft) O-NO 57 0 min 0,000 mm 0,0 UV-I 0 W/m -2,7 C -2,9 C 16,1 km/h (3 Bft) 100,00 %
27.03.2017 05:50 1,1 C 76 % 1025,7 hPa 0,0 l/m 11,0 km/h (2 Bft) O 87 0 min 0,000 mm 0,0 UV-I 0 W/m -2,6 C -3,0 C 14,5 km/h (3 Bft) 95,45 %
27.03.2017 05:52 1,1 C 76 % 1025,7 hPa 0,0 l/m 9,8 km/h (2 Bft) O-NO 74 0 min 0,000 mm 0,0 UV-I 0 W/m -2,6 C -2,1 C 14,5 km/h (3 Bft) 94,34 %
27.03.2017 05:54 1,1 C 76 % 1025,8 hPa 0,0 l/m 9,5 km/h (2 Bft) O 79 0 min 0,000 mm 0,0 UV-I 0 W/m -2,6 C -1,8 C 14,5 km/h (3 Bft) 95,45 %
27.03.2017 05:56 1,1 C 76 % 1025,8 hPa 0,0 l/m 8,4 km/h (2 Bft) O 88 0 min 0,000 mm 0,0 UV-I 0 W/m -2,6 C -0,9 C 12,9 km/h (3 Bft) 96,43 %
27.03.2017 05:58 1,2 C 76 % 1025,8 hPa 0,0 l/m 11,3 km/h (2 Bft) O 79 0 min 0,000 mm 0,0 UV-I 0 W/m -2,5 C -3,1 C 17,7 km/h (3 Bft) 95,45 %
27.03.2017 06:00 1,2 C 75 % 1025,8 hPa 0,0 l/m 9,3 km/h (2 Bft) O-NO 71 0 min 0,026 mm 0,0 UV-I 0 W/m -2,7 C -1,5 C 12,9 km/h (3 Bft) 92,31 %
27.03.2017 06:02 1,2 C 75 % 1025,8 hPa 0,0 l/m 9,1 km/h (2 Bft) O 80 0 min 0,000 mm 0,0 UV-I 0 W/m -2,7 C -1,4 C 12,9 km/h (3 Bft) 95,74 %
27.03.2017 06:04 1,3 C 75 % 1025,8 hPa 0,0 l/m 8,9 km/h (2 Bft) O-NO 73 0 min 0,000 mm 0,0 UV-I 0 W/m -2,6 C -1,1 C 12,9 km/h (3 Bft) 98,00 %
27.03.2017 06:06 1,2 C 75 % 1025,8 hPa 0,0 l/m 6,4 km/h (2 Bft) O-NO 77 0 min 0,000 mm 0,0 UV-I 0 W/m -2,7 C 1,2 C 8,0 km/h (2 Bft) 98,00 %
27.03.2017 06:08 1,2 C 75 % 1025,8 hPa 0,0 l/m 6,4 km/h (2 Bft) O 81 0 min 0,000 mm 0,0 UV-I 0 W/m -2,7 C 1,2 C 11,3 km/h (2 Bft) 97,37 %
27.03.2017 06:10 1,1 C 76 % 1025,8 hPa 0,0 l/m 5,7 km/h (1 Bft) O-NO 67 0 min 0,000 mm 0,0 UV-I 0 W/m -2,6 C 1,1 C 12,9 km/h (3 Bft) 96,23 %
27.03.2017 06:12 1,1 C 76 % 1025,9 hPa 0,0 l/m 6,5 km/h (2 Bft) O-NO 75 0 min 0,000 mm 0,0 UV-I 0 W/m -2,6 C 1,0 C 9,7 km/h (2 Bft) 97,87 %
27.03.2017 06:14 1,1 C 76 % 1025,9 hPa 0,0 l/m 4,8 km/h (1 Bft) O-NO 62 0 min 0,000 mm 0,0 UV-I 0 W/m -2,6 C 1,1 C 8,0 km/h (2 Bft) 94,34 %
27.03.2017 06:16 1,1 C 76 % 1025,8 hPa 0,0 l/m 3,2 km/h (1 Bft) O-NO 62 0 min 0,000 mm 0,0 UV-I 0 W/m -2,6 C 1,1 C 4,8 km/h (1 Bft) 93,62 %
27.03.2017 06:18 0,8 C 77 % 1025,9 hPa 0,0 l/m 2,6 km/h (1 Bft) O-NO 62 0 min 0,000 mm 0,0 UV-I 0 W/m -2,8 C 0,8 C 3,2 km/h (1 Bft) 95,12 %
27.03.2017 06:20 0,6 C 78 % 1025,9 hPa 0,0 l/m 3,3 km/h (1 Bft) O-NO 62 0 min 0,000 mm 0,0 UV-I 0 W/m -2,8 C 0,6 C 6,4 km/h (2 Bft) 97,87 %
27.03.2017 06:22 0,3 C 79 % 1025,9 hPa 0,0 l/m 2,7 km/h (1 Bft) O-NO 62 0 min 0,000 mm 0,0 UV-I 0 W/m -2,9 C 0,3 C 4,8 km/h (1 Bft) 97,73 %
27.03.2017 06:24 0,2 C 79 % 1025,9 hPa 0,0 l/m 3,9 km/h (1 Bft) O-NO 62 0 min 0,000 mm 0,0 UV-I 0 W/m -3,0 C 0,2 C 4,8 km/h (1 Bft) 96,43 %
27.03.2017 06:26 0,2 C 80 % 1025,8 hPa 0,0 l/m 1,2 km/h (1 Bft) O-NO 62 0 min 0,000 mm 0,0 UV-I 0 W/m -2,8 C 0,2 C 3,2 km/h (1 Bft) 97,56 %
27.03.2017 06:28 0,1 C 80 % 1025,9 hPa 0,0 l/m 1,3 km/h (1 Bft) O-NO 62 0 min 0,000 mm 0,0 UV-I 0 W/m -2,9 C 0,1 C 1,6 km/h (1 Bft) 97,87 %
27.03.2017 06:30 0,1 C 80 % 1025,9 hPa 0,0 l/m 1,4 km/h (1 Bft) O-NO 62 0 min 0,000 mm 0,0 UV-I 0 W/m -2,9 C 0,1 C 3,2 km/h (1 Bft) 98,00 %
27.03.2017 06:32 -0,1 C 80 % 1025,9 hPa 0,0 l/m 1,6 km/h (1 Bft) O-NO 62 0 min 0,000 mm 0,0 UV-I 0 W/m -3,1 C -0,1 C 3,2 km/h (1 Bft) 92,11 %
27.03.2017 06:34 -0,1 C 80 % 1025,9 hPa 0,0 l/m 2,6 km/h (1 Bft) O-NO 62 0 min 0,000 mm 0,0 UV-I 0 W/m -3,1 C -0,1 C 3,2 km/h (1 Bft) 95,74 %
27.03.2017 06:36 -0,1 C 81 % 1025,9 hPa 0,0 l/m 2,0 km/h (1 Bft) O-NO 62 0 min 0,000 mm 0,0 UV-I 0 W/m -3,0 C -0,1 C 3,2 km/h (1 Bft) 100,00 %
27.03.2017 06:38 -0,1 C 80 % 1025,9 hPa 0,0 l/m 1,7 km/h (1 Bft) O-NO 62 0 min 0,000 mm 0,0 UV-I 3 W/m -3,1 C -0,1 C 3,2 km/h (1 Bft) 98,00 %
27.03.2017 06:40 -0,1 C 81 % 1026,0 hPa 0,0 l/m 3,0 km/h (1 Bft) O-NO 62 0 min 0,000 mm 0,0 UV-I 5 W/m -3,0 C -0,1 C 4,8 km/h (1 Bft) 97,44 %
27.03.2017 06:42 -0,1 C 81 % 1025,9 hPa 0,0 l/m 3,6 km/h (1 Bft) O-NO 62 0 min 0,000 mm 0,0 UV-I 5 W/m -3,0 C -0,1 C 6,4 km/h (2 Bft) 94,00 %
27.03.2017 06:44 0,0 C 81 % 1026,0 hPa 0,0 l/m 4,0 km/h (1 Bft) O-NO 62 0 min 0,000 mm 0,0 UV-I 5 W/m -2,9 C 0,0 C 6,4 km/h (2 Bft) 94,55 %
27.03.2017 06:46 0,1 C 81 % 1026,0 hPa 0,0 l/m 3,1 km/h (1 Bft) O-NO 62 0 min 0,000 mm 0,0 UV-I 7 W/m -2,8 C 0,1 C 4,8 km/h (1 Bft) 100,00 %
27.03.2017 06:48 0,1 C 81 % 1025,9 hPa 0,0 l/m 3,2 km/h (1 Bft) O-NO 62 0 min 0,000 mm 0,0 UV-I 7 W/m -2,8 C 0,1 C 3,2 km/h (1 Bft) 96,00 %
27.03.2017 06:50 0,1 C 81 % 1026,0 hPa 0,0 l/m 3,7 km/h (1 Bft) O-NO 62 0 min 0,000 mm 0,0 UV-I 8 W/m -2,8 C 0,1 C 4,8 km/h (1 Bft) 96,23 %
27.03.2017 06:52 0,1 C 81 % 1026,0 hPa 0,0 l/m 3,6 km/h (1 Bft) O-NO 62 0 min 0,000 mm 0,0 UV-I 9 W/m -2,8 C 0,1 C 4,8 km/h (1 Bft) 97,56 %
27.03.2017 06:54 0,1 C 81 % 1026,0 hPa 0,0 l/m 3,0 km/h (1 Bft) O-NO 62 0 min 0,000 mm 0,0 UV-I 9 W/m -2,8 C 0,1 C 4,8 km/h (1 Bft) 98,11 %
27.03.2017 06:56 0,1 C 81 % 1026,0 hPa 0,0 l/m 3,0 km/h (1 Bft) O-NO 62 0 min 0,000 mm 0,0 UV-I 11 W/m -2,8 C 0,1 C 4,8 km/h (1 Bft) 92,68 %
27.03.2017 06:58 0,0 C 81 % 1026,0 hPa 0,0 l/m 2,6 km/h (1 Bft) O-NO 62 0 min 0,000 mm 0,0 UV-I 11 W/m -2,9 C 0,0 C 4,8 km/h (1 Bft) 100,00 %
27.03.2017 07:00 -0,1 C 81 % 1026,1 hPa 0,0 l/m 2,4 km/h (1 Bft) O-NO 62 0 min 0,000 mm 0,0 UV-I 13 W/m -3,0 C -0,1 C 4,8 km/h (1 Bft) 98,00 %
27.03.2017 07:02 -0,1 C 82 % 1026,1 hPa 0,0 l/m 2,0 km/h (1 Bft) O-NO 62 0 min 0,000 mm 0,0 UV-I 19 W/m -2,8 C -0,1 C 3,2 km/h (1 Bft) 100,00 %
27.03.2017 07:04 -0,2 C 82 % 1026,1 hPa 0,0 l/m 2,1 km/h (1 Bft) O-NO 62 2 min 0,000 mm 0,0 UV-I 25 W/m -2,9 C -0,2 C 3,2 km/h (1 Bft) 100,00 %
27.03.2017 07:06 -0,2 C 82 % 1026,1 hPa 0,0 l/m 0,8 km/h (0 Bft) O-NO 62 2 min 0,000 mm 0,0 UV-I 27 W/m -2,9 C -0,2 C 3,2 km/h (1 Bft) 97,56 %
27.03.2017 07:08 -0,2 C 82 % 1026,1 hPa 0,0 l/m 1,6 km/h (1 Bft) O-NO 62 2 min 0,000 mm 0,0 UV-I 32 W/m -2,9 C -0,2 C 3,2 km/h (1 Bft) 100,00 %
27.03.2017 07:10 -0,2 C 82 % 1026,1 hPa 0,0 l/m 1,3 km/h (1 Bft) O-NO 62 2 min 0,000 mm 0,0 UV-I 36 W/m -2,9 C -0,2 C 3,2 km/h (1 Bft) 100,00 %
27.03.2017 07:12 -0,3 C 82 % 1026,1 hPa 0,0 l/m 2,1 km/h (1 Bft) O-NO 62 2 min 0,000 mm 0,0 UV-I 40 W/m -3,0 C -0,3 C 3,2 km/h (1 Bft) 100,00 %
27.03.2017 07:14 -0,3 C 83 % 1026,0 hPa 0,0 l/m 1,0 km/h (0 Bft) O-NO 62 2 min 0,000 mm 0,0 UV-I 44 W/m -2,8 C -0,3 C 1,6 km/h (1 Bft) 100,00 %
27.03.2017 07:16 -0,3 C 83 % 1026,0 hPa 0,0 l/m 1,2 km/h (1 Bft) O-NO 62 2 min 0,000 mm 0,0 UV-I 48 W/m -2,8 C -0,3 C 1,6 km/h (1 Bft) 94,00 %
27.03.2017 07:18 -0,3 C 83 % 1026,1 hPa 0,0 l/m 1,9 km/h (1 Bft) O-NO 62 2 min 0,000 mm 0,0 UV-I 52 W/m -2,8 C -0,3 C 3,2 km/h (1 Bft) 100,00 %
27.03.2017 07:20 -0,3 C 83 % 1026,1 hPa 0,0 l/m 1,5 km/h (1 Bft) O-NO 62 2 min 0,000 mm 0,0 UV-I 56 W/m -2,8 C -0,3 C 3,2 km/h (1 Bft) 100,00 %
27.03.2017 07:22 -0,4 C 83 % 1026,1 hPa 0,0 l/m 1,1 km/h (1 Bft) O-NO 62 2 min 0,000 mm 0,0 UV-I 61 W/m -2,9 C -0,4 C 3,2 km/h (1 Bft) 98,00 %
27.03.2017 07:24 -0,4 C 83 % 1026,0 hPa 0,0 l/m 0,3 km/h (0 Bft) O-NO 62 2 min 0,000 mm 0,0 UV-I 66 W/m -2,9 C -0,4 C 1,6 km/h (1 Bft) 93,75 %
27.03.2017 07:26 -0,4 C 83 % 1026,1 hPa 0,0 l/m 2,1 km/h (1 Bft) O-NO 62 2 min 0,000 mm 0,0 UV-I 70 W/m -2,9 C -0,4 C 3,2 km/h (1 Bft) 100,00 %
27.03.2017 07:28 -0,4 C 83 % 1026,1 hPa 0,0 l/m 2,2 km/h (1 Bft) O-NO 62 2 min 0,000 mm 0,0 UV-I 75 W/m -2,9 C -0,4 C 3,2 km/h (1 Bft) 98,21 %
27.03.2017 07:30 -0,3 C 83 % 1026,1 hPa 0,0 l/m 1,6 km/h (1 Bft) O-NO 62 2 min 0,000 mm 0,0 UV-I 79 W/m -2,8 C -0,3 C 3,2 km/h (1 Bft) 100,00 %
27.03.2017 07:32 -0,3 C 83 % 1026,1 hPa 0,0 l/m 2,2 km/h (1 Bft) O-NO 62 2 min 0,000 mm 0,0 UV-I 83 W/m -2,8 C -0,3 C 3,2 km/h (1 Bft) 97,56 %
27.03.2017 07:34 -0,3 C 83 % 1026,1 hPa 0,0 l/m 2,8 km/h (1 Bft) O-NO 62 2 min 0,000 mm 0,0 UV-I 88 W/m -2,8 C -0,3 C 4,8 km/h (1 Bft) 97,73 %
27.03.2017 07:36 -0,3 C 84 % 1026,1 hPa 0,0 l/m 2,6 km/h (1 Bft) O-NO 62 2 min 0,000 mm 0,0 UV-I 93 W/m -2,7 C -0,3 C 3,2 km/h (1 Bft) 98,21 %
27.03.2017 07:38 -0,3 C 84 % 1026,1 hPa 0,0 l/m 2,1 km/h (1 Bft) O-NO 62 2 min 0,000 mm 0,0 UV-I 97 W/m -2,7 C -0,3 C 4,8 km/h (1 Bft) 91,43 %
27.03.2017 07:40 -0,3 C 84 % 1026,1 hPa 0,0 l/m 0,4 km/h (0 Bft) O-NO 62 2 min 0,000 mm 0,0 UV-I 101 W/m -2,7 C -0,3 C 1,6 km/h (1 Bft) 96,61 %
27.03.2017 07:42 -0,2 C 84 % 1026,1 hPa 0,0 l/m 2,3 km/h (1 Bft) O-NO 61 2 min 0,000 mm 0,0 UV-I 107 W/m -2,6 C -0,2 C 4,8 km/h (1 Bft) 100,00 %
27.03.2017 07:44 -0,2 C 85 % 1026,1 hPa 0,0 l/m 2,2 km/h (1 Bft) O-NO 61 2 min 0,000 mm 0,0 UV-I 112 W/m -2,4 C -0,2 C 4,8 km/h (1 Bft) 100,00 %
27.03.2017 07:46 -0,2 C 85 % 1026,0 hPa 0,0 l/m 3,3 km/h (1 Bft) O-NO 61 2 min 0,000 mm 0,0 UV-I 117 W/m -2,4 C -0,2 C 6,4 km/h (2 Bft) 97,56 %
27.03.2017 07:48 0,0 C 84 % 1026,1 hPa 0,0 l/m 4,6 km/h (1 Bft) O-NO 59 2 min 0,000 mm 0,0 UV-I 122 W/m -2,4 C 0,0 C 8,0 km/h (2 Bft) 100,00 %
27.03.2017 07:50 0,2 C 83 % 1026,1 hPa 0,0 l/m 4,6 km/h (1 Bft) NO 51 2 min 0,000 mm 0,0 UV-I 127 W/m -2,3 C 0,2 C 6,4 km/h (2 Bft) 100,00 %
27.03.2017 07:52 0,4 C 83 % 1026,1 hPa 0,0 l/m 3,7 km/h (1 Bft) O-NO 66 2 min 0,000 mm 0,0 UV-I 133 W/m -2,1 C 0,4 C 6,4 km/h (2 Bft) 98,00 %
27.03.2017 07:54 0,4 C 82 % 1026,1 hPa 0,0 l/m 5,0 km/h (1 Bft) O-NO 59 2 min 0,000 mm 0,0 UV-I 138 W/m -2,3 C 0,4 C 8,0 km/h (2 Bft) 98,00 %
27.03.2017 07:56 0,6 C 82 % 1026,1 hPa 0,0 l/m 4,7 km/h (1 Bft) O-NO 59 2 min 0,000 mm 0,0 UV-I 143 W/m -2,1 C 0,6 C 6,4 km/h (2 Bft) 97,73 %
27.03.2017 07:58 0,7 C 81 % 1026,1 hPa 0,0 l/m 3,4 km/h (1 Bft) O-NO 59 2 min 0,000 mm 0,0 UV-I 148 W/m -2,2 C 0,7 C 4,8 km/h (1 Bft) 96,00 %
27.03.2017 08:00 0,7 C 81 % 1026,2 hPa 0,0 l/m 1,7 km/h (1 Bft) O-NO 59 2 min 0,000 mm 0,0 UV-I 154 W/m -2,2 C 0,7 C 3,2 km/h (1 Bft) 97,56 %
27.03.2017 08:02 0,7 C 82 % 1026,2 hPa 0,0 l/m 2,8 km/h (1 Bft) O-NO 59 2 min 0,025 mm 0,0 UV-I 159 W/m -2,0 C 0,7 C 4,8 km/h (1 Bft) 97,62 %
27.03.2017 08:04 0,8 C 82 % 1026,2 hPa 0,0 l/m 4,6 km/h (1 Bft) NO 56 2 min 0,000 mm 0,0 UV-I 165 W/m -1,9 C 0,8 C 6,4 km/h (2 Bft) 100,00 %
27.03.2017 08:06 0,9 C 81 % 1026,2 hPa 0,0 l/m 4,0 km/h (1 Bft) O-NO 61 2 min 0,000 mm 0,0 UV-I 172 W/m -2,0 C 0,9 C 6,4 km/h (2 Bft) 97,01 %
27.03.2017 08:08 0,9 C 80 % 1026,1 hPa 0,0 l/m 4,0 km/h (1 Bft) O-NO 68 2 min 0,000 mm 0,0 UV-I 177 W/m -2,2 C 0,9 C 6,4 km/h (2 Bft) 92,86 %
27.03.2017 08:10 1,1 C 80 % 1026,2 hPa 0,0 l/m 4,3 km/h (1 Bft) NO 50 2 min 0,000 mm 0,0 UV-I 182 W/m -2,0 C 1,1 C 6,4 km/h (2 Bft) 95,12 %
27.03.2017 08:12 1,1 C 80 % 1026,1 hPa 0,0 l/m 4,6 km/h (1 Bft) O-NO 61 2 min 0,000 mm 0,0 UV-I 188 W/m -2,0 C 1,1 C 6,4 km/h (2 Bft) 96,00 %
27.03.2017 08:14 1,2 C 80 % 1026,1 hPa 0,0 l/m 4,4 km/h (1 Bft) O-NO 60 2 min 0,000 mm 0,0 UV-I 194 W/m -1,9 C 1,2 C 6,4 km/h (2 Bft) 96,00 %
27.03.2017 08:16 1,2 C 80 % 1026,1 hPa 0,0 l/m 4,1 km/h (1 Bft) O-NO 61 2 min 0,000 mm 0,0 UV-I 200 W/m -1,9 C 1,2 C 6,4 km/h (2 Bft) 95,74 %
27.03.2017 08:18 1,3 C 80 % 1026,0 hPa 0,0 l/m 4,2 km/h (1 Bft) O-NO 66 2 min 0,000 mm 0,0 UV-I 206 W/m -1,8 C 1,3 C 6,4 km/h (2 Bft) 94,00 %
27.03.2017 08:20 1,4 C 80 % 1026,0 hPa 0,0 l/m 3,9 km/h (1 Bft) O-NO 66 2 min 0,000 mm 0,0 UV-I 212 W/m -1,7 C 1,4 C 6,4 km/h (2 Bft) 92,68 %
27.03.2017 08:22 1,4 C 79 % 1026,1 hPa 0,0 l/m 5,1 km/h (1 Bft) O-NO 71 2 min 0,000 mm 0,0 UV-I 218 W/m -1,8 C 1,4 C 8,0 km/h (2 Bft) 90,00 %
27.03.2017 08:24 1,5 C 79 % 1026,1 hPa 0,0 l/m 5,2 km/h (1 Bft) NO 51 2 min 0,000 mm 0,0 UV-I 224 W/m -1,7 C 1,5 C 8,0 km/h (2 Bft) 97,37 %
27.03.2017 08:26 1,5 C 80 % 1026,1 hPa 0,0 l/m 5,7 km/h (1 Bft) NO 53 2 min 0,000 mm 0,0 UV-I 230 W/m -1,6 C 1,5 C 8,0 km/h (2 Bft) 94,00 %
27.03.2017 08:28 1,6 C 80 % 1026,0 hPa 0,0 l/m 5,4 km/h (1 Bft) O-NO 59 2 min 0,000 mm 0,0 UV-I 237 W/m -1,5 C 1,6 C 8,0 km/h (2 Bft) 96,00 %
27.03.2017 08:30 1,6 C 79 % 1026,0 hPa 0,0 l/m 4,4 km/h (1 Bft) O-NO 64 2 min 0,000 mm 0,0 UV-I 243 W/m -1,6 C 1,6 C 6,4 km/h (2 Bft) 92,45 %
27.03.2017 08:32 1,7 C 79 % 1026,0 hPa 0,0 l/m 4,6 km/h (1 Bft) O-NO 61 2 min 0,000 mm 0,0 UV-I 249 W/m -1,5 C 1,7 C 6,4 km/h (2 Bft) 94,29 %
27.03.2017 08:34 1,8 C 78 % 1026,0 hPa 0,0 l/m 5,2 km/h (1 Bft) O-NO 57 2 min 0,000 mm 0,0 UV-I 256 W/m -1,6 C 1,8 C 9,7 km/h (2 Bft) 89,83 %
27.03.2017 08:36 1,9 C 77 % 1026,1 hPa 0,0 l/m 6,0 km/h (2 Bft) O-NO 59 2 min 0,000 mm 0,0 UV-I 261 W/m -1,7 C 1,9 C 9,7 km/h (2 Bft) 93,62 %
27.03.2017 08:38 2,0 C 77 % 1026,1 hPa 0,0 l/m 6,3 km/h (2 Bft) O-NO 64 2 min 0,000 mm 0,0 UV-I 267 W/m -1,6 C 2,0 C 8,0 km/h (2 Bft) 92,68 %
27.03.2017 08:40 2,1 C 77 % 1026,1 hPa 0,0 l/m 7,1 km/h (2 Bft) NO 49 2 min 0,000 mm 0,0 UV-I 274 W/m -1,5 C 1,4 C 11,3 km/h (2 Bft) 94,00 %
27.03.2017 08:42 2,1 C 76 % 1026,1 hPa 0,0 l/m 7,5 km/h (2 Bft) O-NO 59 2 min 0,000 mm 0,0 UV-I 279 W/m -1,7 C 1,0 C 12,9 km/h (3 Bft) 92,00 %
27.03.2017 08:44 2,1 C 76 % 1026,1 hPa 0,0 l/m 7,7 km/h (2 Bft) O-NO 57 2 min 0,000 mm 0,0 UV-I 285 W/m -1,7 C 0,8 C 9,7 km/h (2 Bft) 94,87 %
27.03.2017 08:46 2,1 C 76 % 1026,1 hPa 0,0 l/m 7,2 km/h (2 Bft) O-NO 57 2 min 0,000 mm 0,0 UV-I 292 W/m -1,7 C 1,3 C 11,3 km/h (2 Bft) 92,00 %
27.03.2017 08:48 2,2 C 76 % 1026,0 hPa 0,0 l/m 6,5 km/h (2 Bft) O-NO 64 2 min 0,000 mm 0,1 UV-I 298 W/m -1,6 C 2,1 C 9,7 km/h (2 Bft) 95,45 %
27.03.2017 08:50 2,3 C 76 % 1026,0 hPa 0,0 l/m 6,5 km/h (2 Bft) O-NO 70 2 min 0,000 mm 0,5 UV-I 304 W/m -1,5 C 2,2 C 8,0 km/h (2 Bft) 94,00 %
27.03.2017 08:52 2,4 C 76 % 1026,0 hPa 0,0 l/m 4,5 km/h (1 Bft) NO 50 2 min 0,000 mm 0,5 UV-I 309 W/m -1,4 C 2,4 C 6,4 km/h (2 Bft) 92,11 %
27.03.2017 08:54 2,5 C 77 % 1026,1 hPa 0,0 l/m 5,2 km/h (1 Bft) O-NO 69 2 min 0,000 mm 0,5 UV-I 315 W/m -1,1 C 2,5 C 8,0 km/h (2 Bft) 92,00 %
27.03.2017 08:56 2,6 C 77 % 1026,1 hPa 0,0 l/m 6,6 km/h (2 Bft) O-NO 67 2 min 0,000 mm 0,5 UV-I 321 W/m -1,0 C 2,4 C 8,0 km/h (2 Bft) 94,64 %
27.03.2017 08:58 2,6 C 76 % 1026,1 hPa 0,0 l/m 7,1 km/h (2 Bft) NO 50 2 min 0,000 mm 0,5 UV-I 327 W/m -1,2 C 1,9 C 12,9 km/h (3 Bft) 94,74 %
27.03.2017 09:00 2,7 C 76 % 1026,1 hPa 0,0 l/m 6,8 km/h (2 Bft) NO 46 2 min 0,102 mm 0,6 UV-I 332 W/m -1,1 C 2,3 C 9,7 km/h (2 Bft) 100,00 %
27.03.2017 09:02 2,7 C 76 % 1026,0 hPa 0,0 l/m 6,5 km/h (2 Bft) NO 47 2 min 0,000 mm 0,6 UV-I 338 W/m -1,1 C 2,6 C 9,7 km/h (2 Bft) 98,00 %
27.03.2017 09:04 2,9 C 77 % 1026,1 hPa 0,0 l/m 6,2 km/h (2 Bft) NO 41 2 min 0,000 mm 0,6 UV-I 345 W/m -0,7 C 2,9 C 8,0 km/h (2 Bft) 97,56 %
27.03.2017 09:06 2,9 C 75 % 1026,1 hPa 0,0 l/m 5,9 km/h (2 Bft) O-NO 58 2 min 0,000 mm 0,6 UV-I 350 W/m -1,1 C 2,9 C 8,0 km/h (2 Bft) 97,37 %
27.03.2017 09:08 3,0 C 75 % 1026,1 hPa 0,0 l/m 6,4 km/h (2 Bft) O-NO 69 2 min 0,000 mm 0,6 UV-I 356 W/m -1,0 C 3,0 C 9,7 km/h (2 Bft) 100,00 %
27.03.2017 09:10 3,1 C 75 % 1026,1 hPa 0,0 l/m 7,9 km/h (2 Bft) NO 51 2 min 0,000 mm 0,7 UV-I 362 W/m -0,9 C 1,7 C 14,5 km/h (3 Bft) 98,00 %
27.03.2017 09:12 3,2 C 74 % 1026,2 hPa 0,0 l/m 9,0 km/h (2 Bft) N-NO 22 2 min 0,000 mm 0,7 UV-I 367 W/m -1,0 C 0,9 C 12,9 km/h (3 Bft) 97,62 %
27.03.2017 09:14 3,3 C 74 % 1026,2 hPa 0,0 l/m 9,4 km/h (2 Bft) N-NO 22 2 min 0,000 mm 0,7 UV-I 373 W/m -0,9 C 0,7 C 14,5 km/h (3 Bft) 100,00 %
27.03.2017 09:16 3,3 C 74 % 1026,2 hPa 0,0 l/m 11,5 km/h (2 Bft) O-NO 65 2 min 0,000 mm 0,7 UV-I 379 W/m -0,9 C -0,9 C 17,7 km/h (3 Bft) 100,00 %
27.03.2017 09:18 3,4 C 74 % 1026,2 hPa 0,0 l/m 10,3 km/h (2 Bft) NO 46 2 min 0,000 mm 0,7 UV-I 384 W/m -0,8 C 0,1 C 16,1 km/h (3 Bft) 97,56 %
27.03.2017 09:20 3,6 C 73 % 1026,2 hPa 0,0 l/m 11,9 km/h (2 Bft) O-NO 66 2 min 0,000 mm 0,8 UV-I 390 W/m -0,8 C -0,8 C 16,1 km/h (3 Bft) 96,00 %
27.03.2017 09:22 3,6 C 72 % 1026,2 hPa 0,0 l/m 11,4 km/h (2 Bft) O-NO 68 2 min 0,000 mm 0,8 UV-I 396 W/m -1,0 C -0,5 C 16,1 km/h (3 Bft) 97,50 %
27.03.2017 09:24 3,6 C 73 % 1026,2 hPa 0,0 l/m 10,6 km/h (2 Bft) O-NO 65 2 min 0,000 mm 0,8 UV-I 401 W/m -0,8 C 0,1 C 14,5 km/h (3 Bft) 94,34 %
27.03.2017 09:26 3,7 C 73 % 1026,2 hPa 0,0 l/m 8,6 km/h (2 Bft) NO 44 2 min 0,000 mm 0,8 UV-I 406 W/m -0,7 C 1,7 C 11,3 km/h (2 Bft) 97,87 %
27.03.2017 09:28 3,8 C 74 % 1026,2 hPa 0,0 l/m 9,1 km/h (2 Bft) O-NO 74 2 min 0,000 mm 0,8 UV-I 412 W/m -0,4 C 1,4 C 14,5 km/h (3 Bft) 98,00 %
27.03.2017 09:30 3,9 C 73 % 1026,2 hPa 0,0 l/m 10,6 km/h (2 Bft) O 80 2 min 0,000 mm 0,9 UV-I 417 W/m -0,5 C 0,4 C 16,1 km/h (3 Bft) 95,74 %
27.03.2017 09:32 3,9 C 73 % 1026,2 hPa 0,0 l/m 7,8 km/h (2 Bft) O-NO 60 2 min 0,000 mm 0,9 UV-I 423 W/m -0,5 C 2,6 C 12,9 km/h (3 Bft) 100,00 %
27.03.2017 09:34 4,1 C 74 % 1026,2 hPa 0,0 l/m 8,2 km/h (2 Bft) O-NO 59 2 min 0,000 mm 0,9 UV-I 428 W/m -0,1 C 2,5 C 14,5 km/h (3 Bft) 96,00 %
27.03.2017 09:36 4,3 C 73 % 1026,2 hPa 0,0 l/m 8,0 km/h (2 Bft) O-NO 76 2 min 0,000 mm 0,9 UV-I 433 W/m -0,1 C 2,9 C 12,9 km/h (3 Bft) 100,00 %
27.03.2017 09:38 4,3 C 72 % 1026,2 hPa 0,0 l/m 11,3 km/h (2 Bft) O-NO 72 2 min 0,000 mm 1,0 UV-I 439 W/m -0,3 C 0,4 C 16,1 km/h (3 Bft) 97,87 %
27.03.2017 09:40 4,4 C 71 % 1026,2 hPa 0,0 l/m 13,9 km/h (3 Bft) O-NO 78 2 min 0,000 mm 1,0 UV-I 444 W/m -0,4 C -1,1 C 17,7 km/h (3 Bft) 100,00 %
27.03.2017 09:42 4,6 C 72 % 1026,2 hPa 0,0 l/m 12,0 km/h (2 Bft) O-NO 64 2 min 0,000 mm 1,0 UV-I 449 W/m -0,0 C 0,3 C 19,3 km/h (3 Bft) 96,00 %
27.03.2017 09:44 4,7 C 71 % 1026,1 hPa 0,0 l/m 12,6 km/h (3 Bft) O-NO 63 2 min 0,000 mm 1,0 UV-I 456 W/m -0,1 C 0,0 C 19,3 km/h (3 Bft) 98,00 %
27.03.2017 09:46 4,8 C 70 % 1026,1 hPa 0,0 l/m 16,2 km/h (3 Bft) O-NO 68 2 min 0,000 mm 1,1 UV-I 461 W/m -0,2 C -1,8 C 20,9 km/h (4 Bft) 97,73 %
27.03.2017 09:48 5,0 C 70 % 1026,2 hPa 0,0 l/m 14,2 km/h (3 Bft) NO 53 2 min 0,000 mm 1,1 UV-I 467 W/m -0,0 C -0,5 C 20,9 km/h (4 Bft) 98,11 %
27.03.2017 09:50 5,1 C 69 % 1026,2 hPa 0,0 l/m 17,7 km/h (3 Bft) NO 49 2 min 0,000 mm 1,1 UV-I 471 W/m -0,1 C -2,1 C 29,0 km/h (5 Bft) 97,56 %
27.03.2017 09:52 5,2 C 69 % 1026,2 hPa 0,0 l/m 17,4 km/h (3 Bft) O-NO 74 2 min 0,000 mm 1,1 UV-I 477 W/m -0,0 C -1,8 C 25,7 km/h (4 Bft) 97,73 %
27.03.2017 09:54 5,3 C 68 % 1026,2 hPa 0,0 l/m 22,0 km/h (4 Bft) NO 44 2 min 0,000 mm 1,2 UV-I 482 W/m -0,1 C -3,5 C 30,6 km/h (5 Bft) 100,00 %
27.03.2017 09:56 5,4 C 68 % 1026,1 hPa 0,0 l/m 18,3 km/h (3 Bft) O-NO 74 2 min 0,000 mm 1,2 UV-I 485 W/m -0,0 C -2,0 C 25,7 km/h (4 Bft) 97,73 %
27.03.2017 09:58 5,6 C 67 % 1026,2 hPa 0,0 l/m 20,9 km/h (4 Bft) O-NO 60 2 min 0,000 mm 1,2 UV-I 492 W/m -0,0 C -2,7 C 29,0 km/h (5 Bft) 98,00 %
27.03.2017 10:00 5,6 C 68 % 1026,2 hPa 0,0 l/m 20,8 km/h (4 Bft) O-NO 65 2 min 0,178 mm 1,2 UV-I 496 W/m 0,2 C -2,7 C 27,4 km/h (4 Bft) 100,00 %
27.03.2017 10:02 5,7 C 68 % 1026,1 hPa 0,0 l/m 17,9 km/h (3 Bft) O-NO 74 2 min 0,000 mm 1,3 UV-I 502 W/m 0,3 C -1,4 C 24,1 km/h (4 Bft) 96,15 %
27.03.2017 10:04 5,8 C 67 % 1026,1 hPa 0,0 l/m 19,1 km/h (3 Bft) O-NO 61 2 min 0,000 mm 1,3 UV-I 506 W/m 0,2 C -1,8 C 22,5 km/h (4 Bft) 97,44 %
27.03.2017 10:06 5,8 C 67 % 1026,2 hPa 0,0 l/m 19,9 km/h (4 Bft) NO 49 2 min 0,000 mm 1,3 UV-I 512 W/m 0,2 C -2,1 C 24,1 km/h (4 Bft) 98,21 %
27.03.2017 10:08 5,9 C 66 % 1026,1 hPa 0,0 l/m 19,5 km/h (3 Bft) O-NO 76 2 min 0,000 mm 1,3 UV-I 516 W/m 0,0 C -1,8 C 25,7 km/h (4 Bft) 98,00 %
27.03.2017 10:10 5,9 C 65 % 1026,1 hPa 0,0 l/m 20,8 km/h (4 Bft) O-NO 59 2 min 0,000 mm 1,4 UV-I 521 W/m -0,2 C -2,3 C 27,4 km/h (4 Bft) 100,00 %
27.03.2017 10:12 5,9 C 66 % 1026,1 hPa 0,0 l/m 23,4 km/h (4 Bft) O-NO 69 2 min 0,000 mm 1,4 UV-I 526 W/m 0,0 C -3,2 C 27,4 km/h (4 Bft) 100,00 %
27.03.2017 10:14 6,1 C 67 % 1026,1 hPa 0,0 l/m 19,1 km/h (3 Bft) NO 46 2 min 0,000 mm 1,4 UV-I 532 W/m 0,4 C -1,4 C 24,1 km/h (4 Bft) 96,15 %
27.03.2017 10:16 6,3 C 67 % 1026,1 hPa 0,0 l/m 21,1 km/h (4 Bft) O 79 2 min 0,000 mm 1,4 UV-I 536 W/m 0,6 C -1,9 C 27,4 km/h (4 Bft) 95,95 %
27.03.2017 10:18 6,3 C 65 % 1026,0 hPa 0,0 l/m 18,4 km/h (3 Bft) NO 51 2 min 0,000 mm 1,5 UV-I 540 W/m 0,2 C -0,9 C 24,1 km/h (4 Bft) 100,00 %
27.03.2017 10:20 6,4 C 65 % 1026,1 hPa 0,0 l/m 15,0 km/h (3 Bft) O-NO 61 2 min 0,000 mm 1,5 UV-I 546 W/m 0,3 C 0,8 C 22,5 km/h (4 Bft) 93,18 %
27.03.2017 10:22 6,6 C 64 % 1026,0 hPa 0,0 l/m 19,8 km/h (3 Bft) NO 43 2 min 0,000 mm 1,5 UV-I 550 W/m 0,3 C -1,0 C 25,7 km/h (4 Bft) 96,43 %
27.03.2017 10:24 6,6 C 62 % 1026,1 hPa 0,0 l/m 21,6 km/h (4 Bft) NO 51 2 min 0,000 mm 1,5 UV-I 554 W/m -0,1 C -1,7 C 29,0 km/h (5 Bft) 94,74 %
27.03.2017 10:26 6,6 C 62 % 1026,0 hPa 0,0 l/m 22,2 km/h (4 Bft) O-NO 59 2 min 0,000 mm 1,6 UV-I 557 W/m -0,1 C -1,9 C 27,4 km/h (4 Bft) 96,23 %
27.03.2017 10:28 6,6 C 62 % 1026,1 hPa 0,0 l/m 22,0 km/h (4 Bft) O-NO 58 2 min 0,000 mm 1,6 UV-I 562 W/m -0,1 C -1,8 C 29,0 km/h (5 Bft) 97,87 %
27.03.2017 10:30 6,6 C 63 % 1026,0 hPa 0,0 l/m 17,4 km/h (3 Bft) O-NO 57 2 min 0,000 mm 1,6 UV-I 566 W/m 0,1 C -0,1 C 25,7 km/h (4 Bft) 97,56 %
27.03.2017 10:32 6,6 C 62 % 1026,0 hPa 0,0 l/m 19,1 km/h (3 Bft) NO 46 2 min 0,000 mm 1,7 UV-I 571 W/m -0,1 C -0,8 C 25,7 km/h (4 Bft) 98,21 %
27.03.2017 10:34 6,7 C 62 % 1026,0 hPa 0,0 l/m 23,5 km/h (4 Bft) O 92 2 min 0,000 mm 1,7 UV-I 576 W/m -0,1 C -2,2 C 33,8 km/h (5 Bft) 97,56 %
27.03.2017 10:36 6,7 C 60 % 1026,0 hPa 0,0 l/m 22,6 km/h (4 Bft) O-NO 75 2 min 0,000 mm 1,7 UV-I 581 W/m -0,5 C -1,9 C 27,4 km/h (4 Bft) 92,45 %
27.03.2017 10:38 6,8 C 59 % 1026,1 hPa 0,0 l/m 21,7 km/h (4 Bft) O-NO 64 2 min 0,000 mm 1,7 UV-I 585 W/m -0,6 C -1,5 C 30,6 km/h (5 Bft) 92,11 %
27.03.2017 10:40 6,9 C 61 % 1026,0 hPa 0,0 l/m 18,1 km/h (3 Bft) NO 49 2 min 0,000 mm 1,8 UV-I 588 W/m -0,1 C 0,0 C 24,1 km/h (4 Bft) 98,11 %
27.03.2017 10:42 7,0 C 62 % 1026,0 hPa 0,0 l/m 18,3 km/h (3 Bft) O-NO 78 2 min 0,000 mm 1,8 UV-I 593 W/m 0,2 C 0,1 C 24,1 km/h (4 Bft) 94,87 %
27.03.2017 10:45 7,2 C 62 % 1026,1 hPa 0,0 l/m 18,2 km/h (3 Bft) NO 55 3 min 0,000 mm 1,8 UV-I 598 W/m 0,4 C 0,4 C 25,7 km/h (4 Bft) 98,63 %
27.03.2017 10:46 7,2 C 60 % 1026,1 hPa 0,0 l/m 15,0 km/h (3 Bft) O-NO 74 1 min 0,000 mm 1,9 UV-I 601 W/m -0,0 C 1,7 C 22,5 km/h (4 Bft) 100,00 %
27.03.2017 10:48 7,3 C 61 % 1026,1 hPa 0,0 l/m 20,5 km/h (4 Bft) O-NO 66 2 min 0,000 mm 1,9 UV-I 605 W/m 0,3 C -0,4 C 25,7 km/h (4 Bft) 98,11 %
27.03.2017 10:50 7,4 C 59 % 1026,1 hPa 0,0 l/m 21,2 km/h (4 Bft) NO 42 2 min 0,000 mm 1,9 UV-I 610 W/m -0,1 C -0,5 C 27,4 km/h (4 Bft) 97,56 %
27.03.2017 10:52 7,4 C 61 % 1026,1 hPa 0,0 l/m 19,0 km/h (3 Bft) O-NO 77 2 min 0,000 mm 1,9 UV-I 613 W/m 0,4 C 0,3 C 25,7 km/h (4 Bft) 100,00 %
27.03.2017 10:54 7,5 C 61 % 1026,1 hPa 0,0 l/m 17,3 km/h (3 Bft) O-NO 67 2 min 0,000 mm 2,0 UV-I 616 W/m 0,5 C 1,1 C 24,1 km/h (4 Bft) 96,00 %
27.03.2017 10:56 7,6 C 62 % 1026,0 hPa 0,0 l/m 14,7 km/h (3 Bft) NO 51 2 min 0,000 mm 2,0 UV-I 621 W/m 0,8 C 2,4 C 24,1 km/h (4 Bft) 93,62 %
27.03.2017 10:58 7,7 C 59 % 1026,0 hPa 0,0 l/m 21,8 km/h (4 Bft) O-NO 71 2 min 0,000 mm 2,0 UV-I 624 W/m 0,2 C -0,3 C 27,4 km/h (4 Bft) 100,00 %
27.03.2017 11:00 7,7 C 59 % 1026,0 hPa 0,0 l/m 18,4 km/h (3 Bft) NO 46 2 min 0,304 mm 2,0 UV-I 626 W/m 0,2 C 0,9 C 25,7 km/h (4 Bft) 100,00 %
27.03.2017 11:02 7,8 C 62 % 1026,0 hPa 0,0 l/m 18,0 km/h (3 Bft) N-NO 31 2 min 0,000 mm 2,1 UV-I 632 W/m 1,0 C 1,2 C 24,1 km/h (4 Bft) 97,37 %
27.03.2017 11:04 8,1 C 62 % 1026,0 hPa 0,0 l/m 19,7 km/h (3 Bft) NO 51 2 min 0,000 mm 2,1 UV-I 634 W/m 1,3 C 0,9 C 29,0 km/h (5 Bft) 100,00 %
27.03.2017 11:06 8,1 C 59 % 1026,1 hPa 0,0 l/m 18,9 km/h (3 Bft) O-NO 57 2 min 0,000 mm 2,1 UV-I 636 W/m 0,6 C 1,2 C 22,5 km/h (4 Bft) 98,82 %
27.03.2017 11:08 8,1 C 58 % 1026,1 hPa 0,0 l/m 18,0 km/h (3 Bft) O 84 2 min 0,000 mm 2,2 UV-I 643 W/m 0,3 C 1,6 C 24,1 km/h (4 Bft) 97,56 %
27.03.2017 11:10 8,1 C 57 % 1026,0 hPa 0,0 l/m 18,1 km/h (3 Bft) NO 55 2 min 0,000 mm 2,2 UV-I 646 W/m 0,1 C 1,5 C 24,1 km/h (4 Bft) 100,00 %
27.03.2017 11:12 8,2 C 55 % 1026,0 hPa 0,0 l/m 18,8 km/h (3 Bft) O-NO 68 2 min 0,000 mm 2,2 UV-I 648 W/m -0,3 C 1,4 C 25,7 km/h (4 Bft) 95,74 %
27.03.2017 11:14 8,2 C 54 % 1026,1 hPa 0,0 l/m 21,6 km/h (4 Bft) NO 51 2 min 0,000 mm 2,2 UV-I 653 W/m -0,5 C 0,4 C 29,0 km/h (5 Bft) 98,11 %
27.03.2017 11:16 8,2 C 57 % 1026,1 hPa 0,0 l/m 15,7 km/h (3 Bft) NO 45 2 min 0,000 mm 2,2 UV-I 656 W/m 0,2 C 2,6 C 22,5 km/h (4 Bft) 100,00 %
27.03.2017 11:18 8,6 C 60 % 1026,0 hPa 0,0 l/m 18,8 km/h (3 Bft) NO 55 2 min 0,000 mm 2,3 UV-I 657 W/m 1,3 C 1,9 C 24,1 km/h (4 Bft) 97,73 %
27.03.2017 11:20 8,7 C 55 % 1026,0 hPa 0,0 l/m 18,7 km/h (3 Bft) NO 34 2 min 0,000 mm 2,3 UV-I 661 W/m 0,2 C 2,1 C 24,1 km/h (4 Bft) 100,00 %
27.03.2017 11:22 8,8 C 55 % 1026,0 hPa 0,0 l/m 18,1 km/h (3 Bft) NO 50 2 min 0,000 mm 2,3 UV-I 663 W/m 0,3 C 2,4 C 24,1 km/h (4 Bft) 100,00 %
27.03.2017 11:24 8,9 C 59 % 1026,0 hPa 0,0 l/m 17,2 km/h (3 Bft) O-NO 59 2 min 0,000 mm 2,3 UV-I 668 W/m 1,3 C 2,9 C 24,1 km/h (4 Bft) 96,00 %
27.03.2017 11:26 8,9 C 52 % 1026,1 hPa 0,0 l/m 20,0 km/h (4 Bft) O-NO 63 2 min 0,000 mm 2,4 UV-I 670 W/m -0,4 C 1,9 C 29,0 km/h (5 Bft) 98,00 %
27.03.2017 11:28 8,8 C 52 % 1025,9 hPa 0,0 l/m 20,7 km/h (4 Bft) NO 56 2 min 0,000 mm 2,4 UV-I 673 W/m -0,5 C 1,5 C 29,0 km/h (5 Bft) 97,56 %
27.03.2017 11:30 8,8 C 52 % 1025,9 hPa 0,0 l/m 20,2 km/h (4 Bft) NO 52 2 min 0,000 mm 2,4 UV-I 675 W/m -0,5 C 1,7 C 25,7 km/h (4 Bft) 97,73 %
27.03.2017 11:32 8,9 C 53 % 1025,9 hPa 0,0 l/m 20,2 km/h (4 Bft) O-NO 59 2 min 0,000 mm 2,4 UV-I 679 W/m -0,1 C 1,8 C 25,7 km/h (4 Bft) 94,64 %
27.03.2017 11:34 8,9 C 53 % 1025,9 hPa 0,0 l/m 17,5 km/h (3 Bft) O-NO 59 2 min 0,000 mm 2,5 UV-I 680 W/m -0,1 C 2,8 C 22,5 km/h (4 Bft) 92,31 %
27.03.2017 11:36 9,1 C 54 % 1025,9 hPa 0,0 l/m 15,3 km/h (3 Bft) O-NO 64 2 min 0,000 mm 2,5 UV-I 682 W/m 0,3 C 3,9 C 24,1 km/h (4 Bft) 100,00 %
27.03.2017 11:38 9,2 C 53 % 1025,8 hPa 0,0 l/m 16,9 km/h (3 Bft) NO 54 2 min 0,000 mm 2,5 UV-I 686 W/m 0,1 C 3,4 C 24,1 km/h (4 Bft) 96,43 %
27.03.2017 11:40 9,3 C 52 % 1025,8 hPa 0,0 l/m 16,5 km/h (3 Bft) NO 55 2 min 0,000 mm 2,5 UV-I 688 W/m -0,0 C 3,7 C 25,7 km/h (4 Bft) 97,37 %
27.03.2017 11:42 9,3 C 52 % 1025,8 hPa 0,0 l/m 15,3 km/h (3 Bft) NO 49 2 min 0,000 mm 2,5 UV-I 691 W/m -0,0 C 4,2 C 24,1 km/h (4 Bft) 96,43 %
27.03.2017 11:44 9,5 C 52 % 1025,9 hPa 0,0 l/m 17,5 km/h (3 Bft) O-NO 67 2 min 0,000 mm 2,6 UV-I 693 W/m 0,1 C 3,5 C 25,7 km/h (4 Bft) 97,56 %
27.03.2017 11:46 9,6 C 53 % 1025,8 hPa 0,0 l/m 17,3 km/h (3 Bft) N 9 2 min 0,000 mm 2,6 UV-I 695 W/m 0,5 C 3,7 C 20,9 km/h (4 Bft) 100,00 %
27.03.2017 11:48 9,8 C 52 % 1025,8 hPa 0,0 l/m 19,4 km/h (3 Bft) O-NO 73 2 min 0,000 mm 2,6 UV-I 698 W/m 0,4 C 3,2 C 27,4 km/h (4 Bft) 97,56 %
27.03.2017 11:50 9,8 C 51 % 1025,8 hPa 0,0 l/m 15,2 km/h (3 Bft) O-NO 62 2 min 0,000 mm 2,6 UV-I 701 W/m 0,2 C 4,8 C 24,1 km/h (4 Bft) 96,43 %
27.03.2017 11:52 9,8 C 52 % 1025,8 hPa 0,0 l/m 17,6 km/h (3 Bft) NO 40 2 min 0,000 mm 2,7 UV-I 702 W/m 0,4 C 3,9 C 25,7 km/h (4 Bft) 94,34 %
27.03.2017 11:54 9,8 C 49 % 1025,9 hPa 0,0 l/m 16,9 km/h (3 Bft) O-NO 61 2 min 0,000 mm 2,7 UV-I 706 W/m -0,4 C 4,1 C 24,1 km/h (4 Bft) 97,37 %
27.03.2017 11:56 9,8 C 48 % 1025,8 hPa 0,0 l/m 17,4 km/h (3 Bft) NO 42 2 min 0,000 mm 2,7 UV-I 708 W/m -0,7 C 3,9 C 22,5 km/h (4 Bft) 97,87 %
27.03.2017 11:58 9,8 C 50 % 1025,8 hPa 0,0 l/m 17,2 km/h (3 Bft) N-NO 32 2 min 0,000 mm 2,7 UV-I 710 W/m -0,1 C 4,0 C 29,0 km/h (5 Bft) 95,24 %
27.03.2017 12:00 9,9 C 48 % 1025,8 hPa 0,0 l/m 16,0 km/h (3 Bft) NO 48 2 min 0,381 mm 2,8 UV-I 714 W/m -0,6 C 4,6 C 22,5 km/h (4 Bft) 94,44 %
27.03.2017 12:02 9,9 C 48 % 1025,8 hPa 0,0 l/m 15,4 km/h (3 Bft) O-NO 59 2 min 0,000 mm 2,8 UV-I 715 W/m -0,6 C 4,8 C 22,5 km/h (4 Bft) 94,23 %
27.03.2017 12:04 9,9 C 48 % 1025,8 hPa 0,0 l/m 14,9 km/h (3 Bft) O-NO 57 2 min 0,000 mm 2,8 UV-I 715 W/m -0,6 C 5,1 C 17,7 km/h (3 Bft) 90,00 %
27.03.2017 12:06 10,2 C 52 % 1025,7 hPa 0,0 l/m 15,2 km/h (3 Bft) N-NO 24 2 min 0,000 mm 2,8 UV-I 716 W/m 0,8 C 5,3 C 25,7 km/h (4 Bft) 94,34 %
27.03.2017 12:08 10,2 C 48 % 1025,7 hPa 0,0 l/m 13,3 km/h (3 Bft) NO 44 2 min 0,000 mm 2,8 UV-I 718 W/m -0,3 C 6,1 C 19,3 km/h (3 Bft) 98,21 %
27.03.2017 12:10 10,4 C 51 % 1025,7 hPa 0,0 l/m 17,4 km/h (3 Bft) NO 44 2 min 0,000 mm 2,8 UV-I 721 W/m 0,7 C 4,7 C 20,9 km/h (4 Bft) 97,87 %
27.03.2017 12:12 10,4 C 46 % 1025,7 hPa 0,0 l/m 16,9 km/h (3 Bft) O-NO 57 2 min 0,000 mm 2,9 UV-I 722 W/m -0,7 C 4,9 C 22,5 km/h (4 Bft) 93,18 %
27.03.2017 12:14 10,5 C 48 % 1025,7 hPa 0,0 l/m 14,5 km/h (3 Bft) N 11 2 min 0,000 mm 2,9 UV-I 722 W/m -0,0 C 5,9 C 20,9 km/h (4 Bft) 98,00 %
27.03.2017 12:16 10,7 C 50 % 1025,6 hPa 0,0 l/m 15,3 km/h (3 Bft) N-NO 22 2 min 0,000 mm 2,9 UV-I 725 W/m 0,7 C 5,9 C 20,9 km/h (4 Bft) 94,00 %
27.03.2017 12:18 10,7 C 47 % 1025,6 hPa 0,0 l/m 17,5 km/h (3 Bft) NO 41 2 min 0,000 mm 2,9 UV-I 725 W/m -0,1 C 5,0 C 24,1 km/h (4 Bft) 100,00 %
27.03.2017 12:20 10,9 C 47 % 1025,6 hPa 0,0 l/m 16,1 km/h (3 Bft) NO 46 2 min 0,000 mm 2,9 UV-I 726 W/m 0,0 C 5,8 C 24,1 km/h (4 Bft) 98,00 %
27.03.2017 12:22 10,8 C 45 % 1025,7 hPa 0,0 l/m 16,3 km/h (3 Bft) NO 49 2 min 0,000 mm 2,9 UV-I 728 W/m -0,6 C 5,6 C 25,7 km/h (4 Bft) 98,00 %
27.03.2017 12:24 10,8 C 43 % 1025,6 hPa 0,0 l/m 19,6 km/h (3 Bft) O-NO 78 2 min 0,000 mm 2,9 UV-I 731 W/m -1,3 C 4,4 C 24,1 km/h (4 Bft) 97,87 %
27.03.2017 12:26 10,7 C 41 % 1025,6 hPa 0,0 l/m 17,5 km/h (3 Bft) O 86 2 min 0,000 mm 2,9 UV-I 734 W/m -2,0 C 5,0 C 24,1 km/h (4 Bft) 97,87 %
27.03.2017 12:28 10,7 C 44 % 1025,6 hPa 0,0 l/m 15,5 km/h (3 Bft) O-NO 60 2 min 0,000 mm 3,0 UV-I 736 W/m -1,0 C 5,8 C 20,9 km/h (4 Bft) 100,00 %
27.03.2017 12:30 10,8 C 43 % 1025,5 hPa 0,0 l/m 14,7 km/h (3 Bft) NO 55 2 min 0,000 mm 3,0 UV-I 737 W/m -1,3 C 6,2 C 20,9 km/h (4 Bft) 100,00 %
27.03.2017 12:32 10,9 C 43 % 1025,5 hPa 0,0 l/m 12,0 km/h (2 Bft) O-NO 65 2 min 0,000 mm 3,0 UV-I 737 W/m -1,2 C 7,6 C 17,7 km/h (3 Bft) 98,11 %
27.03.2017 12:34 11,1 C 45 % 1025,4 hPa 0,0 l/m 11,5 km/h (2 Bft) O-NO 59 2 min 0,000 mm 3,0 UV-I 739 W/m -0,4 C 8,0 C 19,3 km/h (3 Bft) 96,97 %
27.03.2017 12:36 11,2 C 41 % 1025,5 hPa 0,0 l/m 15,9 km/h (3 Bft) O-NO 76 2 min 0,000 mm 3,0 UV-I 740 W/m -1,6 C 6,2 C 24,1 km/h (4 Bft) 98,21 %
27.03.2017 12:38 11,2 C 39 % 1025,4 hPa 0,0 l/m 17,1 km/h (3 Bft) O 90 2 min 0,000 mm 3,1 UV-I 742 W/m -2,2 C 5,8 C 24,1 km/h (4 Bft) 100,00 %
27.03.2017 12:40 11,3 C 41 % 1025,4 hPa 0,0 l/m 14,3 km/h (3 Bft) O-NO 67 2 min 0,000 mm 3,1 UV-I 742 W/m -1,5 C 7,0 C 22,5 km/h (4 Bft) 98,18 %
27.03.2017 12:42 11,4 C 43 % 1025,4 hPa 0,0 l/m 12,7 km/h (3 Bft) O-NO 61 2 min 0,000 mm 3,1 UV-I 743 W/m -0,7 C 7,8 C 16,1 km/h (3 Bft) 100,00 %
27.03.2017 12:44 11,4 C 40 % 1025,4 hPa 0,0 l/m 12,3 km/h (3 Bft) NO 55 2 min 0,000 mm 3,1 UV-I 744 W/m -1,7 C 8,0 C 19,3 km/h (3 Bft) 98,39 %
27.03.2017 12:46 11,5 C 39 % 1025,4 hPa 0,0 l/m 12,2 km/h (2 Bft) NO 36 2 min 0,000 mm 3,1 UV-I 743 W/m -2,0 C 8,1 C 17,7 km/h (3 Bft) 98,11 %
27.03.2017 12:48 11,8 C 42 % 1025,4 hPa 0,0 l/m 14,4 km/h (3 Bft) O-NO 73 2 min 0,000 mm 3,1 UV-I 745 W/m -0,7 C 7,6 C 27,4 km/h (4 Bft) 97,56 %
27.03.2017 12:50 11,8 C 38 % 1025,3 hPa 0,0 l/m 20,3 km/h (4 Bft) O-NO 73 2 min 0,000 mm 3,1 UV-I 747 W/m -2,0 C 5,5 C 27,4 km/h (4 Bft) 96,00 %
27.03.2017 12:52 11,8 C 39 % 1025,3 hPa 0,0 l/m 16,4 km/h (3 Bft) O 79 2 min 0,000 mm 3,1 UV-I 747 W/m -1,7 C 6,8 C 25,7 km/h (4 Bft) 100,00 %
27.03.2017 12:54 11,8 C 38 % 1025,3 hPa 0,0 l/m 18,1 km/h (3 Bft) NO 47 2 min 0,000 mm 3,1 UV-I 746 W/m -2,0 C 6,2 C 24,1 km/h (4 Bft) 95,74 %
27.03.2017 12:56 11,8 C 35 % 1025,3 hPa 0,0 l/m 18,7 km/h (3 Bft) O-NO 64 2 min 0,000 mm 3,1 UV-I 747 W/m -3,1 C 6,0 C 32,2 km/h (5 Bft) 98,21 %
27.03.2017 12:58 11,8 C 37 % 1025,3 hPa 0,0 l/m 21,5 km/h (4 Bft) O-NO 71 2 min 0,000 mm 3,1 UV-I 747 W/m -2,4 C 5,2 C 30,6 km/h (5 Bft) 100,00 %
27.03.2017 13:00 11,8 C 36 % 1025,3 hPa 0,0 l/m 21,0 km/h (4 Bft) O-SO 113 2 min 0,000 mm 3,1 UV-I 748 W/m -2,8 C 5,3 C 27,4 km/h (4 Bft) 97,56 %
27.03.2017 13:02 11,8 C 37 % 1025,2 hPa 0,0 l/m 19,6 km/h (3 Bft) O-NO 66 2 min 0,432 mm 3,1 UV-I 748 W/m -2,4 C 5,7 C 27,4 km/h (4 Bft) 100,00 %
27.03.2017 13:04 11,9 C 36 % 1025,2 hPa 0,0 l/m 19,1 km/h (3 Bft) NO 46 2 min 0,000 mm 3,1 UV-I 747 W/m -2,7 C 6,0 C 24,1 km/h (4 Bft) 97,87 %
27.03.2017 13:06 12,0 C 38 % 1025,2 hPa 0,0 l/m 20,8 km/h (4 Bft) O-NO 67 2 min 0,000 mm 3,1 UV-I 748 W/m -1,9 C 5,6 C 27,4 km/h (4 Bft) 96,23 %
27.03.2017 13:08 12,1 C 35 % 1025,2 hPa 0,0 l/m 16,1 km/h (3 Bft) NO 51 2 min 0,000 mm 3,1 UV-I 748 W/m -2,9 C 7,3 C 25,7 km/h (4 Bft) 100,00 %
27.03.2017 13:10 12,1 C 35 % 1025,2 hPa 0,0 l/m 20,7 km/h (4 Bft) O-NO 59 2 min 0,000 mm 3,1 UV-I 749 W/m -2,9 C 5,8 C 27,4 km/h (4 Bft) 97,73 %
27.03.2017 13:12 12,1 C 36 % 1025,1 hPa 0,0 l/m 19,0 km/h (3 Bft) O 86 2 min 0,000 mm 3,1 UV-I 750 W/m -2,5 C 6,3 C 25,7 km/h (4 Bft) 100,00 %
27.03.2017 13:14 12,3 C 36 % 1025,1 hPa 0,0 l/m 16,9 km/h (3 Bft) O-NO 74 2 min 0,000 mm 3,1 UV-I 747 W/m -2,3 C 7,2 C 22,5 km/h (4 Bft) 98,11 %
27.03.2017 13:16 12,3 C 34 % 1025,1 hPa 0,0 l/m 19,6 km/h (3 Bft) O 82 2 min 0,000 mm 3,1 UV-I 748 W/m -3,1 C 6,4 C 24,1 km/h (4 Bft) 100,00 %
27.03.2017 13:18 12,2 C 34 % 1025,1 hPa 0,0 l/m 17,3 km/h (3 Bft) O-NO 78 2 min 0,000 mm 3,1 UV-I 745 W/m -3,2 C 7,0 C 22,5 km/h (4 Bft) 100,00 %
27.03.2017 13:20 12,3 C 35 % 1025,1 hPa 0,0 l/m 18,5 km/h (3 Bft) O-NO 76 2 min 0,000 mm 3,1 UV-I 747 W/m -2,7 C 6,7 C 22,5 km/h (4 Bft) 97,87 %
27.03.2017 13:22 12,3 C 34 % 1025,1 hPa 0,0 l/m 18,3 km/h (3 Bft) O-NO 60 2 min 0,000 mm 3,1 UV-I 746 W/m -3,1 C 6,8 C 29,0 km/h (5 Bft) 100,00 %
27.03.2017 13:24 12,4 C 36 % 1025,0 hPa 0,0 l/m 10,9 km/h (2 Bft) NO 53 2 min 0,000 mm 3,1 UV-I 745 W/m -2,2 C 9,8 C 17,7 km/h (3 Bft) 97,56 %
27.03.2017 13:26 12,7 C 41 % 1025,0 hPa 0,0 l/m 12,0 km/h (2 Bft) NO 44 2 min 0,000 mm 3,1 UV-I 744 W/m -0,2 C 9,6 C 19,3 km/h (3 Bft) 96,00 %
27.03.2017 13:28 13,1 C 44 % 1025,0 hPa 0,0 l/m 15,3 km/h (3 Bft) N-NO 31 2 min 0,000 mm 3,1 UV-I 743 W/m 1,1 C 8,8 C 22,5 km/h (4 Bft) 95,74 %
27.03.2017 13:30 13,2 C 41 % 1024,9 hPa 0,0 l/m 16,1 km/h (3 Bft) NO 46 2 min 0,000 mm 3,1 UV-I 741 W/m 0,2 C 8,6 C 24,1 km/h (4 Bft) 97,56 %
27.03.2017 13:32 13,2 C 37 % 1024,9 hPa 0,0 l/m 18,4 km/h (3 Bft) NO 40 2 min 0,000 mm 3,1 UV-I 740 W/m -1,2 C 7,9 C 24,1 km/h (4 Bft) 94,34 %
27.03.2017 13:34 13,1 C 35 % 1024,9 hPa 0,0 l/m 19,8 km/h (3 Bft) NO 51 2 min 0,000 mm 3,1 UV-I 739 W/m -2,0 C 7,3 C 27,4 km/h (4 Bft) 97,73 %
27.03.2017 13:36 13,1 C 36 % 1024,9 hPa 0,0 l/m 19,2 km/h (3 Bft) NO 34 2 min 0,000 mm 3,1 UV-I 738 W/m -1,6 C 7,5 C 25,7 km/h (4 Bft) 96,23 %
27.03.2017 13:38 13,2 C 36 % 1024,9 hPa 0,0 l/m 16,6 km/h (3 Bft) O-NO 67 2 min 0,000 mm 3,1 UV-I 738 W/m -1,5 C 8,5 C 24,1 km/h (4 Bft) 97,37 %
27.03.2017 13:40 13,1 C 33 % 1024,9 hPa 0,0 l/m 16,3 km/h (3 Bft) O-NO 63 2 min 0,000 mm 3,1 UV-I 739 W/m -2,8 C 8,4 C 27,4 km/h (4 Bft) 90,00 %
27.03.2017 13:42 13,0 C 32 % 1024,9 hPa 0,0 l/m 19,2 km/h (3 Bft) O-NO 78 2 min 0,000 mm 3,1 UV-I 738 W/m -3,3 C 7,4 C 25,7 km/h (4 Bft) 96,00 %
27.03.2017 13:44 13,0 C 31 % 1024,9 hPa 0,0 l/m 18,2 km/h (3 Bft) O-NO 59 2 min 0,000 mm 3,1 UV-I 737 W/m -3,7 C 7,7 C 25,7 km/h (4 Bft) 95,45 %
27.03.2017 13:46 13,0 C 31 % 1024,8 hPa 0,0 l/m 15,2 km/h (3 Bft) O-NO 69 2 min 0,000 mm 3,0 UV-I 736 W/m -3,7 C 8,7 C 20,9 km/h (4 Bft) 96,30 %
27.03.2017 13:48 13,1 C 32 % 1024,8 hPa 0,0 l/m 17,0 km/h (3 Bft) O-NO 76 2 min 0,000 mm 3,0 UV-I 733 W/m -3,2 C 8,2 C 22,5 km/h (4 Bft) 95,89 %
27.03.2017 13:50 13,1 C 31 % 1024,8 hPa 0,0 l/m 16,1 km/h (3 Bft) O-NO 70 2 min 0,000 mm 3,0 UV-I 733 W/m -3,6 C 8,5 C 20,9 km/h (4 Bft) 97,56 %
27.03.2017 13:52 13,2 C 33 % 1024,8 hPa 0,0 l/m 18,2 km/h (3 Bft) NO 56 2 min 0,000 mm 3,0 UV-I 732 W/m -2,7 C 7,9 C 24,1 km/h (4 Bft) 96,00 %
27.03.2017 13:54 13,2 C 35 % 1024,8 hPa 0,0 l/m 13,0 km/h (3 Bft) O-NO 60 2 min 0,000 mm 3,0 UV-I 729 W/m -1,9 C 9,8 C 20,9 km/h (4 Bft) 94,87 %
27.03.2017 13:56 13,3 C 33 % 1024,8 hPa 0,0 l/m 18,8 km/h (3 Bft) O-NO 61 2 min 0,000 mm 3,0 UV-I 729 W/m -2,6 C 7,9 C 27,4 km/h (4 Bft) 100,00 %
27.03.2017 13:58 13,3 C 32 % 1024,7 hPa 0,0 l/m 23,9 km/h (4 Bft) NO 38 2 min 0,000 mm 3,0 UV-I 729 W/m -3,0 C 6,6 C 30,6 km/h (5 Bft) 97,87 %
27.03.2017 14:00 13,3 C 31 % 1024,7 hPa 0,0 l/m 19,3 km/h (3 Bft) N-NO 28 2 min 0,000 mm 3,0 UV-I 727 W/m -3,5 C 7,7 C 27,4 km/h (4 Bft) 94,34 %
27.03.2017 14:02 13,4 C 30 % 1024,7 hPa 0,0 l/m 20,0 km/h (4 Bft) O-NO 61 2 min 0,483 mm 3,0 UV-I 724 W/m -3,8 C 7,7 C 29,0 km/h (5 Bft) 100,00 %
27.03.2017 14:04 13,4 C 31 % 1024,7 hPa 0,0 l/m 19,7 km/h (3 Bft) O-NO 58 2 min 0,000 mm 2,9 UV-I 724 W/m -3,4 C 7,8 C 27,4 km/h (4 Bft) 96,61 %
27.03.2017 14:06 13,3 C 30 % 1024,6 hPa 0,0 l/m 17,8 km/h (3 Bft) O-NO 59 2 min 0,000 mm 2,9 UV-I 723 W/m -3,9 C 8,2 C 25,7 km/h (4 Bft) 98,00 %
27.03.2017 14:08 13,4 C 32 % 1024,6 hPa 0,0 l/m 17,2 km/h (3 Bft) NO 41 2 min 0,000 mm 2,9 UV-I 721 W/m -2,9 C 8,5 C 20,9 km/h (4 Bft) 98,00 %
27.03.2017 14:10 13,6 C 29 % 1024,5 hPa 0,0 l/m 15,2 km/h (3 Bft) NO 50 2 min 0,000 mm 2,9 UV-I 718 W/m -4,1 C 9,4 C 25,7 km/h (4 Bft) 100,00 %
27.03.2017 14:12 13,7 C 32 % 1024,6 hPa 0,0 l/m 17,5 km/h (3 Bft) O-NO 59 2 min 0,000 mm 2,9 UV-I 717 W/m -2,7 C 8,8 C 27,4 km/h (4 Bft) 98,31 %
27.03.2017 14:14 13,8 C 32 % 1024,4 hPa 0,0 l/m 17,3 km/h (3 Bft) O-NO 62 2 min 0,000 mm 2,9 UV-I 714 W/m -2,6 C 9,0 C 24,1 km/h (4 Bft) 97,56 %
27.03.2017 14:16 13,8 C 28 % 1024,4 hPa 0,0 l/m 14,6 km/h (3 Bft) O-NO 61 2 min 0,000 mm 2,9 UV-I 712 W/m -4,4 C 9,9 C 20,9 km/h (4 Bft) 93,10 %
27.03.2017 14:18 13,9 C 29 % 1024,3 hPa 0,0 l/m 18,8 km/h (3 Bft) O 85 2 min 0,000 mm 2,8 UV-I 711 W/m -3,8 C 8,7 C 25,7 km/h (4 Bft) 98,59 %
27.03.2017 14:20 13,9 C 25 % 1024,2 hPa 0,0 l/m 22,6 km/h (4 Bft) O 82 2 min 0,000 mm 2,8 UV-I 709 W/m -5,8 C 7,7 C 30,6 km/h (5 Bft) 100,00 %
27.03.2017 14:22 13,8 C 27 % 1024,2 hPa 0,0 l/m 22,1 km/h (4 Bft) NO 42 2 min 0,000 mm 2,8 UV-I 708 W/m -4,9 C 7,7 C 30,6 km/h (5 Bft) 94,00 %
27.03.2017 14:24 13,8 C 28 % 1024,2 hPa 0,0 l/m 15,0 km/h (3 Bft) NO 44 2 min 0,000 mm 2,8 UV-I 705 W/m -4,4 C 9,7 C 22,5 km/h (4 Bft) 96,00 %
27.03.2017 14:26 14,0 C 31 % 1024,1 hPa 0,0 l/m 11,2 km/h (2 Bft) NO 44 2 min 0,000 mm 2,8 UV-I 702 W/m -2,8 C 11,5 C 19,3 km/h (3 Bft) 100,00 %
27.03.2017 14:28 14,2 C 31 % 1024,0 hPa 0,0 l/m 15,2 km/h (3 Bft) O-NO 61 2 min 0,000 mm 2,7 UV-I 699 W/m -2,7 C 10,2 C 22,5 km/h (4 Bft) 100,00 %
27.03.2017 14:30 14,2 C 30 % 1024,1 hPa 0,0 l/m 18,1 km/h (3 Bft) NO 48 2 min 0,000 mm 2,7 UV-I 695 W/m -3,1 C 9,2 C 25,7 km/h (4 Bft) 96,00 %
27.03.2017 14:32 14,1 C 28 % 1023,9 hPa 0,0 l/m 18,9 km/h (3 Bft) NO 50 2 min 0,000 mm 2,7 UV-I 695 W/m -4,1 C 8,9 C 25,7 km/h (4 Bft) 94,74 %
27.03.2017 14:34 14,1 C 30 % 1023,9 hPa 0,0 l/m 18,9 km/h (3 Bft) O-NO 63 2 min 0,000 mm 2,7 UV-I 692 W/m -3,2 C 8,9 C 24,1 km/h (4 Bft) 94,12 %
27.03.2017 14:36 14,1 C 29 % 1023,8 hPa 0,0 l/m 20,6 km/h (4 Bft) O-NO 58 2 min 0,000 mm 2,7 UV-I 689 W/m -3,7 C 8,4 C 29,0 km/h (5 Bft) 97,92 %
27.03.2017 14:38 14,1 C 30 % 1023,8 hPa 0,0 l/m 21,6 km/h (4 Bft) NO 40 2 min 0,000 mm 2,6 UV-I 688 W/m -3,2 C 8,2 C 27,4 km/h (4 Bft) 92,68 %
27.03.2017 14:40 14,2 C 33 % 1023,8 hPa 0,0 l/m 21,3 km/h (4 Bft) NO 49 2 min 0,000 mm 2,6 UV-I 684 W/m -1,8 C 8,4 C 25,7 km/h (4 Bft) 95,12 %
27.03.2017 14:42 14,3 C 33 % 1023,8 hPa 0,0 l/m 13,4 km/h (3 Bft) NO 56 2 min 0,000 mm 2,6 UV-I 680 W/m -1,7 C 10,9 C 22,5 km/h (4 Bft) 95,56 %
27.03.2017 14:44 14,4 C 30 % 1023,8 hPa 0,0 l/m 22,2 km/h (4 Bft) O-NO 66 2 min 0,000 mm 2,6 UV-I 679 W/m -2,9 C 8,4 C 29,0 km/h (5 Bft) 96,61 %
27.03.2017 14:46 14,3 C 31 % 1023,8 hPa 0,0 l/m 19,9 km/h (4 Bft) O-NO 61 2 min 0,000 mm 2,5 UV-I 676 W/m -2,6 C 8,9 C 24,1 km/h (4 Bft) 95,45 %
27.03.2017 14:48 14,5 C 35 % 1023,7 hPa 0,0 l/m 15,7 km/h (3 Bft) N-NO 32 2 min 0,000 mm 2,5 UV-I 670 W/m -0,8 C 10,4 C 20,9 km/h (4 Bft) 92,00 %
27.03.2017 14:50 14,7 C 34 % 1023,7 hPa 0,0 l/m 15,8 km/h (3 Bft) NO 39 2 min 0,000 mm 2,5 UV-I 666 W/m -1,0 C 10,6 C 22,5 km/h (4 Bft) 94,00 %
27.03.2017 14:52 14,7 C 29 % 1023,7 hPa 0,0 l/m 20,0 km/h (4 Bft) NO 39 2 min 0,000 mm 2,5 UV-I 664 W/m -3,1 C 9,4 C 29,0 km/h (5 Bft) 94,74 %
27.03.2017 14:54 14,6 C 31 % 1023,6 hPa 0,0 l/m 21,0 km/h (4 Bft) NO 35 2 min 0,000 mm 2,5 UV-I 663 W/m -2,3 C 9,0 C 27,4 km/h (4 Bft) 96,00 %
27.03.2017 14:56 14,6 C 29 % 1023,6 hPa 0,0 l/m 20,5 km/h (4 Bft) O-NO 71 2 min 0,000 mm 2,4 UV-I 659 W/m -3,2 C 9,1 C 30,6 km/h (5 Bft) 98,11 %
27.03.2017 14:58 14,6 C 27 % 1023,6 hPa 0,0 l/m 22,2 km/h (4 Bft) NO 43 2 min 0,000 mm 2,4 UV-I 655 W/m -4,2 C 8,7 C 29,0 km/h (5 Bft) 97,73 %
27.03.2017 15:00 14,5 C 33 % 1023,6 hPa 0,0 l/m 14,5 km/h (3 Bft) NO 35 2 min 0,000 mm 2,4 UV-I 651 W/m -1,6 C 10,8 C 19,3 km/h (3 Bft) 98,00 %
27.03.2017 15:02 14,7 C 31 % 1023,5 hPa 0,0 l/m 17,6 km/h (3 Bft) N-NO 28 2 min 0,508 mm 2,4 UV-I 649 W/m -2,2 C 10,0 C 24,1 km/h (4 Bft) 97,14 %
27.03.2017 15:04 14,8 C 28 % 1023,6 hPa 0,0 l/m 16,5 km/h (3 Bft) NO 46 2 min 0,000 mm 2,3 UV-I 645 W/m -3,5 C 10,5 C 24,1 km/h (4 Bft) 92,00 %
27.03.2017 15:06 14,7 C 28 % 1023,5 hPa 0,0 l/m 18,7 km/h (3 Bft) NO 42 2 min 0,000 mm 2,3 UV-I 642 W/m -3,6 C 9,7 C 25,7 km/h (4 Bft) 92,45 %
27.03.2017 15:08 14,8 C 30 % 1023,5 hPa 0,0 l/m 14,1 km/h (3 Bft) NO 45 2 min 0,000 mm 2,3 UV-I 638 W/m -2,6 C 11,3 C 25,7 km/h (4 Bft) 93,62 %
27.03.2017 15:10 14,8 C 31 % 1023,5 hPa 0,0 l/m 18,9 km/h (3 Bft) NO 44 2 min 0,000 mm 2,2 UV-I 634 W/m -2,2 C 9,8 C 24,1 km/h (4 Bft) 92,68 %
27.03.2017 15:12 14,8 C 24 % 1023,5 hPa 0,0 l/m 17,4 km/h (3 Bft) NO 43 2 min 0,000 mm 2,2 UV-I 632 W/m -5,6 C 10,2 C 24,1 km/h (4 Bft) 95,56 %
27.03.2017 15:14 14,8 C 27 % 1023,5 hPa 0,0 l/m 14,9 km/h (3 Bft) NO 46 2 min 0,000 mm 2,2 UV-I 628 W/m -4,0 C 11,0 C 19,3 km/h (3 Bft) 90,91 %
27.03.2017 15:16 14,8 C 26 % 1023,5 hPa 0,0 l/m 14,3 km/h (3 Bft) NO 44 2 min 0,000 mm 2,2 UV-I 624 W/m -4,5 C 11,2 C 22,5 km/h (4 Bft) 95,24 %
27.03.2017 15:18 14,8 C 25 % 1023,5 hPa 0,0 l/m 14,1 km/h (3 Bft) O-NO 61 2 min 0,000 mm 2,2 UV-I 620 W/m -5,0 C 11,3 C 17,7 km/h (3 Bft) 94,00 %
27.03.2017 15:20 14,8 C 25 % 1023,5 hPa 0,0 l/m 16,0 km/h (3 Bft) NO 42 2 min 0,000 mm 2,1 UV-I 616 W/m -5,0 C 10,6 C 20,9 km/h (4 Bft) 95,12 %
27.03.2017 15:22 14,8 C 26 % 1023,4 hPa 0,0 l/m 17,5 km/h (3 Bft) N-NO 27 2 min 0,000 mm 2,1 UV-I 613 W/m -4,5 C 10,2 C 24,1 km/h (4 Bft) 91,49 %
27.03.2017 15:24 14,8 C 26 % 1023,4 hPa 0,0 l/m 16,9 km/h (3 Bft) NO 44 2 min 0,000 mm 2,1 UV-I 609 W/m -4,5 C 10,3 C 20,9 km/h (4 Bft) 96,43 %
27.03.2017 15:26 14,9 C 25 % 1023,4 hPa 0,0 l/m 16,4 km/h (3 Bft) O-NO 70 2 min 0,000 mm 2,1 UV-I 605 W/m -4,9 C 10,6 C 27,4 km/h (4 Bft) 92,11 %
27.03.2017 15:28 14,8 C 25 % 1023,4 hPa 0,0 l/m 14,0 km/h (3 Bft) NO 56 2 min 0,000 mm 2,0 UV-I 602 W/m -5,0 C 11,3 C 20,9 km/h (4 Bft) 95,12 %
27.03.2017 15:30 14,9 C 28 % 1023,3 hPa 0,0 l/m 15,4 km/h (3 Bft) N-NO 14 2 min 0,000 mm 2,0 UV-I 597 W/m -3,4 C 10,9 C 25,7 km/h (4 Bft) 92,86 %
27.03.2017 15:32 14,9 C 25 % 1023,3 hPa 0,0 l/m 23,1 km/h (4 Bft) NO 55 2 min 0,000 mm 2,0 UV-I 593 W/m -4,9 C 8,9 C 29,0 km/h (5 Bft) 97,73 %
27.03.2017 15:34 14,8 C 23 % 1023,3 hPa 0,0 l/m 22,4 km/h (4 Bft) NO 42 2 min 0,000 mm 2,0 UV-I 591 W/m -6,1 C 8,9 C 29,0 km/h (5 Bft) 96,43 %
27.03.2017 15:36 14,7 C 21 % 1023,3 hPa 0,0 l/m 19,1 km/h (3 Bft) O-NO 61 2 min 0,000 mm 1,9 UV-I 586 W/m -7,4 C 9,6 C 27,4 km/h (4 Bft) 94,29 %
27.03.2017 15:38 14,8 C 23 % 1023,2 hPa 0,0 l/m 20,0 km/h (4 Bft) NO 54 2 min 0,000 mm 1,9 UV-I 582 W/m -6,1 C 9,5 C 27,4 km/h (4 Bft) 94,34 %
27.03.2017 15:40 14,8 C 24 % 1023,3 hPa 0,0 l/m 20,4 km/h (4 Bft) NO 55 2 min 0,000 mm 1,9 UV-I 578 W/m -5,6 C 9,4 C 25,7 km/h (4 Bft) 100,00 %
27.03.2017 15:42 14,8 C 22 % 1023,2 hPa 0,0 l/m 21,1 km/h (4 Bft) O-NO 71 2 min 0,000 mm 1,8 UV-I 574 W/m -6,7 C 9,2 C 27,4 km/h (4 Bft) 94,92 %
27.03.2017 15:44 14,7 C 23 % 1023,2 hPa 0,0 l/m 18,4 km/h (3 Bft) O-NO 75 2 min 0,000 mm 1,8 UV-I 568 W/m -6,2 C 9,8 C 25,7 km/h (4 Bft) 97,37 %
27.03.2017 15:46 14,8 C 24 % 1023,2 hPa 0,0 l/m 19,4 km/h (3 Bft) NO 54 2 min 0,000 mm 1,8 UV-I 565 W/m -5,6 C 9,6 C 25,7 km/h (4 Bft) 96,67 %
27.03.2017 15:48 14,8 C 23 % 1023,2 hPa 0,0 l/m 21,1 km/h (4 Bft) NO 51 2 min 0,000 mm 1,7 UV-I 559 W/m -6,1 C 9,2 C 29,0 km/h (5 Bft) 94,03 %
27.03.2017 15:50 14,8 C 23 % 1023,2 hPa 0,0 l/m 15,9 km/h (3 Bft) NO 45 2 min 0,000 mm 1,7 UV-I 554 W/m -6,1 C 10,7 C 24,1 km/h (4 Bft) 94,00 %
27.03.2017 15:52 14,8 C 23 % 1023,1 hPa 0,0 l/m 17,1 km/h (3 Bft) O-NO 63 2 min 0,000 mm 1,7 UV-I 549 W/m -6,1 C 10,3 C 24,1 km/h (4 Bft) 97,62 %
27.03.2017 15:54 14,8 C 24 % 1023,1 hPa 0,0 l/m 17,0 km/h (3 Bft) NO 53 2 min 0,000 mm 1,7 UV-I 545 W/m -5,6 C 10,3 C 27,4 km/h (4 Bft) 95,74 %
27.03.2017 15:56 14,8 C 22 % 1023,2 hPa 0,0 l/m 18,8 km/h (3 Bft) NO 53 2 min 0,000 mm 1,6 UV-I 540 W/m -6,7 C 9,8 C 25,7 km/h (4 Bft) 96,15 %
27.03.2017 15:58 14,8 C 23 % 1023,1 hPa 0,0 l/m 18,5 km/h (3 Bft) NO 55 2 min 0,000 mm 1,6 UV-I 535 W/m -6,1 C 9,9 C 24,1 km/h (4 Bft) 97,18 %
27.03.2017 16:00 14,8 C 23 % 1023,1 hPa 0,0 l/m 18,2 km/h (3 Bft) NO 40 2 min 0,457 mm 1,6 UV-I 531 W/m -6,1 C 10,0 C 25,7 km/h (4 Bft) 92,68 %
27.03.2017 16:02 14,8 C 22 % 1023,1 hPa 0,0 l/m 19,1 km/h (3 Bft) O-NO 66 2 min 0,000 mm 1,6 UV-I 526 W/m -6,7 C 9,7 C 25,7 km/h (4 Bft) 88,00 %
27.03.2017 16:04 14,8 C 27 % 1023,1 hPa 0,0 l/m 19,3 km/h (3 Bft) NO 39 2 min 0,000 mm 1,5 UV-I 520 W/m -4,0 C 9,7 C 24,1 km/h (4 Bft) 98,11 %
27.03.2017 16:06 14,9 C 24 % 1023,0 hPa 0,0 l/m 18,4 km/h (3 Bft) O-NO 74 2 min 0,000 mm 1,5 UV-I 515 W/m -5,5 C 10,0 C 25,7 km/h (4 Bft) 94,74 %
27.03.2017 16:08 14,9 C 26 % 1023,0 hPa 0,0 l/m 15,6 km/h (3 Bft) NO 40 2 min 0,000 mm 1,5 UV-I 510 W/m -4,4 C 10,9 C 25,7 km/h (4 Bft) 98,00 %
27.03.2017 16:10 15,1 C 25 % 1023,0 hPa 0,0 l/m 17,3 km/h (3 Bft) O-NO 66 2 min 0,000 mm 1,4 UV-I 505 W/m -4,8 C 10,6 C 22,5 km/h (4 Bft) 93,62 %
27.03.2017 16:12 15,1 C 27 % 1023,0 hPa 0,0 l/m 12,8 km/h (3 Bft) N-NO 30 2 min 0,000 mm 1,4 UV-I 500 W/m -3,7 C 12,1 C 20,9 km/h (4 Bft) 96,23 %
27.03.2017 16:14 15,2 C 26 % 1023,0 hPa 0,0 l/m 13,2 km/h (3 Bft) O-NO 69 2 min 0,000 mm 1,4 UV-I 494 W/m -4,2 C 12,1 C 19,3 km/h (3 Bft) 97,14 %
27.03.2017 16:16 15,2 C 29 % 1023,0 hPa 0,0 l/m 15,2 km/h (3 Bft) O-NO 66 2 min 0,000 mm 1,4 UV-I 489 W/m -2,7 C 11,4 C 20,9 km/h (4 Bft) 96,43 %
27.03.2017 16:18 15,2 C 26 % 1023,0 hPa 0,0 l/m 18,4 km/h (3 Bft) O-NO 57 2 min 0,000 mm 1,3 UV-I 483 W/m -4,2 C 10,4 C 27,4 km/h (4 Bft) 95,74 %
27.03.2017 16:20 15,2 C 26 % 1023,0 hPa 0,0 l/m 19,3 km/h (3 Bft) NO 47 2 min 0,000 mm 1,3 UV-I 478 W/m -4,2 C 10,2 C 27,4 km/h (4 Bft) 94,00 %
27.03.2017 16:22 15,2 C 26 % 1023,0 hPa 0,0 l/m 12,5 km/h (3 Bft) NO 35 2 min 0,000 mm 1,3 UV-I 474 W/m -4,2 C 12,3 C 20,9 km/h (4 Bft) 94,74 %
27.03.2017 16:24 15,2 C 24 % 1023,0 hPa 0,0 l/m 18,4 km/h (3 Bft) NO 40 2 min 0,000 mm 1,3 UV-I 469 W/m -5,2 C 10,4 C 22,5 km/h (4 Bft) 94,00 %
27.03.2017 16:26 15,1 C 23 % 1023,1 hPa 0,0 l/m 15,5 km/h (3 Bft) NO 55 2 min 0,000 mm 1,2 UV-I 463 W/m -5,9 C 11,2 C 20,9 km/h (4 Bft) 96,23 %
27.03.2017 16:28 15,0 C 27 % 1023,0 hPa 0,0 l/m 18,7 km/h (3 Bft) NO 54 2 min 0,000 mm 1,2 UV-I 459 W/m -3,8 C 10,1 C 25,7 km/h (4 Bft) 95,12 %
27.03.2017 16:30 15,0 C 24 % 1023,1 hPa 0,0 l/m 16,6 km/h (3 Bft) NO 49 2 min 0,000 mm 1,2 UV-I 452 W/m -5,4 C 10,7 C 24,1 km/h (4 Bft) 93,18 %
27.03.2017 16:32 15,0 C 25 % 1023,0 hPa 0,0 l/m 18,2 km/h (3 Bft) NO 42 2 min 0,000 mm 1,2 UV-I 446 W/m -4,8 C 10,2 C 27,4 km/h (4 Bft) 97,92 %
27.03.2017 16:34 15,0 C 24 % 1023,1 hPa 0,0 l/m 18,7 km/h (3 Bft) O-NO 69 2 min 0,000 mm 1,1 UV-I 441 W/m -5,4 C 10,1 C 25,7 km/h (4 Bft) 96,00 %
27.03.2017 16:36 14,9 C 25 % 1023,1 hPa 0,0 l/m 16,4 km/h (3 Bft) NO 47 2 min 0,000 mm 1,1 UV-I 434 W/m -4,9 C 10,6 C 20,9 km/h (4 Bft) 100,00 %
27.03.2017 16:39 14,9 C 24 % 1023,0 hPa 0,0 l/m 14,7 km/h (3 Bft) NO 36 3 min 0,000 mm 1,1 UV-I 428 W/m -5,5 C 11,2 C 22,5 km/h (4 Bft) 98,18 %
27.03.2017 16:40 15,0 C 24 % 1023,0 hPa 0,0 l/m 12,8 km/h (3 Bft) NO 56 1 min 0,000 mm 1,1 UV-I 424 W/m -5,4 C 12,0 C 19,3 km/h (3 Bft) 100,00 %
27.03.2017 16:42 15,1 C 25 % 1023,0 hPa 0,0 l/m 17,0 km/h (3 Bft) NO 49 2 min 0,000 mm 1,0 UV-I 418 W/m -4,8 C 10,7 C 27,4 km/h (4 Bft) 98,00 %
27.03.2017 16:44 15,0 C 25 % 1023,0 hPa 0,0 l/m 18,3 km/h (3 Bft) O 81 2 min 0,000 mm 1,0 UV-I 414 W/m -4,8 C 10,2 C 24,1 km/h (4 Bft) 98,11 %
27.03.2017 16:46 14,9 C 26 % 1023,0 hPa 0,0 l/m 14,7 km/h (3 Bft) O-NO 59 2 min 0,000 mm 1,0 UV-I 408 W/m -4,4 C 11,2 C 19,3 km/h (3 Bft) 98,00 %
27.03.2017 16:48 14,9 C 26 % 1022,9 hPa 0,0 l/m 16,3 km/h (3 Bft) O-NO 74 2 min 0,000 mm 1,0 UV-I 402 W/m -4,4 C 10,7 C 20,9 km/h (4 Bft) 97,73 %
27.03.2017 16:50 14,9 C 25 % 1023,0 hPa 0,0 l/m 17,2 km/h (3 Bft) O-NO 72 2 min 0,000 mm 0,9 UV-I 396 W/m -4,9 C 10,4 C 20,9 km/h (4 Bft) 100,00 %
27.03.2017 16:52 14,9 C 28 % 1022,9 hPa 0,0 l/m 17,0 km/h (3 Bft) O-NO 62 2 min 0,000 mm 0,9 UV-I 390 W/m -3,4 C 10,4 C 22,5 km/h (4 Bft) 100,00 %
27.03.2017 16:54 14,9 C 25 % 1023,0 hPa 0,0 l/m 19,3 km/h (3 Bft) O-NO 65 2 min 0,000 mm 0,9 UV-I 384 W/m -4,9 C 9,8 C 24,1 km/h (4 Bft) 96,61 %
27.03.2017 16:56 14,9 C 27 % 1022,9 hPa 0,0 l/m 19,0 km/h (3 Bft) O-NO 74 2 min 0,000 mm 0,9 UV-I 378 W/m -3,9 C 9,9 C 27,4 km/h (4 Bft) 93,18 %
27.03.2017 16:58 14,9 C 24 % 1022,9 hPa 0,0 l/m 18,9 km/h (3 Bft) O-NO 60 2 min 0,000 mm 0,8 UV-I 373 W/m -5,5 C 9,9 C 24,1 km/h (4 Bft) 95,45 %
27.03.2017 17:00 14,9 C 29 % 1022,9 hPa 0,0 l/m 15,1 km/h (3 Bft) O-NO 71 2 min 0,000 mm 0,8 UV-I 367 W/m -3,0 C 11,0 C 19,3 km/h (3 Bft) 97,73 %
27.03.2017 17:02 14,9 C 25 % 1022,8 hPa 0,0 l/m 18,1 km/h (3 Bft) NO 46 2 min 0,381 mm 0,8 UV-I 362 W/m -4,9 C 10,1 C 22,5 km/h (4 Bft) 94,64 %
27.03.2017 17:04 14,9 C 24 % 1022,8 hPa 0,0 l/m 15,8 km/h (3 Bft) NO 34 2 min 0,000 mm 0,8 UV-I 355 W/m -5,5 C 10,8 C 20,9 km/h (4 Bft) 95,12 %
27.03.2017 17:06 14,9 C 26 % 1022,8 hPa 0,0 l/m 14,2 km/h (3 Bft) NO 34 2 min 0,000 mm 0,8 UV-I 348 W/m -4,4 C 11,3 C 19,3 km/h (3 Bft) 97,73 %
27.03.2017 17:08 14,9 C 27 % 1022,8 hPa 0,0 l/m 15,5 km/h (3 Bft) O-NO 63 2 min 0,000 mm 0,7 UV-I 342 W/m -3,9 C 10,9 C 19,3 km/h (3 Bft) 94,34 %
27.03.2017 17:10 14,9 C 26 % 1022,8 hPa 0,0 l/m 16,7 km/h (3 Bft) O-NO 76 2 min 0,000 mm 0,7 UV-I 337 W/m -4,4 C 10,5 C 20,9 km/h (4 Bft) 94,87 %
27.03.2017 17:12 14,9 C 27 % 1022,7 hPa 0,0 l/m 18,5 km/h (3 Bft) O-NO 75 2 min 0,000 mm 0,7 UV-I 330 W/m -3,9 C 10,0 C 27,4 km/h (4 Bft) 96,23 %
27.03.2017 17:14 14,8 C 27 % 1022,8 hPa 0,0 l/m 14,8 km/h (3 Bft) O-NO 63 2 min 0,000 mm 0,7 UV-I 324 W/m -4,0 C 11,0 C 19,3 km/h (3 Bft) 95,45 %
27.03.2017 17:16 14,8 C 27 % 1022,8 hPa 0,0 l/m 16,7 km/h (3 Bft) O 83 2 min 0,000 mm 0,6 UV-I 319 W/m -4,0 C 10,4 C 24,1 km/h (4 Bft) 95,74 %
27.03.2017 17:18 14,8 C 28 % 1022,8 hPa 0,0 l/m 13,4 km/h (3 Bft) O-NO 57 2 min 0,000 mm 0,6 UV-I 313 W/m -3,5 C 11,5 C 20,9 km/h (4 Bft) 98,00 %
27.03.2017 17:20 14,7 C 28 % 1022,7 hPa 0,0 l/m 14,5 km/h (3 Bft) O-NO 65 2 min 0,000 mm 0,6 UV-I 308 W/m -3,6 C 11,0 C 19,3 km/h (3 Bft) 98,11 %
27.03.2017 17:22 14,7 C 28 % 1022,8 hPa 0,0 l/m 13,4 km/h (3 Bft) O-NO 65 2 min 0,000 mm 0,6 UV-I 300 W/m -3,6 C 11,4 C 17,7 km/h (3 Bft) 97,87 %
27.03.2017 17:24 14,7 C 25 % 1022,7 hPa 0,0 l/m 18,2 km/h (3 Bft) O 82 2 min 0,000 mm 0,6 UV-I 295 W/m -5,1 C 9,8 C 25,7 km/h (4 Bft) 95,12 %
27.03.2017 17:26 14,7 C 25 % 1022,7 hPa 0,0 l/m 18,4 km/h (3 Bft) NO 50 2 min 0,000 mm 0,5 UV-I 290 W/m -5,1 C 9,8 C 25,7 km/h (4 Bft) 97,87 %
27.03.2017 17:28 14,7 C 27 % 1022,7 hPa 0,0 l/m 13,6 km/h (3 Bft) O 87 2 min 0,000 mm 0,5 UV-I 284 W/m -4,1 C 11,3 C 24,1 km/h (4 Bft) 94,00 %
27.03.2017 17:30 14,7 C 26 % 1022,7 hPa 0,0 l/m 14,5 km/h (3 Bft) NO 42 2 min 0,000 mm 0,5 UV-I 278 W/m -4,6 C 11,0 C 22,5 km/h (4 Bft) 97,87 %
27.03.2017 17:32 14,7 C 25 % 1022,7 hPa 0,0 l/m 16,3 km/h (3 Bft) O-NO 68 2 min 0,000 mm 0,5 UV-I 271 W/m -5,1 C 10,4 C 24,1 km/h (4 Bft) 93,62 %
27.03.2017 17:34 14,7 C 24 % 1022,7 hPa 0,0 l/m 21,4 km/h (4 Bft) NO 55 2 min 0,000 mm 0,5 UV-I 265 W/m -5,6 C 9,0 C 25,7 km/h (4 Bft) 97,73 %
27.03.2017 17:36 14,6 C 26 % 1022,7 hPa 0,0 l/m 19,1 km/h (3 Bft) NO 43 2 min 0,000 mm 0,3 UV-I 260 W/m -4,7 C 9,5 C 24,1 km/h (4 Bft) 100,00 %
27.03.2017 17:38 14,6 C 25 % 1022,7 hPa 0,0 l/m 16,7 km/h (3 Bft) O-NO 75 2 min 0,000 mm 0,0 UV-I 254 W/m -5,2 C 10,2 C 22,5 km/h (4 Bft) 97,87 %
27.03.2017 17:40 14,6 C 25 % 1022,6 hPa 0,0 l/m 13,8 km/h (3 Bft) NO 56 2 min 0,000 mm 0,0 UV-I 247 W/m -5,2 C 11,1 C 22,5 km/h (4 Bft) 98,11 %
27.03.2017 17:42 14,6 C 27 % 1022,7 hPa 0,0 l/m 14,9 km/h (3 Bft) NO 43 2 min 0,000 mm 0,0 UV-I 241 W/m -4,2 C 10,7 C 19,3 km/h (3 Bft) 100,00 %
27.03.2017 17:44 14,6 C 27 % 1022,7 hPa 0,0 l/m 15,7 km/h (3 Bft) O-NO 63 2 min 0,000 mm 0,0 UV-I 236 W/m -4,2 C 10,5 C 19,3 km/h (3 Bft) 96,00 %
27.03.2017 17:46 14,5 C 29 % 1022,7 hPa 0,0 l/m 15,4 km/h (3 Bft) O-NO 76 2 min 0,000 mm 0,0 UV-I 230 W/m -3,3 C 10,5 C 20,9 km/h (4 Bft) 95,74 %
27.03.2017 17:48 14,5 C 29 % 1022,6 hPa 0,0 l/m 16,3 km/h (3 Bft) O-NO 76 2 min 0,000 mm 0,0 UV-I 223 W/m -3,3 C 10,2 C 22,5 km/h (4 Bft) 93,62 %
27.03.2017 17:50 14,4 C 28 % 1022,6 hPa 0,0 l/m 15,0 km/h (3 Bft) O-NO 63 2 min 0,000 mm 0,0 UV-I 218 W/m -3,9 C 10,5 C 19,3 km/h (3 Bft) 97,44 %
27.03.2017 17:52 14,3 C 28 % 1022,6 hPa 0,0 l/m 17,3 km/h (3 Bft) O 84 2 min 0,000 mm 0,0 UV-I 213 W/m -3,9 C 9,6 C 24,1 km/h (4 Bft) 98,15 %
27.03.2017 17:54 14,3 C 26 % 1022,6 hPa 0,0 l/m 18,1 km/h (3 Bft) O 96 2 min 0,000 mm 0,0 UV-I 207 W/m -4,9 C 9,4 C 22,5 km/h (4 Bft) 97,73 %
27.03.2017 17:56 14,3 C 26 % 1022,6 hPa 0,0 l/m 18,2 km/h (3 Bft) O-NO 71 2 min 0,000 mm 0,0 UV-I 201 W/m -4,9 C 9,3 C 24,1 km/h (4 Bft) 97,37 %
27.03.2017 17:58 14,2 C 27 % 1022,6 hPa 0,0 l/m 16,2 km/h (3 Bft) O-NO 66 2 min 0,000 mm 0,0 UV-I 195 W/m -4,5 C 9,8 C 24,1 km/h (4 Bft) 94,34 %
27.03.2017 18:00 14,2 C 26 % 1022,5 hPa 0,0 l/m 13,5 km/h (3 Bft) O-NO 75 2 min 0,279 mm 0,0 UV-I 190 W/m -5,0 C 10,8 C 22,5 km/h (4 Bft) 94,34 %
27.03.2017 18:02 14,2 C 28 % 1022,5 hPa 0,0 l/m 13,9 km/h (3 Bft) NO 38 2 min 0,000 mm 0,0 UV-I 184 W/m -4,0 C 10,6 C 17,7 km/h (3 Bft) 97,78 %
27.03.2017 18:04 14,2 C 30 % 1022,5 hPa 0,0 l/m 14,7 km/h (3 Bft) NO 56 2 min 0,000 mm 0,0 UV-I 178 W/m -3,1 C 10,3 C 17,7 km/h (3 Bft) 100,00 %
27.03.2017 18:06 14,1 C 30 % 1022,5 hPa 0,0 l/m 12,4 km/h (3 Bft) O-NO 67 2 min 0,000 mm 0,0 UV-I 173 W/m -3,2 C 11,1 C 17,7 km/h (3 Bft) 97,73 %
27.03.2017 18:08 14,1 C 29 % 1022,5 hPa 0,0 l/m 13,0 km/h (3 Bft) O-NO 61 2 min 0,000 mm 0,0 UV-I 167 W/m -3,7 C 10,8 C 17,7 km/h (3 Bft) 98,11 %
27.03.2017 18:10 14,1 C 28 % 1022,5 hPa 0,0 l/m 18,1 km/h (3 Bft) O-NO 67 2 min 0,000 mm 0,0 UV-I 162 W/m -4,1 C 9,1 C 24,1 km/h (4 Bft) 95,12 %
27.03.2017 18:12 14,1 C 25 % 1022,5 hPa 0,0 l/m 17,4 km/h (3 Bft) NO 55 2 min 0,000 mm 0,0 UV-I 157 W/m -5,6 C 9,3 C 24,1 km/h (4 Bft) 98,21 %
27.03.2017 18:14 14,1 C 26 % 1022,5 hPa 0,0 l/m 16,3 km/h (3 Bft) NO 54 2 min 0,000 mm 0,0 UV-I 152 W/m -5,1 C 9,7 C 24,1 km/h (4 Bft) 100,00 %
27.03.2017 18:16 14,0 C 29 % 1022,5 hPa 0,0 l/m 13,4 km/h (3 Bft) O 82 2 min 0,000 mm 0,0 UV-I 146 W/m -3,7 C 10,6 C 17,7 km/h (3 Bft) 100,00 %
27.03.2017 18:18 13,9 C 29 % 1022,5 hPa 0,0 l/m 15,0 km/h (3 Bft) O-NO 76 2 min 0,000 mm 0,0 UV-I 140 W/m -3,8 C 9,9 C 20,9 km/h (4 Bft) 97,73 %
27.03.2017 18:20 13,8 C 29 % 1022,4 hPa 0,0 l/m 13,1 km/h (3 Bft) O 86 2 min 0,000 mm 0,0 UV-I 135 W/m -3,9 C 10,4 C 17,7 km/h (3 Bft) 100,00 %
27.03.2017 18:22 13,8 C 30 % 1022,5 hPa 0,0 l/m 15,5 km/h (3 Bft) O 79 2 min 0,000 mm 0,0 UV-I 130 W/m -3,5 C 9,6 C 20,9 km/h (4 Bft) 92,45 %
27.03.2017 18:24 13,7 C 29 % 1022,5 hPa 0,0 l/m 15,3 km/h (3 Bft) O 89 2 min 0,000 mm 0,0 UV-I 125 W/m -4,0 C 9,5 C 20,9 km/h (4 Bft) 96,00 %
27.03.2017 18:26 13,7 C 28 % 1022,5 hPa 0,0 l/m 17,8 km/h (3 Bft) O-NO 70 2 min 0,000 mm 0,0 UV-I 120 W/m -4,5 C 8,7 C 24,1 km/h (4 Bft) 100,00 %
27.03.2017 18:28 13,7 C 29 % 1022,5 hPa 0,0 l/m 14,6 km/h (3 Bft) O-NO 77 2 min 0,000 mm 0,0 UV-I 115 W/m -4,0 C 9,8 C 19,3 km/h (3 Bft) 96,00 %
27.03.2017 18:30 13,6 C 29 % 1022,5 hPa 0,0 l/m 15,2 km/h (3 Bft) O 84 2 min 0,000 mm 0,0 UV-I 111 W/m -4,1 C 9,4 C 20,9 km/h (4 Bft) 94,44 %
27.03.2017 18:32 13,6 C 30 % 1022,5 hPa 0,0 l/m 15,0 km/h (3 Bft) O 94 2 min 0,000 mm 0,0 UV-I 105 W/m -3,6 C 9,5 C 22,5 km/h (4 Bft) 92,86 %
27.03.2017 18:34 13,5 C 31 % 1022,5 hPa 0,0 l/m 14,2 km/h (3 Bft) O-NO 73 2 min 0,000 mm 0,0 UV-I 100 W/m -3,3 C 9,7 C 22,5 km/h (4 Bft) 98,00 %
27.03.2017 18:36 13,4 C 33 % 1022,5 hPa 0,0 l/m 14,0 km/h (3 Bft) O-SO 111 2 min 0,000 mm 0,0 UV-I 96 W/m -2,5 C 9,6 C 17,7 km/h (3 Bft) 97,67 %
27.03.2017 18:38 13,3 C 32 % 1022,6 hPa 0,0 l/m 13,9 km/h (3 Bft) O-NO 67 2 min 0,000 mm 0,0 UV-I 91 W/m -3,0 C 9,5 C 17,7 km/h (3 Bft) 96,15 %
27.03.2017 18:40 13,3 C 32 % 1022,6 hPa 0,0 l/m 17,3 km/h (3 Bft) O 86 2 min 0,000 mm 0,0 UV-I 86 W/m -3,0 C 8,4 C 20,9 km/h (4 Bft) 100,00 %
27.03.2017 18:42 13,2 C 32 % 1022,6 hPa 0,0 l/m 17,9 km/h (3 Bft) NO 47 2 min 0,000 mm 0,0 UV-I 81 W/m -3,1 C 8,0 C 25,7 km/h (4 Bft) 100,00 %
27.03.2017 18:44 13,2 C 33 % 1022,6 hPa 0,0 l/m 13,6 km/h (3 Bft) NO 40 2 min 0,000 mm 0,0 UV-I 76 W/m -2,7 C 9,5 C 19,3 km/h (3 Bft) 93,62 %
27.03.2017 18:46 13,1 C 33 % 1022,6 hPa 0,0 l/m 18,4 km/h (3 Bft) O-NO 59 2 min 0,000 mm 0,0 UV-I 72 W/m -2,8 C 7,8 C 24,1 km/h (4 Bft) 100,00 %
27.03.2017 18:48 13,1 C 33 % 1022,6 hPa 0,0 l/m 14,3 km/h (3 Bft) O 85 2 min 0,000 mm 0,0 UV-I 66 W/m -2,8 C 9,1 C 19,3 km/h (3 Bft) 97,73 %
27.03.2017 18:50 12,9 C 34 % 1022,6 hPa 0,0 l/m 16,1 km/h (3 Bft) O-NO 63 2 min 0,000 mm 0,0 UV-I 62 W/m -2,6 C 8,3 C 22,5 km/h (4 Bft) 97,56 %
27.03.2017 18:52 12,9 C 34 % 1022,6 hPa 0,0 l/m 14,8 km/h (3 Bft) O-NO 75 2 min 0,000 mm 0,0 UV-I 58 W/m -2,6 C 8,7 C 19,3 km/h (3 Bft) 96,92 %
27.03.2017 18:54 12,8 C 36 % 1022,6 hPa 0,0 l/m 13,4 km/h (3 Bft) O-NO 71 2 min 0,000 mm 0,0 UV-I 54 W/m -1,9 C 9,1 C 20,9 km/h (4 Bft) 100,00 %
27.03.2017 18:56 12,7 C 35 % 1022,6 hPa 0,0 l/m 14,5 km/h (3 Bft) O 80 2 min 0,000 mm 0,0 UV-I 49 W/m -2,4 C 8,6 C 22,5 km/h (4 Bft) 98,51 %
27.03.2017 18:58 12,6 C 36 % 1022,6 hPa 0,0 l/m 13,7 km/h (3 Bft) O 82 2 min 0,000 mm 0,0 UV-I 46 W/m -2,1 C 8,8 C 19,3 km/h (3 Bft) 95,12 %
27.03.2017 19:00 12,5 C 36 % 1022,6 hPa 0,0 l/m 12,9 km/h (3 Bft) O 84 2 min 0,000 mm 0,0 UV-I 41 W/m -2,2 C 9,0 C 17,7 km/h (3 Bft) 94,34 %
27.03.2017 19:02 12,4 C 36 % 1022,6 hPa 0,0 l/m 14,7 km/h (3 Bft) O-NO 64 2 min 0,178 mm 0,0 UV-I 39 W/m -2,2 C 8,2 C 22,5 km/h (4 Bft) 97,56 %
27.03.2017 19:04 12,4 C 35 % 1022,6 hPa 0,0 l/m 15,7 km/h (3 Bft) O 92 2 min 0,000 mm 0,0 UV-I 35 W/m -2,6 C 7,8 C 24,1 km/h (4 Bft) 96,43 %
27.03.2017 19:06 12,4 C 36 % 1022,6 hPa 0,0 l/m 14,4 km/h (3 Bft) O-NO 70 2 min 0,000 mm 0,0 UV-I 32 W/m -2,2 C 8,3 C 19,3 km/h (3 Bft) 95,12 %
27.03.2017 19:08 12,3 C 35 % 1022,6 hPa 0,0 l/m 12,9 km/h (3 Bft) O-NO 70 2 min 0,000 mm 0,0 UV-I 29 W/m -2,7 C 8,8 C 17,7 km/h (3 Bft) 90,00 %
27.03.2017 19:10 12,3 C 37 % 1022,6 hPa 0,0 l/m 14,1 km/h (3 Bft) O-NO 65 2 min 0,000 mm 0,0 UV-I 26 W/m -2,0 C 8,3 C 19,3 km/h (3 Bft) 98,00 %
27.03.2017 19:12 12,3 C 36 % 1022,6 hPa 0,0 l/m 17,2 km/h (3 Bft) O-NO 69 2 min 0,000 mm 0,0 UV-I 24 W/m -2,3 C 7,1 C 25,7 km/h (4 Bft) 91,67 %
27.03.2017 19:14 12,3 C 36 % 1022,6 hPa 0,0 l/m 16,2 km/h (3 Bft) NO 35 2 min 0,000 mm 0,0 UV-I 21 W/m -2,3 C 7,5 C 22,5 km/h (4 Bft) 88,64 %
27.03.2017 19:16 12,2 C 37 % 1022,6 hPa 0,0 l/m 13,4 km/h (3 Bft) O-NO 61 2 min 0,000 mm 0,0 UV-I 19 W/m -2,0 C 8,4 C 20,9 km/h (4 Bft) 88,89 %
27.03.2017 19:18 12,1 C 36 % 1022,5 hPa 0,0 l/m 17,2 km/h (3 Bft) O 86 0 min 0,000 mm 0,0 UV-I 17 W/m -2,5 C 6,9 C 24,1 km/h (4 Bft) 95,12 %
27.03.2017 19:20 12,1 C 37 % 1022,6 hPa 0,0 l/m 16,5 km/h (3 Bft) O-NO 65 0 min 0,000 mm 0,0 UV-I 14 W/m -2,1 C 7,1 C 20,9 km/h (4 Bft) 94,92 %
27.03.2017 19:22 12,0 C 38 % 1022,6 hPa 0,0 l/m 15,1 km/h (3 Bft) O-NO 62 0 min 0,000 mm 0,0 UV-I 12 W/m -1,9 C 7,5 C 22,5 km/h (4 Bft) 95,45 %
27.03.2017 19:24 11,9 C 38 % 1022,6 hPa 0,0 l/m 15,4 km/h (3 Bft) O-NO 73 0 min 0,000 mm 0,0 UV-I 11 W/m -2,0 C 7,3 C 24,1 km/h (4 Bft) 94,74 %
27.03.2017 19:26 11,8 C 37 % 1022,5 hPa 0,0 l/m 16,0 km/h (3 Bft) O-NO 78 0 min 0,000 mm 0,0 UV-I 10 W/m -2,4 C 6,9 C 22,5 km/h (4 Bft) 96,23 %
27.03.2017 19:28 11,7 C 37 % 1022,6 hPa 0,0 l/m 15,9 km/h (3 Bft) O-NO 61 0 min 0,000 mm 0,0 UV-I 9 W/m -2,5 C 6,9 C 20,9 km/h (4 Bft) 98,00 %
27.03.2017 19:30 11,7 C 37 % 1022,5 hPa 0,0 l/m 14,5 km/h (3 Bft) O-NO 76 0 min 0,000 mm 0,0 UV-I 9 W/m -2,5 C 7,4 C 19,3 km/h (3 Bft) 93,18 %
27.03.2017 19:32 11,7 C 38 % 1022,6 hPa 0,0 l/m 12,8 km/h (3 Bft) O 85 0 min 0,000 mm 0,0 UV-I 7 W/m -2,1 C 8,1 C 17,7 km/h (3 Bft) 92,68 %
27.03.2017 19:34 11,6 C 38 % 1022,6 hPa 0,0 l/m 14,9 km/h (3 Bft) O 85 0 min 0,000 mm 0,0 UV-I 7 W/m -2,2 C 7,1 C 19,3 km/h (3 Bft) 92,45 %
27.03.2017 19:36 11,4 C 38 % 1022,6 hPa 0,0 l/m 13,9 km/h (3 Bft) O-NO 65 0 min 0,000 mm 0,0 UV-I 6 W/m -2,4 C 7,3 C 20,9 km/h (4 Bft) 100,00 %
27.03.2017 19:38 11,4 C 38 % 1022,5 hPa 0,0 l/m 13,8 km/h (3 Bft) O-NO 71 0 min 0,000 mm 0,0 UV-I 5 W/m -2,4 C 7,3 C 19,3 km/h (3 Bft) 100,00 %
27.03.2017 19:40 11,3 C 38 % 1022,6 hPa 0,0 l/m 11,9 km/h (2 Bft) O-NO 71 0 min 0,000 mm 0,0 UV-I 5 W/m -2,5 C 8,1 C 17,7 km/h (3 Bft) 100,00 %
27.03.2017 19:42 11,3 C 38 % 1022,6 hPa 0,0 l/m 12,1 km/h (2 Bft) O 88 0 min 0,000 mm 0,0 UV-I 5 W/m -2,5 C 8,0 C 14,5 km/h (3 Bft) 98,21 %
27.03.2017 19:44 11,3 C 38 % 1022,7 hPa 0,0 l/m 13,1 km/h (3 Bft) O-NO 75 0 min 0,000 mm 0,0 UV-I 1 W/m -2,5 C 7,5 C 17,7 km/h (3 Bft) 97,87 %
27.03.2017 19:46 11,2 C 38 % 1022,6 hPa 0,0 l/m 13,3 km/h (3 Bft) O 80 0 min 0,000 mm 0,0 UV-I 0 W/m -2,6 C 7,3 C 19,3 km/h (3 Bft) 97,87 %
27.03.2017 19:48 11,2 C 38 % 1022,6 hPa 0,0 l/m 12,4 km/h (3 Bft) O 79 0 min 0,000 mm 0,0 UV-I 0 W/m -2,6 C 7,7 C 16,1 km/h (3 Bft) 97,44 %
27.03.2017 19:50 11,1 C 39 % 1022,6 hPa 0,0 l/m 12,7 km/h (3 Bft) O-NO 71 0 min 0,000 mm 0,0 UV-I 0 W/m -2,3 C 7,5 C 16,1 km/h (3 Bft) 95,12 %
27.03.2017 19:52 11,0 C 39 % 1022,6 hPa 0,0 l/m 12,7 km/h (3 Bft) O-NO 77 0 min 0,000 mm 0,0 UV-I 0 W/m -2,4 C 7,3 C 16,1 km/h (3 Bft) 98,31 %
27.03.2017 19:54 10,9 C 39 % 1022,6 hPa 0,0 l/m 11,9 km/h (2 Bft) O-NO 59 0 min 0,000 mm 0,0 UV-I 0 W/m -2,5 C 7,6 C 14,5 km/h (3 Bft) 97,87 %
27.03.2017 19:56 10,9 C 39 % 1022,7 hPa 0,0 l/m 11,5 km/h (2 Bft) O-NO 65 0 min 0,000 mm 0,0 UV-I 0 W/m -2,5 C 7,8 C 16,1 km/h (3 Bft) 95,74 %
27.03.2017 19:58 10,8 C 39 % 1022,7 hPa 0,0 l/m 10,6 km/h (2 Bft) O-NO 61 0 min 0,000 mm 0,0 UV-I 0 W/m -2,6 C 8,2 C 16,1 km/h (3 Bft) 94,74 %
27.03.2017 20:00 10,8 C 39 % 1022,7 hPa 0,0 l/m 13,9 km/h (3 Bft) O-NO 71 0 min 0,000 mm 0,0 UV-I 0 W/m -2,6 C 6,6 C 19,3 km/h (3 Bft) 94,00 %
27.03.2017 20:02 10,7 C 40 % 1022,7 hPa 0,0 l/m 12,4 km/h (3 Bft) O-NO 68 0 min 0,102 mm 0,0 UV-I 0 W/m -2,3 C 7,1 C 19,3 km/h (3 Bft) 94,34 %
27.03.2017 20:04 10,6 C 40 % 1022,7 hPa 0,0 l/m 10,9 km/h (2 Bft) NO 48 0 min 0,000 mm 0,0 UV-I 0 W/m -2,4 C 7,8 C 17,7 km/h (3 Bft) 97,56 %
27.03.2017 20:06 10,6 C 40 % 1022,7 hPa 0,0 l/m 11,1 km/h (2 Bft) O 96 0 min 0,000 mm 0,0 UV-I 0 W/m -2,4 C 7,7 C 19,3 km/h (3 Bft) 94,34 %
27.03.2017 20:08 10,4 C 41 % 1022,7 hPa 0,0 l/m 12,7 km/h (3 Bft) O 84 0 min 0,000 mm 0,0 UV-I 0 W/m -2,3 C 6,6 C 16,1 km/h (3 Bft) 100,00 %
27.03.2017 20:10 10,4 C 41 % 1022,8 hPa 0,0 l/m 13,5 km/h (3 Bft) O-NO 70 0 min 0,000 mm 0,0 UV-I 0 W/m -2,3 C 6,3 C 17,7 km/h (3 Bft) 92,00 %
27.03.2017 20:12 10,3 C 41 % 1022,8 hPa 0,0 l/m 12,6 km/h (3 Bft) O-NO 78 0 min 0,000 mm 0,0 UV-I 0 W/m -2,4 C 6,6 C 16,1 km/h (3 Bft) 100,00 %
27.03.2017 20:14 10,3 C 41 % 1022,8 hPa 0,0 l/m 11,6 km/h (2 Bft) O-NO 66 0 min 0,000 mm 0,0 UV-I 0 W/m -2,4 C 7,1 C 17,7 km/h (3 Bft) 98,00 %
27.03.2017 20:16 10,3 C 41 % 1022,9 hPa 0,0 l/m 13,4 km/h (3 Bft) O-SO 103 0 min 0,000 mm 0,0 UV-I 0 W/m -2,4 C 6,2 C 17,7 km/h (3 Bft) 97,56 %
27.03.2017 20:18 10,3 C 41 % 1022,9 hPa 0,0 l/m 12,3 km/h (3 Bft) O-NO 74 0 min 0,000 mm 0,0 UV-I 0 W/m -2,4 C 6,7 C 16,1 km/h (3 Bft) 98,21 %
27.03.2017 20:20 10,2 C 41 % 1022,9 hPa 0,0 l/m 15,4 km/h (3 Bft) O-NO 58 0 min 0,000 mm 0,0 UV-I 0 W/m -2,5 C 5,2 C 20,9 km/h (4 Bft) 100,00 %
27.03.2017 20:22 10,2 C 41 % 1022,9 hPa 0,0 l/m 15,3 km/h (3 Bft) O-NO 61 0 min 0,000 mm 0,0 UV-I 0 W/m -2,5 C 5,3 C 17,7 km/h (3 Bft) 96,55 %
27.03.2017 20:24 10,2 C 42 % 1022,9 hPa 0,0 l/m 15,1 km/h (3 Bft) O-NO 66 0 min 0,000 mm 0,0 UV-I 0 W/m -2,1 C 5,3 C 20,9 km/h (4 Bft) 98,11 %
27.03.2017 20:26 10,2 C 42 % 1022,9 hPa 0,0 l/m 15,5 km/h (3 Bft) NO 40 0 min 0,000 mm 0,0 UV-I 0 W/m -2,1 C 5,2 C 20,9 km/h (4 Bft) 100,00 %
27.03.2017 20:28 10,2 C 42 % 1023,0 hPa 0,0 l/m 15,9 km/h (3 Bft) O-NO 78 0 min 0,000 mm 0,0 UV-I 0 W/m -2,1 C 5,0 C 24,1 km/h (4 Bft) 97,14 %
27.03.2017 20:30 10,2 C 41 % 1023,0 hPa 0,0 l/m 15,8 km/h (3 Bft) O-NO 61 0 min 0,000 mm 0,0 UV-I 0 W/m -2,5 C 5,1 C 20,9 km/h (4 Bft) 95,52 %
27.03.2017 20:32 10,3 C 41 % 1023,0 hPa 0,0 l/m 16,4 km/h (3 Bft) O-NO 75 0 min 0,000 mm 0,0 UV-I 0 W/m -2,4 C 4,9 C 22,5 km/h (4 Bft) 89,74 %
27.03.2017 20:34 10,3 C 41 % 1023,0 hPa 0,0 l/m 18,8 km/h (3 Bft) O-NO 73 0 min 0,000 mm 0,0 UV-I 0 W/m -2,4 C 4,1 C 24,1 km/h (4 Bft) 98,00 %
27.03.2017 20:36 10,3 C 42 % 1023,0 hPa 0,0 l/m 18,1 km/h (3 Bft) O-NO 76 0 min 0,000 mm 0,0 UV-I 0 W/m -2,0 C 4,3 C 25,7 km/h (4 Bft) 94,34 %
27.03.2017 20:39 10,3 C 41 % 1023,0 hPa 0,0 l/m 16,9 km/h (3 Bft) O 101 0 min 0,000 mm 0,0 UV-I 0 W/m -2,4 C 4,7 C 24,1 km/h (4 Bft) 97,87 %
27.03.2017 20:40 10,3 C 41 % 1023,0 hPa 0,0 l/m 16,1 km/h (3 Bft) O 86 0 min 0,000 mm 0,0 UV-I 0 W/m -2,4 C 5,1 C 22,5 km/h (4 Bft) 93,18 %
27.03.2017 20:42 10,3 C 41 % 1023,0 hPa 0,0 l/m 14,8 km/h (3 Bft) O 79 0 min 0,000 mm 0,0 UV-I 0 W/m -2,4 C 5,6 C 20,9 km/h (4 Bft) 92,68 %
27.03.2017 20:44 10,3 C 41 % 1023,0 hPa 0,0 l/m 14,6 km/h (3 Bft) O-NO 65 0 min 0,000 mm 0,0 UV-I 0 W/m -2,4 C 5,7 C 17,7 km/h (3 Bft) 94,00 %
27.03.2017 20:46 10,3 C 41 % 1023,0 hPa 0,0 l/m 16,3 km/h (3 Bft) O 82 0 min 0,000 mm 0,0 UV-I 0 W/m -2,4 C 5,0 C 24,1 km/h (4 Bft) 92,68 %
27.03.2017 20:48 10,3 C 42 % 1023,1 hPa 0,0 l/m 14,3 km/h (3 Bft) O-NO 57 0 min 0,000 mm 0,0 UV-I 0 W/m -2,0 C 5,8 C 19,3 km/h (3 Bft) 92,68 %
27.03.2017 20:50 10,2 C 42 % 1023,1 hPa 0,0 l/m 15,9 km/h (3 Bft) O-NO 67 0 min 0,000 mm 0,0 UV-I 0 W/m -2,1 C 5,0 C 20,9 km/h (4 Bft) 96,55 %
27.03.2017 20:52 10,2 C 42 % 1023,1 hPa 0,0 l/m 15,1 km/h (3 Bft) O 81 0 min 0,000 mm 0,0 UV-I 0 W/m -2,1 C 5,3 C 19,3 km/h (3 Bft) 95,12 %
27.03.2017 20:54 10,2 C 42 % 1023,1 hPa 0,0 l/m 16,7 km/h (3 Bft) O-NO 67 0 min 0,000 mm 0,0 UV-I 0 W/m -2,1 C 4,7 C 22,5 km/h (4 Bft) 93,22 %
27.03.2017 20:56 10,2 C 42 % 1023,1 hPa 0,0 l/m 18,3 km/h (3 Bft) O-NO 74 0 min 0,000 mm 0,0 UV-I 0 W/m -2,1 C 4,1 C 24,1 km/h (4 Bft) 95,45 %
27.03.2017 20:58 10,2 C 42 % 1023,1 hPa 0,0 l/m 17,8 km/h (3 Bft) O-NO 71 0 min 0,000 mm 0,0 UV-I 0 W/m -2,1 C 4,3 C 25,7 km/h (4 Bft) 95,45 %
27.03.2017 21:00 10,2 C 42 % 1023,1 hPa 0,0 l/m 13,0 km/h (3 Bft) NO 53 0 min 0,000 mm 0,0 UV-I 0 W/m -2,1 C 6,3 C 20,9 km/h (4 Bft) 90,00 %
27.03.2017 21:02 10,1 C 42 % 1023,1 hPa 0,0 l/m 12,7 km/h (3 Bft) O-NO 62 0 min 0,101 mm 0,0 UV-I 0 W/m -2,2 C 6,3 C 17,7 km/h (3 Bft) 97,56 %
27.03.2017 21:04 10,1 C 42 % 1023,1 hPa 0,0 l/m 12,1 km/h (2 Bft) O-NO 68 0 min 0,000 mm 0,0 UV-I 0 W/m -2,2 C 6,6 C 17,7 km/h (3 Bft) 95,74 %
27.03.2017 21:06 9,9 C 43 % 1023,1 hPa 0,0 l/m 12,6 km/h (3 Bft) O-NO 63 0 min 0,000 mm 0,0 UV-I 0 W/m -2,1 C 6,1 C 16,1 km/h (3 Bft) 94,00 %
27.03.2017 21:08 9,9 C 42 % 1023,1 hPa 0,0 l/m 14,0 km/h (3 Bft) O-NO 63 0 min 0,000 mm 0,0 UV-I 0 W/m -2,4 C 5,4 C 19,3 km/h (3 Bft) 92,31 %
27.03.2017 21:10 9,8 C 42 % 1023,2 hPa 0,0 l/m 14,2 km/h (3 Bft) O-NO 63 0 min 0,000 mm 0,0 UV-I 0 W/m -2,5 C 5,2 C 19,3 km/h (3 Bft) 92,00 %
27.03.2017 21:12 9,8 C 42 % 1023,2 hPa 0,0 l/m 14,6 km/h (3 Bft) O-NO 74 0 min 0,000 mm 0,0 UV-I 0 W/m -2,5 C 5,1 C 19,3 km/h (3 Bft) 94,00 %
27.03.2017 21:14 9,8 C 43 % 1023,2 hPa 0,0 l/m 14,3 km/h (3 Bft) O-NO 76 0 min 0,000 mm 0,0 UV-I 0 W/m -2,2 C 5,2 C 19,3 km/h (3 Bft) 90,00 %
27.03.2017 21:16 9,8 C 42 % 1023,2 hPa 0,0 l/m 16,8 km/h (3 Bft) O-NO 69 0 min 0,000 mm 0,0 UV-I 0 W/m -2,5 C 4,2 C 25,7 km/h (4 Bft) 85,11 %
27.03.2017 21:18 9,8 C 42 % 1023,1 hPa 0,0 l/m 12,2 km/h (2 Bft) NO 49 0 min 0,000 mm 0,0 UV-I 0 W/m -2,5 C 6,2 C 16,1 km/h (3 Bft) 90,91 %
27.03.2017 21:20 9,8 C 42 % 1023,2 hPa 0,0 l/m 13,8 km/h (3 Bft) O-NO 75 0 min 0,000 mm 0,0 UV-I 0 W/m -2,5 C 5,4 C 17,7 km/h (3 Bft) 96,23 %
27.03.2017 21:22 9,8 C 42 % 1023,2 hPa 0,0 l/m 12,0 km/h (2 Bft) O-NO 63 0 min 0,000 mm 0,0 UV-I 0 W/m -2,5 C 6,3 C 16,1 km/h (3 Bft) 89,47 %
27.03.2017 21:24 9,8 C 42 % 1023,3 hPa 0,0 l/m 10,0 km/h (2 Bft) NO 51 0 min 0,000 mm 0,0 UV-I 0 W/m -2,5 C 7,4 C 16,1 km/h (3 Bft) 92,45 %
27.03.2017 21:26 9,7 C 42 % 1023,2 hPa 0,0 l/m 11,4 km/h (2 Bft) O 88 0 min 0,000 mm 0,0 UV-I 0 W/m -2,6 C 6,5 C 16,1 km/h (3 Bft) 91,49 %
27.03.2017 21:28 9,7 C 42 % 1023,2 hPa 0,0 l/m 9,7 km/h (2 Bft) NO 45 0 min 0,000 mm 0,0 UV-I 0 W/m -2,6 C 7,4 C 14,5 km/h (3 Bft) 93,18 %
27.03.2017 21:30 9,7 C 42 % 1023,2 hPa 0,0 l/m 11,2 km/h (2 Bft) O-NO 61 0 min 0,000 mm 0,0 UV-I 0 W/m -2,6 C 6,6 C 16,1 km/h (3 Bft) 94,00 %
27.03.2017 21:32 9,7 C 42 % 1023,2 hPa 0,0 l/m 14,9 km/h (3 Bft) O-NO 58 0 min 0,000 mm 0,0 UV-I 0 W/m -2,6 C 4,8 C 19,3 km/h (3 Bft) 87,80 %
27.03.2017 21:34 9,7 C 42 % 1023,2 hPa 0,0 l/m 14,0 km/h (3 Bft) NO 42 0 min 0,000 mm 0,0 UV-I 0 W/m -2,6 C 5,2 C 20,9 km/h (4 Bft) 92,45 %
27.03.2017 21:36 9,7 C 42 % 1023,2 hPa 0,0 l/m 10,5 km/h (2 Bft) NO 55 0 min 0,000 mm 0,0 UV-I 0 W/m -2,6 C 7,0 C 16,1 km/h (3 Bft) 94,74 %
27.03.2017 21:38 9,7 C 42 % 1023,2 hPa 0,0 l/m 12,6 km/h (3 Bft) O-NO 70 0 min 0,000 mm 0,0 UV-I 0 W/m -2,6 C 5,9 C 17,7 km/h (3 Bft) 93,62 %
27.03.2017 21:40 9,6 C 42 % 1023,3 hPa 0,0 l/m 14,9 km/h (3 Bft) O-NO 65 0 min 0,000 mm 0,0 UV-I 0 W/m -2,7 C 4,7 C 22,5 km/h (4 Bft) 95,74 %
27.03.2017 21:42 9,6 C 42 % 1023,2 hPa 0,0 l/m 11,2 km/h (2 Bft) O-NO 69 0 min 0,000 mm 0,0 UV-I 0 W/m -2,7 C 6,5 C 16,1 km/h (3 Bft) 94,00 %
27.03.2017 21:44 9,6 C 42 % 1023,3 hPa 0,0 l/m 8,6 km/h (2 Bft) NO 42 0 min 0,000 mm 0,0 UV-I 0 W/m -2,7 C 8,0 C 16,1 km/h (3 Bft) 96,23 %
27.03.2017 21:46 9,5 C 42 % 1023,3 hPa 0,0 l/m 7,3 km/h (2 Bft) NO 40 0 min 0,000 mm 0,0 UV-I 0 W/m -2,8 C 8,8 C 9,7 km/h (2 Bft) 100,00 %
27.03.2017 21:48 9,4 C 43 % 1023,2 hPa 0,0 l/m 9,7 km/h (2 Bft) O-NO 59 0 min 0,000 mm 0,0 UV-I 0 W/m -2,5 C 7,1 C 14,5 km/h (3 Bft) 98,08 %
27.03.2017 21:50 9,3 C 42 % 1023,1 hPa 0,0 l/m 12,4 km/h (3 Bft) N-NO 33 0 min 0,000 mm 0,0 UV-I 0 W/m -2,9 C 5,5 C 19,3 km/h (3 Bft) 97,44 %
27.03.2017 21:52 9,3 C 43 % 1023,1 hPa 0,0 l/m 7,9 km/h (2 Bft) O-NO 67 0 min 0,000 mm 0,0 UV-I 0 W/m -2,6 C 8,2 C 16,1 km/h (3 Bft) 92,11 %
27.03.2017 21:54 9,2 C 43 % 1023,2 hPa 0,0 l/m 8,0 km/h (2 Bft) O-NO 59 0 min 0,000 mm 0,0 UV-I 0 W/m -2,7 C 8,0 C 17,7 km/h (3 Bft) 96,77 %
27.03.2017 21:56 9,2 C 43 % 1023,1 hPa 0,0 l/m 8,9 km/h (2 Bft) NO 43 0 min 0,000 mm 0,0 UV-I 0 W/m -2,7 C 7,4 C 12,9 km/h (3 Bft) 100,00 %
27.03.2017 21:58 9,2 C 43 % 1023,2 hPa 0,0 l/m 8,3 km/h (2 Bft) NO 56 0 min 0,000 mm 0,0 UV-I 0 W/m -2,7 C 7,8 C 12,9 km/h (3 Bft) 94,64 %
27.03.2017 22:00 9,1 C 43 % 1023,3 hPa 0,0 l/m 9,9 km/h (2 Bft) NO 45 0 min 0,000 mm 0,0 UV-I 0 W/m -2,8 C 6,7 C 16,1 km/h (3 Bft) 96,55 %
27.03.2017 22:02 9,1 C 44 % 1023,2 hPa 0,0 l/m 7,0 km/h (2 Bft) O-NO 67 0 min 0,077 mm 0,0 UV-I 0 W/m -2,5 C 8,7 C 12,9 km/h (3 Bft) 97,06 %
27.03.2017 22:04 9,1 C 43 % 1023,2 hPa 0,0 l/m 11,7 km/h (2 Bft) NO 49 0 min 0,000 mm 0,0 UV-I 0 W/m -2,8 C 5,6 C 16,1 km/h (3 Bft) 92,68 %
27.03.2017 22:06 9,1 C 43 % 1023,2 hPa 0,0 l/m 12,2 km/h (2 Bft) NO 55 0 min 0,000 mm 0,0 UV-I 0 W/m -2,8 C 5,4 C 19,3 km/h (3 Bft) 94,34 %
27.03.2017 22:08 9,1 C 43 % 1023,2 hPa 0,0 l/m 10,5 km/h (2 Bft) NO 48 0 min 0,000 mm 0,0 UV-I 0 W/m -2,8 C 6,3 C 16,1 km/h (3 Bft) 100,00 %
27.03.2017 22:10 9,2 C 43 % 1023,2 hPa 0,0 l/m 10,5 km/h (2 Bft) NO 53 0 min 0,000 mm 0,0 UV-I 0 W/m -2,7 C 6,4 C 14,5 km/h (3 Bft) 97,56 %
27.03.2017 22:12 9,1 C 42 % 1023,1 hPa 0,0 l/m 10,4 km/h (2 Bft) O-NO 64 0 min 0,000 mm 0,0 UV-I 0 W/m -3,1 C 6,4 C 17,7 km/h (3 Bft) 94,34 %
27.03.2017 22:14 9,1 C 43 % 1023,2 hPa 0,0 l/m 8,8 km/h (2 Bft) NO 38 0 min 0,000 mm 0,0 UV-I 0 W/m -2,8 C 7,4 C 14,5 km/h (3 Bft) 97,37 %
27.03.2017 22:16 9,1 C 43 % 1023,2 hPa 0,0 l/m 8,8 km/h (2 Bft) NO 50 0 min 0,000 mm 0,0 UV-I 0 W/m -2,8 C 7,4 C 17,7 km/h (3 Bft) 94,34 %
27.03.2017 22:18 9,1 C 42 % 1023,2 hPa 0,0 l/m 10,6 km/h (2 Bft) NO 45 0 min 0,000 mm 0,0 UV-I 0 W/m -3,1 C 6,2 C 14,5 km/h (3 Bft) 92,11 %
27.03.2017 22:20 9,1 C 43 % 1023,2 hPa 0,0 l/m 9,4 km/h (2 Bft) O-NO 69 0 min 0,000 mm 0,0 UV-I 0 W/m -2,8 C 7,0 C 17,7 km/h (3 Bft) 97,62 %
27.03.2017 22:22 9,0 C 43 % 1023,2 hPa 0,0 l/m 9,3 km/h (2 Bft) NO 54 0 min 0,000 mm 0,0 UV-I 0 W/m -2,9 C 6,9 C 16,1 km/h (3 Bft) 100,00 %
27.03.2017 22:24 8,9 C 43 % 1023,2 hPa 0,0 l/m 9,3 km/h (2 Bft) NO 55 0 min 0,000 mm 0,0 UV-I 0 W/m -3,0 C 6,8 C 17,7 km/h (3 Bft) 98,11 %
27.03.2017 22:26 8,9 C 43 % 1023,2 hPa 0,0 l/m 10,9 km/h (2 Bft) O-NO 64 0 min 0,000 mm 0,0 UV-I 0 W/m -3,0 C 5,9 C 16,1 km/h (3 Bft) 97,62 %
27.03.2017 22:28 8,8 C 44 % 1023,2 hPa 0,0 l/m 9,6 km/h (2 Bft) NO 46 0 min 0,000 mm 0,0 UV-I 0 W/m -2,8 C 6,5 C 16,1 km/h (3 Bft) 100,00 %
27.03.2017 22:30 8,8 C 44 % 1023,1 hPa 0,0 l/m 10,3 km/h (2 Bft) O-NO 71 0 min 0,000 mm 0,0 UV-I 0 W/m -2,8 C 6,1 C 16,1 km/h (3 Bft) 96,61 %
27.03.2017 22:32 8,7 C 44 % 1023,1 hPa 0,0 l/m 9,7 km/h (2 Bft) NO 48 0 min 0,000 mm 0,0 UV-I 0 W/m -2,9 C 6,3 C 16,1 km/h (3 Bft) 97,37 %
27.03.2017 22:34 8,7 C 44 % 1023,1 hPa 0,0 l/m 10,8 km/h (2 Bft) NO 38 0 min 0,000 mm 0,0 UV-I 0 W/m -2,9 C 5,7 C 16,1 km/h (3 Bft) 96,55 %
27.03.2017 22:36 8,7 C 44 % 1023,1 hPa 0,0 l/m 8,2 km/h (2 Bft) O-NO 62 0 min 0,000 mm 0,0 UV-I 0 W/m -2,9 C 7,3 C 11,3 km/h (2 Bft) 98,59 %
27.03.2017 22:38 8,6 C 44 % 1023,1 hPa 0,0 l/m 10,4 km/h (2 Bft) NO 55 0 min 0,000 mm 0,0 UV-I 0 W/m -2,9 C 5,8 C 16,1 km/h (3 Bft) 100,00 %
27.03.2017 22:40 8,6 C 44 % 1023,1 hPa 0,0 l/m 12,0 km/h (2 Bft) NO 56 0 min 0,000 mm 0,0 UV-I 0 W/m -2,9 C 4,9 C 17,7 km/h (3 Bft) 100,00 %
27.03.2017 22:42 8,6 C 44 % 1023,1 hPa 0,0 l/m 12,7 km/h (3 Bft) O-NO 59 0 min 0,000 mm 0,0 UV-I 0 W/m -2,9 C 4,5 C 17,7 km/h (3 Bft) 98,11 %
27.03.2017 22:44 8,6 C 44 % 1023,1 hPa 0,0 l/m 13,9 km/h (3 Bft) O-NO 62 0 min 0,000 mm 0,0 UV-I 0 W/m -2,9 C 3,9 C 17,7 km/h (3 Bft) 97,37 %
27.03.2017 22:46 8,6 C 44 % 1023,1 hPa 0,0 l/m 14,1 km/h (3 Bft) NO 53 0 min 0,000 mm 0,0 UV-I 0 W/m -2,9 C 3,8 C 17,7 km/h (3 Bft) 98,00 %
27.03.2017 22:48 8,6 C 44 % 1023,1 hPa 0,0 l/m 14,4 km/h (3 Bft) NO 45 0 min 0,000 mm 0,0 UV-I 0 W/m -2,9 C 3,7 C 19,3 km/h (3 Bft) 100,00 %
27.03.2017 22:50 8,6 C 44 % 1023,0 hPa 0,0 l/m 15,6 km/h (3 Bft) O 90 0 min 0,000 mm 0,0 UV-I 0 W/m -2,9 C 3,2 C 20,9 km/h (4 Bft) 98,00 %
27.03.2017 22:52 8,6 C 44 % 1023,0 hPa 0,0 l/m 14,2 km/h (3 Bft) O-NO 57 0 min 0,000 mm 0,0 UV-I 0 W/m -2,9 C 3,8 C 19,3 km/h (3 Bft) 98,00 %
27.03.2017 22:54 8,6 C 44 % 1023,0 hPa 0,0 l/m 17,0 km/h (3 Bft) NO 53 0 min 0,000 mm 0,0 UV-I 0 W/m -2,9 C 2,6 C 24,1 km/h (4 Bft) 97,37 %
27.03.2017 22:56 8,6 C 44 % 1023,0 hPa 0,0 l/m 15,7 km/h (3 Bft) O-NO 68 0 min 0,000 mm 0,0 UV-I 0 W/m -2,9 C 3,1 C 20,9 km/h (4 Bft) 96,23 %
27.03.2017 22:58 8,6 C 44 % 1023,0 hPa 0,0 l/m 14,6 km/h (3 Bft) O-NO 64 0 min 0,000 mm 0,0 UV-I 0 W/m -2,9 C 3,6 C 17,7 km/h (3 Bft) 100,00 %
27.03.2017 23:00 8,6 C 43 % 1023,0 hPa 0,0 l/m 17,2 km/h (3 Bft) NO 54 0 min 0,000 mm 0,0 UV-I 0 W/m -3,3 C 2,5 C 25,7 km/h (4 Bft) 98,21 %
27.03.2017 23:02 8,6 C 43 % 1023,0 hPa 0,0 l/m 16,4 km/h (3 Bft) O-NO 64 0 min 0,076 mm 0,0 UV-I 0 W/m -3,3 C 2,8 C 22,5 km/h (4 Bft) 100,00 %
27.03.2017 23:04 8,6 C 44 % 1022,9 hPa 0,0 l/m 14,9 km/h (3 Bft) NO 43 0 min 0,000 mm 0,0 UV-I 0 W/m -2,9 C 3,5 C 25,7 km/h (4 Bft) 98,11 %
27.03.2017 23:06 8,5 C 44 % 1022,9 hPa 0,0 l/m 15,3 km/h (3 Bft) O-NO 63 0 min 0,000 mm 0,0 UV-I 0 W/m -3,0 C 3,2 C 20,9 km/h (4 Bft) 97,44 %
27.03.2017 23:08 8,4 C 44 % 1022,9 hPa 0,0 l/m 16,0 km/h (3 Bft) NO 53 0 min 0,000 mm 0,0 UV-I 0 W/m -3,1 C 2,8 C 20,9 km/h (4 Bft) 95,74 %
27.03.2017 23:10 8,4 C 45 % 1022,9 hPa 0,0 l/m 17,1 km/h (3 Bft) NO 55 0 min 0,000 mm 0,0 UV-I 0 W/m -2,8 C 2,3 C 24,1 km/h (4 Bft) 96,23 %
27.03.2017 23:12 8,3 C 45 % 1022,9 hPa 0,0 l/m 16,5 km/h (3 Bft) NO 44 0 min 0,000 mm 0,0 UV-I 0 W/m -2,9 C 2,4 C 20,9 km/h (4 Bft) 97,37 %
27.03.2017 23:14 8,3 C 45 % 1022,9 hPa 0,0 l/m 17,4 km/h (3 Bft) O-NO 64 0 min 0,000 mm 0,0 UV-I 0 W/m -2,9 C 2,1 C 24,1 km/h (4 Bft) 96,23 %
27.03.2017 23:16 8,3 C 45 % 1022,9 hPa 0,0 l/m 17,6 km/h (3 Bft) O-NO 72 0 min 0,000 mm 0,0 UV-I 0 W/m -2,9 C 2,0 C 20,9 km/h (4 Bft) 97,56 %
27.03.2017 23:18 8,2 C 46 % 1022,9 hPa 0,0 l/m 15,0 km/h (3 Bft) NO 53 0 min 0,000 mm 0,0 UV-I 0 W/m -2,7 C 3,0 C 19,3 km/h (3 Bft) 98,00 %
27.03.2017 23:20 8,2 C 46 % 1022,9 hPa 0,0 l/m 16,0 km/h (3 Bft) O 85 0 min 0,000 mm 0,0 UV-I 0 W/m -2,7 C 2,5 C 20,9 km/h (4 Bft) 96,00 %
27.03.2017 23:22 8,2 C 46 % 1022,9 hPa 0,0 l/m 13,7 km/h (3 Bft) NO 53 0 min 0,000 mm 0,0 UV-I 0 W/m -2,7 C 3,6 C 20,9 km/h (4 Bft) 98,00 %
27.03.2017 23:24 8,1 C 46 % 1022,9 hPa 0,0 l/m 12,2 km/h (2 Bft) O-NO 64 0 min 0,000 mm 0,0 UV-I 0 W/m -2,8 C 4,2 C 16,1 km/h (3 Bft) 94,74 %
27.03.2017 23:26 8,0 C 46 % 1022,9 hPa 0,0 l/m 11,9 km/h (2 Bft) O-NO 63 0 min 0,000 mm 0,0 UV-I 0 W/m -2,9 C 4,3 C 19,3 km/h (3 Bft) 96,00 %
27.03.2017 23:28 7,9 C 47 % 1022,9 hPa 0,0 l/m 13,2 km/h (3 Bft) NO 46 0 min 0,000 mm 0,0 UV-I 0 W/m -2,7 C 3,5 C 17,7 km/h (3 Bft) 97,56 %
27.03.2017 23:30 7,9 C 47 % 1022,9 hPa 0,0 l/m 13,4 km/h (3 Bft) O-NO 67 0 min 0,000 mm 0,0 UV-I 0 W/m -2,7 C 3,4 C 19,3 km/h (3 Bft) 94,92 %
27.03.2017 23:32 7,9 C 47 % 1022,9 hPa 0,0 l/m 12,1 km/h (2 Bft) O-NO 71 0 min 0,000 mm 0,0 UV-I 0 W/m -2,7 C 4,0 C 16,1 km/h (3 Bft) 95,45 %
27.03.2017 23:34 7,8 C 48 % 1022,9 hPa 0,0 l/m 12,5 km/h (3 Bft) O-NO 72 0 min 0,000 mm 0,0 UV-I 0 W/m -2,5 C 3,7 C 16,1 km/h (3 Bft) 95,45 %
27.03.2017 23:36 7,8 C 47 % 1022,9 hPa 0,0 l/m 11,6 km/h (2 Bft) O-NO 58 0 min 0,000 mm 0,0 UV-I 0 W/m -2,8 C 4,2 C 17,7 km/h (3 Bft) 91,49 %
27.03.2017 23:38 7,7 C 47 % 1022,9 hPa 0,0 l/m 11,8 km/h (2 Bft) O-NO 66 0 min 0,000 mm 0,0 UV-I 0 W/m -2,9 C 4,0 C 16,1 km/h (3 Bft) 96,00 %
27.03.2017 23:40 7,7 C 47 % 1022,9 hPa 0,0 l/m 9,5 km/h (2 Bft) NO 56 0 min 0,000 mm 0,0 UV-I 0 W/m -2,9 C 5,4 C 12,9 km/h (3 Bft) 97,73 %
27.03.2017 23:42 7,7 C 47 % 1022,9 hPa 0,0 l/m 11,7 km/h (2 Bft) O-NO 62 0 min 0,000 mm 0,0 UV-I 0 W/m -2,9 C 4,0 C 16,1 km/h (3 Bft) 97,62 %
27.03.2017 23:44 7,7 C 48 % 1022,9 hPa 0,0 l/m 10,6 km/h (2 Bft) NO 55 0 min 0,000 mm 0,0 UV-I 0 W/m -2,6 C 4,7 C 17,7 km/h (3 Bft) 98,08 %
27.03.2017 23:46 7,6 C 48 % 1022,9 hPa 0,0 l/m 10,1 km/h (2 Bft) O-NO 60 0 min 0,000 mm 0,0 UV-I 0 W/m -2,7 C 4,9 C 16,1 km/h (3 Bft) 100,00 %
27.03.2017 23:48 7,6 C 47 % 1022,9 hPa 0,0 l/m 9,8 km/h (2 Bft) NO 38 0 min 0,000 mm 0,0 UV-I 0 W/m -3,0 C 5,1 C 14,5 km/h (3 Bft) 96,00 %
27.03.2017 23:50 7,6 C 47 % 1022,9 hPa 0,0 l/m 10,6 km/h (2 Bft) O-NO 60 0 min 0,000 mm 0,0 UV-I 0 W/m -3,0 C 4,6 C 14,5 km/h (3 Bft) 98,00 %
27.03.2017 23:52 7,6 C 47 % 1022,9 hPa 0,0 l/m 9,4 km/h (2 Bft) O 84 0 min 0,000 mm 0,0 UV-I 0 W/m -3,0 C 5,3 C 11,3 km/h (2 Bft) 92,68 %
27.03.2017 23:54 7,6 C 47 % 1022,9 hPa 0,0 l/m 8,6 km/h (2 Bft) O 82 0 min 0,000 mm 0,0 UV-I 0 W/m -3,0 C 5,9 C 12,9 km/h (3 Bft) 100,00 %
27.03.2017 23:56 7,5 C 48 % 1022,9 hPa 0,0 l/m 9,4 km/h (2 Bft) O-NO 68 0 min 0,000 mm 0,0 UV-I 0 W/m -2,8 C 5,2 C 12,9 km/h (3 Bft) 97,73 %
27.03.2017 23:58 7,5 C 48 % 1022,9 hPa 0,0 l/m 7,9 km/h (2 Bft) O 82 0 min 0,000 mm 0,0 UV-I 0 W/m -2,8 C 6,3 C 12,9 km/h (3 Bft) 97,56 %
_ Min-Zeit 04:26 15:36 18:20 - 00:20 - - - - - - 15:36 05:32 00:20 21:16
Minimum _ -0,5 C 21 % 1022,4 hPa - 0,0 km/h (0 Bft) - - - - - - -7,4 C -4,3 C 0,0 km/h (0 Bft) 85,11 %
_ Max-Zeit 16:14 07:44 08:00 00:00 13:58 - - 10:45 15:02 12:38 13:12 11:24 16:22 10:34 01:16
Maximum _ 15,2 C 85 % 1026,2 hPa 0,0 l/m 23,9 km/h
NO (4 Bft)
- - 3 min 0,508 mm 3,1 UV-I 750 W/m 1,3 C 12,3 C 33,8 km/h
O-NO (5 Bft)
100,00 %
Durchschnitt _ 7,2 C 55 % 1024,6 hPa #0,0 l/m 11,2 km/h (2 Bft) O-NO - #12:14 h #4,115 mm 2,0 UV-I 426 W/m -2,5 C 4,2 C 15,9 km/h (3 Bft) 96,50 %